[[{"header":{"parameterUnit":"m.s-1","parameterCategory":1,"la1":30.6,"la2":29.2853,"lo1":-89.7004,"lo2":-87.6739,"dy":0.0162,"dx":0.0183,"nx":112,"ny":82,"refTime":"2023-08-29T06:00:00:Z","depth":0,"parameterNumber":2,"parameterNumberName":"U-component_of_WINDS"},"data":[0.0,0.0,0.0,0.0,0.0,0.0,0.0,0.0,0.0,0.0,0.0,0.0,0.0,0.0,0.0,0.0,0.0,0.0,0.0,0.0,0.0,0.0,0.0,0.0,0.0,0.0,0.0,0.0,0.0,0.0,0.0,0.0,0.0,0.0,0.0,0.0,0.0,0.0,0.0,0.0,0.0,0.0,0.0,0.0,0.0,0.0,0.0,0.0,0.0,0.0,0.0,0.0,0.0,0.0,0.0,0.0,0.0,0.0,0.0,0.0,0.0,0.0,0.0,0.0,0.0,0.0,0.0,0.0,0.0,0.0,0.0,0.0,0.0,0.0,0.0,0.0,0.0,0.0,0.0,0.0,0.0,0.0,0.0,0.0,0.0,0.0,0.0,0.0,0.0,0.0,-1.8779,-2.0274,-2.2282,-2.2802,-2.111,-2.0691,-1.9635,-1.7524,0.0,0.0,0.0,0.0,0.0,0.0,0.0,0.0,0.0,0.0,0.0,0.0,0.0,0.0,0.0,0.0,0.0,0.0,0.0,0.0,0.0,0.0,0.0,0.0,0.0,0.0,0.0,0.0,0.0,0.0,0.0,0.0,0.0,0.0,0.0,0.0,0.0,0.0,0.0,0.0,0.0,0.0,0.0,0.0,0.0,0.0,0.0,0.0,0.0,0.0,0.0,0.0,0.0,0.0,0.0,0.0,0.0,0.0,0.0,0.0,0.0,0.0,0.0,0.0,0.0,0.0,0.0,0.0,0.0,0.0,0.0,0.0,0.0,0.0,0.0,0.0,0.0,0.0,0.0,0.0,0.0,0.0,0.0,0.0,0.0,0.0,0.0,0.0,0.0,0.0,0.0,0.0,0.0,0.0,0.0,0.0,0.0,0.0,0.0,0.0,0.0,0.0,0.0,0.0,-1.9046,-2.1238,-2.1844,-2.1968,-2.1667,-1.9693,-1.8158,-1.7436,0.0,0.0,0.0,0.0,0.0,0.0,0.0,0.0,0.0,0.0,0.0,0.0,0.0,0.0,0.0,0.0,0.0,0.0,0.0,0.0,0.0,0.0,0.0,0.0,0.0,0.0,0.0,0.0,0.0,0.0,0.0,0.0,0.0,0.0,0.0,0.0,0.0,0.0,0.0,0.0,0.0,0.0,0.0,0.0,0.0,0.0,0.0,0.0,0.0,0.0,0.0,0.0,0.0,0.0,0.0,0.0,0.0,0.0,0.0,0.0,0.0,0.0,0.0,0.0,0.0,0.0,0.0,0.0,0.0,0.0,0.0,0.0,0.0,0.0,0.0,0.0,0.0,0.0,0.0,0.0,0.0,0.0,0.0,0.0,0.0,0.0,0.0,0.0,0.0,0.0,0.0,0.0,0.0,0.0,0.0,0.0,0.0,0.0,0.0,0.0,0.0,0.0,0.0,-1.924,-2.051,-2.159,-2.2049,-2.2149,-2.1789,-1.9674,-1.8037,-1.7233,-1.6319,0.0,0.0,0.0,0.0,0.0,0.0,0.0,0.0,0.0,0.0,0.0,0.0,0.0,0.0,0.0,0.0,0.0,0.0,0.0,0.0,0.0,0.0,0.0,0.0,0.0,0.0,0.0,0.0,0.0,0.0,0.0,0.0,0.0,0.0,0.0,0.0,0.0,0.0,0.0,0.0,0.0,0.0,0.0,0.0,0.0,0.0,0.0,0.0,0.0,0.0,0.0,0.0,0.0,0.0,0.0,0.0,0.0,0.0,0.0,0.0,0.0,0.0,0.0,0.0,0.0,0.0,0.0,0.0,0.0,0.0,0.0,0.0,0.0,0.0,0.0,0.0,0.0,0.0,0.0,0.0,0.0,0.0,0.0,0.0,0.0,0.0,0.0,0.0,0.0,0.0,0.0,0.0,0.0,0.0,0.0,0.0,0.0,0.0,0.0,0.0,0.0,0.0,-2.0665,-2.1455,-2.1455,-2.1919,-2.2009,-2.1515,-1.9765,-1.8214,-1.7058,-1.6029,0.0,0.0,0.0,0.0,0.0,0.0,0.0,0.0,0.0,0.0,0.0,0.0,0.0,0.0,0.0,0.0,0.0,0.0,0.0,0.0,0.0,0.0,0.0,0.0,0.0,0.0,0.0,0.0,0.0,0.0,0.0,0.0,0.0,0.0,0.0,0.0,0.0,0.0,0.0,0.0,0.0,0.0,0.0,0.0,0.0,0.0,0.0,0.0,0.0,0.0,0.0,0.0,0.0,0.0,0.0,0.0,0.0,0.0,0.0,0.0,0.0,0.0,0.0,0.0,0.0,0.0,0.0,0.0,0.0,0.0,0.0,0.0,0.0,0.0,0.0,0.0,0.0,0.0,0.0,0.0,0.0,0.0,0.0,0.0,0.0,0.0,0.0,0.0,0.0,0.0,0.0,0.0,0.0,0.0,0.0,0.0,0.0,0.0,0.0,0.0,0.0,0.0,-2.0108,-2.0763,-2.0763,-2.0808,-2.0823,-2.0763,-1.951,-1.8214,-1.7058,-1.6336,0.0,0.0,0.0,0.0,0.0,0.0,0.0,0.0,0.0,0.0,0.0,0.0,0.0,0.0,0.0,0.0,0.0,0.0,0.0,0.0,0.0,0.0,0.0,0.0,0.0,0.0,0.0,0.0,0.0,0.0,0.0,0.0,0.0,0.0,0.0,0.0,0.0,0.0,0.0,0.0,0.0,0.0,0.0,0.0,0.0,0.0,0.0,0.0,0.0,0.0,0.0,0.0,0.0,0.0,0.0,0.0,0.0,0.0,0.0,0.0,0.0,0.0,0.0,0.0,0.0,0.0,0.0,0.0,0.0,0.0,0.0,0.0,0.0,0.0,0.0,0.0,0.0,0.0,0.0,0.0,0.0,0.0,0.0,0.0,0.0,0.0,0.0,0.0,0.0,0.0,0.0,0.0,0.0,0.0,0.0,0.0,0.0,0.0,0.0,0.0,0.0,0.0,-2.0195,-2.0703,0.0,-2.0703,-2.0524,-2.0109,-1.9226,-1.8003,-1.6348,0.0,0.0,0.0,0.0,0.0,0.0,0.0,0.0,0.0,0.0,0.0,0.0,0.0,0.0,0.0,0.0,0.0,0.0,0.0,0.0,0.0,0.0,0.0,0.0,0.0,0.0,0.0,0.0,0.0,0.0,0.0,0.0,0.0,0.0,0.0,0.0,0.0,0.0,0.0,0.0,0.0,0.0,0.0,0.0,0.0,0.0,0.0,0.0,0.0,0.0,0.0,0.0,0.0,0.0,0.0,0.0,0.0,0.0,0.0,0.0,0.0,0.0,0.0,0.0,0.0,0.0,0.0,0.0,0.0,0.0,0.0,0.0,0.0,0.0,0.0,0.0,0.0,0.0,0.0,0.0,0.0,0.0,0.0,0.0,0.0,0.0,0.0,0.0,0.0,0.0,0.0,0.0,0.0,0.0,0.0,0.0,0.0,0.0,0.0,0.0,0.0,0.0,-1.8958,-1.9812,-2.0303,0.0,-2.006,-1.9884,-1.9405,-1.8957,-1.7865,-1.5908,0.0,0.0,0.0,0.0,0.0,0.0,0.0,0.0,0.0,0.0,0.0,0.0,0.0,0.0,0.0,0.0,0.0,0.0,0.0,0.0,0.0,0.0,0.0,0.0,0.0,0.0,0.0,0.0,0.0,0.0,0.0,0.0,0.0,0.0,0.0,0.0,0.0,0.0,0.0,0.0,0.0,0.0,0.0,0.0,0.0,0.0,0.0,0.0,0.0,0.0,0.0,0.0,0.0,0.0,0.0,0.0,0.0,0.0,0.0,0.0,0.0,0.0,0.0,0.0,0.0,0.0,0.0,0.0,0.0,0.0,0.0,0.0,0.0,0.0,0.0,0.0,0.0,0.0,0.0,0.0,0.0,0.0,0.0,0.0,0.0,0.0,0.0,0.0,0.0,0.0,0.0,0.0,0.0,0.0,0.0,0.0,0.0,0.0,0.0,0.0,0.0,0.0,-1.7595,-1.879,-1.9453,-1.8777,-1.8717,-1.8717,-1.8702,-1.8702,-1.7865,0.0,0.0,0.0,0.0,0.0,0.0,0.0,0.0,0.0,0.0,0.0,0.0,0.0,0.0,0.0,0.0,0.0,0.0,0.0,0.0,0.0,0.0,0.0,0.0,0.0,0.0,0.0,0.0,0.0,0.0,0.0,0.0,0.0,0.0,0.0,0.0,0.0,0.0,0.0,0.0,0.0,0.0,0.0,0.0,0.0,0.0,0.0,0.0,0.0,0.0,0.0,0.0,0.0,0.0,0.0,0.0,0.0,0.0,0.0,0.0,0.0,0.0,0.0,0.0,0.0,0.0,0.0,0.0,0.0,0.0,0.0,0.0,0.0,0.0,0.0,0.0,0.0,0.0,0.0,0.0,0.0,0.0,0.0,0.0,0.0,0.0,0.0,0.0,0.0,0.0,0.0,0.0,0.0,0.0,0.0,0.0,0.0,0.0,0.0,0.0,0.0,0.0,0.0,-1.7963,-1.8968,-1.9453,-1.8777,-1.9121,-1.9211,-1.8747,-1.8702,-1.7865,-1.5908,0.0,0.0,0.0,0.0,0.0,0.0,0.0,0.0,0.0,0.0,0.0,0.0,0.0,0.0,0.0,0.0,0.0,0.0,0.0,0.0,0.0,0.0,0.0,0.0,0.0,0.0,0.0,0.0,0.0,0.0,0.0,0.0,0.0,0.0,0.0,0.0,0.0,0.0,0.0,0.0,0.0,0.0,0.0,0.0,0.0,0.0,0.0,0.0,0.0,0.0,0.0,0.0,0.0,0.0,0.0,0.0,0.0,0.0,0.0,0.0,0.0,0.0,0.0,0.0,0.0,0.0,0.0,0.0,0.0,0.0,0.0,0.0,0.0,0.0,0.0,0.0,0.0,0.0,0.0,0.0,0.0,0.0,0.0,0.0,0.0,0.0,0.0,0.0,0.0,0.0,0.0,0.0,0.0,0.0,0.0,0.0,0.0,0.0,0.0,0.0,0.0,0.0,-1.775,-1.8638,-1.9151,-1.8747,-1.8822,-1.8852,-1.8717,-1.8446,-1.76,-1.591,0.0,0.0,0.0,0.0,0.0,0.0,0.0,0.0,0.0,0.0,0.0,0.0,0.0,0.0,0.0,0.0,0.0,0.0,0.0,0.0,0.0,0.0,0.0,0.0,0.0,0.0,0.0,0.0,0.0,0.0,0.0,0.0,0.0,0.0,0.0,0.0,0.0,0.0,0.0,0.0,0.0,0.0,0.0,0.0,0.0,0.0,0.0,0.0,0.0,0.0,0.0,0.0,0.0,0.0,0.0,0.0,0.0,0.0,0.0,0.0,0.0,0.0,0.0,0.0,0.0,0.0,0.0,0.0,0.0,0.0,0.0,0.0,0.0,0.0,0.0,0.0,0.0,0.0,0.0,0.0,0.0,0.0,0.0,0.0,0.0,0.0,0.0,0.0,0.0,0.0,0.0,0.0,0.0,0.0,0.0,0.0,0.0,0.0,0.0,0.0,0.0,0.0,-1.7069,-1.7986,-1.867,-1.8595,-1.8117,-1.8072,-1.8747,-1.8117,-1.7186,-1.5967,0.0,0.0,0.0,0.0,0.0,0.0,0.0,0.0,0.0,0.0,0.0,0.0,0.0,0.0,0.0,0.0,0.0,0.0,0.0,0.0,0.0,0.0,0.0,0.0,0.0,0.0,0.0,0.0,0.0,0.0,0.0,0.0,0.0,0.0,0.0,0.0,0.0,0.0,0.0,0.0,0.0,0.0,0.0,0.0,0.0,0.0,0.0,0.0,0.0,0.0,0.0,0.0,0.0,0.0,0.0,0.0,0.0,0.0,0.0,0.0,-2.1433,0.0,0.0,0.0,0.0,0.0,0.0,0.0,0.0,0.0,0.0,0.0,0.0,0.0,0.0,0.0,0.0,0.0,0.0,0.0,0.0,0.0,0.0,0.0,0.0,0.0,0.0,0.0,0.0,0.0,0.0,0.0,0.0,0.0,0.0,0.0,0.0,0.0,0.0,0.0,0.0,0.0,-1.6438,-1.7585,-1.8369,-1.7885,-1.8184,-1.8696,-1.942,-1.8386,-1.7362,-1.6565,-1.5574,0.0,0.0,0.0,0.0,0.0,0.0,0.0,0.0,0.0,0.0,0.0,0.0,0.0,0.0,0.0,0.0,0.0,0.0,0.0,0.0,0.0,0.0,0.0,0.0,0.0,0.0,0.0,0.0,0.0,0.0,0.0,0.0,0.0,0.0,0.0,0.0,0.0,0.0,0.0,0.0,0.0,0.0,0.0,0.0,0.0,0.0,0.0,0.0,0.0,0.0,0.0,0.0,0.0,0.0,0.0,0.0,0.0,0.0,0.0,0.0,-2.206,0.0,0.0,0.0,0.0,0.0,0.0,0.0,0.0,0.0,0.0,0.0,0.0,0.0,0.0,0.0,0.0,0.0,0.0,0.0,0.0,0.0,0.0,0.0,0.0,0.0,0.0,0.0,0.0,0.0,0.0,0.0,0.0,0.0,0.0,0.0,0.0,0.0,0.0,0.0,0.0,-1.7323,-1.7961,-1.846,-1.8466,-1.8498,-1.8782,-1.95,-1.8357,-1.732,-1.6642,-1.5373,0.0,0.0,0.0,0.0,0.0,0.0,0.0,0.0,0.0,0.0,0.0,0.0,0.0,0.0,0.0,0.0,0.0,0.0,0.0,0.0,0.0,0.0,0.0,0.0,0.0,0.0,0.0,0.0,0.0,0.0,0.0,0.0,0.0,0.0,0.0,0.0,0.0,0.0,0.0,0.0,0.0,0.0,0.0,0.0,0.0,0.0,0.0,0.0,0.0,0.0,0.0,0.0,0.0,-2.6657,-2.7452,-2.8319,-2.7959,-2.7841,-2.7704,-2.4817,-2.3441,-2.3137,-2.1643,0.0,0.0,0.0,0.0,0.0,0.0,0.0,0.0,0.0,0.0,0.0,0.0,0.0,0.0,0.0,0.0,0.0,0.0,0.0,0.0,0.0,0.0,0.0,0.0,-1.8324,-1.85,-1.8108,0.0,0.0,0.0,0.0,0.0,0.0,0.0,0.0,0.0,0.0,0.0,-1.8322,-1.8367,-1.8579,-1.9156,-1.8611,-1.8496,-1.9192,-1.8057,-1.704,-1.6362,-1.5172,-1.4198,0.0,0.0,0.0,0.0,0.0,0.0,0.0,0.0,0.0,0.0,0.0,0.0,0.0,0.0,0.0,0.0,0.0,0.0,0.0,0.0,0.0,0.0,0.0,0.0,0.0,0.0,0.0,0.0,0.0,0.0,0.0,0.0,-1.9107,-1.9647,0.0,0.0,0.0,0.0,0.0,0.0,0.0,0.0,0.0,0.0,0.0,0.0,0.0,-2.5061,-2.6162,-2.6961,-2.7399,-2.7514,-2.7954,-2.8247,-2.8396,-2.8323,-2.8407,-2.8467,-2.6843,0.0,-2.4231,-2.3124,0.0,0.0,0.0,0.0,0.0,0.0,0.0,0.0,0.0,0.0,0.0,0.0,0.0,0.0,0.0,0.0,0.0,0.0,0.0,0.0,0.0,0.0,-1.9007,-1.8936,-1.8988,-1.9007,0.0,-1.8324,-1.7787,-1.7787,-1.7808,0.0,0.0,0.0,0.0,0.0,0.0,0.0,-1.761,-1.7908,-1.8287,-1.8431,-1.7895,-1.7829,-1.8564,-1.7412,-1.6359,-1.5675,-1.4906,-1.4198,-1.3531,-1.348,0.0,0.0,0.0,0.0,0.0,0.0,0.0,0.0,0.0,0.0,0.0,0.0,0.0,0.0,0.0,0.0,0.0,0.0,0.0,0.0,0.0,0.0,0.0,0.0,0.0,0.0,0.0,0.0,0.0,-1.9145,-1.9733,-2.0569,-1.9436,-1.8976,0.0,0.0,0.0,0.0,0.0,0.0,0.0,0.0,0.0,-2.5763,-2.5995,-2.6461,-2.7214,-2.8188,-2.8885,-2.9276,-2.9812,-3.0274,-3.0643,-3.0643,-3.0479,-3.0149,-2.9166,-2.7629,-2.5671,-2.3893,-2.278,-2.1996,0.0,0.0,0.0,0.0,-1.916,-1.9037,-1.9456,-1.9391,-1.9049,-1.878,0.0,0.0,0.0,0.0,0.0,0.0,0.0,0.0,0.0,0.0,-1.9101,-1.9101,-1.9101,-1.9101,-1.9101,-1.8803,-1.8519,0.0,-1.8519,-1.8481,-1.835,0.0,0.0,0.0,0.0,-1.8749,-1.8454,-1.859,-1.8728,-1.875,-1.852,-1.8349,-1.8344,-1.7449,-1.6457,-1.541,-1.4746,-1.4078,-1.3357,-1.3323,-1.3423,0.0,0.0,0.0,0.0,0.0,0.0,0.0,0.0,0.0,0.0,0.0,0.0,0.0,0.0,0.0,0.0,0.0,0.0,0.0,0.0,0.0,0.0,0.0,0.0,0.0,0.0,0.0,0.0,-1.9806,-2.0253,-2.1257,-1.9838,-1.9215,0.0,0.0,0.0,0.0,0.0,0.0,-2.5235,-2.5763,-2.6476,-2.7425,-2.7571,-2.7879,-2.8367,-2.9335,-3.0046,-3.0548,-3.1046,-3.1576,-3.2048,-3.2048,-3.1683,-3.1013,-3.0346,-2.8944,-2.7009,-2.4946,-2.3719,-2.2995,-2.1615,-2.0724,-2.0212,-2.0294,-2.0234,-2.0183,-2.074,-2.0651,-2.0191,-1.9703,-1.9061,-1.845,-1.828,0.0,0.0,0.0,0.0,-1.8801,-1.9075,-1.9252,-1.9362,-1.9362,-1.9217,-1.9101,-1.9101,-1.9101,-1.9101,0.0,-1.9101,-1.9064,-1.8969,0.0,0.0,0.0,0.0,-1.8841,-1.9195,-1.9157,-1.9101,-1.9101,-1.897,-1.8695,-1.8245,-1.7592,-1.6696,-1.5472,-1.4982,-1.4349,-1.3463,-1.3428,-1.347,-1.3569,0.0,0.0,0.0,0.0,0.0,0.0,0.0,0.0,0.0,0.0,0.0,0.0,0.0,0.0,0.0,0.0,0.0,0.0,0.0,0.0,0.0,0.0,0.0,0.0,0.0,0.0,0.0,0.0,0.0,-2.1246,-2.0147,0.0,0.0,0.0,0.0,-2.2921,-2.4946,-2.6281,-2.6486,-2.6975,-2.7604,-2.8395,-2.8871,-2.9458,-3.017,-3.0661,-3.0925,-3.0955,-3.0984,-3.1058,-3.1073,-3.1073,-3.0733,-3.014,-2.9476,-2.8781,-2.8021,-2.677,-2.4927,-2.2933,-2.315,-2.2542,-2.1519,-2.1504,-2.1155,-2.0676,-2.0705,-2.0739,-2.0658,-2.0076,-1.9253,-1.8593,-1.9164,-1.8603,0.0,0.0,-1.9831,-1.9595,-2.0619,-2.046,-2.0045,-2.0045,-1.9566,-1.9101,-1.9101,-1.9101,-1.9101,0.0,-1.9101,-1.8988,-1.8611,0.0,-1.9101,-1.8611,-1.8936,-1.9213,-1.912,-1.9101,-1.9101,-1.9101,-1.8593,-1.8245,-1.8201,-1.7592,-1.6847,-1.6005,-1.5924,-1.5362,-1.4096,-1.4053,-1.379,-1.3231,-1.3417,0.0,0.0,0.0,0.0,0.0,0.0,0.0,0.0,0.0,0.0,0.0,0.0,0.0,0.0,0.0,0.0,0.0,0.0,0.0,0.0,0.0,0.0,0.0,0.0,0.0,0.0,0.0,0.0,-2.2514,-2.2108,0.0,-2.3252,-2.396,-2.4335,-2.4329,-2.6593,-2.8066,-2.8267,-2.9434,-3.0103,-3.009,-3.069,-3.0778,-3.0312,-3.0762,-3.0999,-3.0999,-3.0999,-3.0999,-3.0984,-3.0601,-3.0305,-3.004,-2.8978,-2.8137,-2.7458,-2.7016,-2.5977,-2.4568,-2.3862,-2.3175,-2.2593,-2.2663,-2.2312,-2.1865,-2.2332,-2.1977,-2.1212,-2.0666,-2.0251,-2.0047,-2.0337,-2.0155,-1.9987,-2.0603,-2.0602,-2.0514,-2.0889,-2.0843,-2.0669,-2.0669,-2.0494,-2.032,-2.032,-2.0016,-1.974,-1.974,-1.9406,-1.9045,-1.8898,-1.9045,-1.9101,-1.8898,-1.9045,-1.9139,-1.9101,-1.9101,-1.9101,-1.9101,-1.8674,-1.8205,-1.7803,-1.7278,-1.6459,-1.518,-1.5422,-1.4975,-1.3576,-1.423,-1.4362,-1.379,-1.4536,-1.4744,0.0,0.0,0.0,0.0,0.0,0.0,0.0,0.0,0.0,0.0,0.0,0.0,0.0,0.0,0.0,0.0,0.0,0.0,0.0,0.0,0.0,0.0,0.0,0.0,0.0,-2.1882,-2.297,-2.4059,-2.4252,-2.4507,-2.4976,-2.5937,-2.6451,-2.6204,-2.8115,-2.9528,-3.0126,-3.0979,-3.1234,-3.0792,-3.1202,-3.0988,-3.0083,-3.0372,-3.0523,-3.0523,-3.0523,-3.0523,-3.0509,-3.0118,-2.9726,-2.9275,-2.8433,-2.7534,-2.6695,-2.6695,-2.6318,-2.5638,-2.4919,-2.4159,-2.3445,-2.3544,-2.3045,-2.2404,-2.2932,-2.2429,-2.1489,-2.1169,-2.0925,-2.0817,-2.1103,-2.1051,-2.1,-2.1419,-2.139,-2.1253,-2.1477,-2.1411,-2.1259,-2.1196,-2.1064,-2.0941,-2.0899,-2.0575,-2.0287,-2.0287,-1.9638,-1.9101,-1.9101,-1.9101,-1.9101,-1.9101,-1.9101,-1.9101,-1.9101,-1.9101,-1.9101,-1.9101,-1.8745,-1.8326,-1.788,-1.7592,-1.688,-1.5571,-1.5954,-1.5548,-1.4099,-1.4764,-1.4928,-1.4374,-1.5248,-1.5409,-1.4821,0.0,0.0,0.0,0.0,0.0,0.0,0.0,0.0,0.0,0.0,0.0,0.0,0.0,0.0,0.0,0.0,0.0,0.0,0.0,0.0,0.0,0.0,0.0,-2.2751,-2.3124,-2.405,-2.5783,-2.6451,-2.6354,-2.5311,-2.7041,-2.8368,-2.8595,-2.9505,-3.0616,-3.1928,-3.1397,-3.0807,-3.0312,-3.031,-3.0097,-2.9602,-2.9602,-2.9602,-2.9602,-2.9602,-2.9602,-2.9602,-2.9588,-2.8928,-2.7833,-2.7819,-2.7102,-2.5921,-2.5921,-2.5921,-2.5948,-2.6324,-2.5517,-2.4149,-2.4149,-2.3361,-2.2315,-2.239,-2.1993,-2.1512,-2.1581,-2.1233,-2.0898,-2.1462,-2.1219,-2.1033,-2.2249,-2.2126,-2.1776,-2.2435,-2.2202,-2.1787,-2.1655,-2.1234,-2.0838,-2.0776,-2.0741,-2.0726,-2.0726,-1.9857,-1.9111,-1.9111,-1.9097,-1.9082,-1.9064,-1.9064,0.0,-1.9064,-1.9064,-1.9064,-1.9064,-1.8726,-1.8461,-1.8461,-1.8442,-1.8054,-1.7214,-1.7523,-1.7135,-1.5734,-1.5706,-1.5467,-1.4959,-1.5454,-1.574,-1.581,0.0,0.0,0.0,0.0,0.0,0.0,0.0,0.0,0.0,0.0,0.0,0.0,0.0,0.0,0.0,0.0,0.0,0.0,0.0,0.0,0.0,-2.2564,-2.354,-2.369,-2.4957,-2.6343,-2.7776,-2.8063,-2.8493,-2.9427,-2.9621,-3.0089,-3.0954,-3.1159,-3.1454,-3.1973,-3.2139,-3.1634,-3.0326,-3.0758,-3.0571,-2.9617,-2.9602,-2.9602,-2.9602,-2.9602,-2.9602,-2.9602,-2.9153,-2.8759,-2.8422,-2.8002,-2.7341,-2.6554,-2.6554,-2.6287,-2.5921,-2.6029,-2.5791,-2.5428,-2.5428,-2.4922,-2.4106,-2.3216,-2.3114,-2.3237,-2.2436,-2.2346,-2.2553,-2.2383,-2.2206,-2.2149,-2.2515,-2.2463,-2.2363,-2.2535,-2.2486,-2.238,-2.232,-2.2214,-2.2108,-2.2085,-2.1698,-2.1347,-2.1347,-2.0382,-1.9548,-1.9548,-1.9161,-1.8784,-1.8433,-1.8361,0.0,-1.8361,-1.8361,-1.8414,-1.85,-1.8167,-1.7808,-1.7578,-1.7256,-1.6796,-1.615,-1.6578,-1.6332,-1.518,-1.5869,-1.6199,-1.607,-1.5877,-1.5775,0.0,0.0,0.0,0.0,0.0,0.0,0.0,0.0,0.0,0.0,0.0,0.0,0.0,0.0,0.0,0.0,0.0,0.0,0.0,0.0,0.0,0.0,-2.4249,-2.5502,-2.6267,-2.7207,-2.8292,-2.9582,-3.0256,-3.0748,-3.114,-3.1579,-3.1926,-3.2105,-3.1749,-3.1589,-3.1698,-3.1495,-3.0977,-3.0036,-3.0378,-3.0267,-2.9617,-2.9602,-2.9602,-2.9602,-2.9602,-2.9602,-2.9602,-2.9237,-2.8942,-2.8675,-2.831,-2.779,-2.72,-2.6919,-2.6764,0.0,0.0,0.0,0.0,0.0,-2.4753,-2.4149,-2.3684,-2.36,-2.3614,-2.3247,-2.3148,-2.3229,-2.324,-2.3027,-2.2871,-2.3141,-2.3027,-2.28,-2.28,-2.2499,-2.2231,-2.2394,-2.2301,-2.2301,-2.2734,-2.2294,-2.194,-2.2172,-2.1054,0.0,-1.9998,-1.9171,-1.8414,-1.8145,-1.7967,-1.7847,-1.7847,-1.7847,-1.7867,-1.7954,-1.7571,-1.7235,-1.7039,-1.6786,0.0,0.0,0.0,-1.6367,-1.56,-1.6183,0.0,0.0,0.0,-1.6086,-1.6042,0.0,0.0,0.0,-1.5074,-1.4535,0.0,0.0,0.0,0.0,0.0,0.0,0.0,0.0,0.0,0.0,0.0,0.0,0.0,0.0,0.0,0.0,-2.6426,-2.7916,-2.9429,-2.9575,-2.9987,-3.12,-3.2364,-3.2659,-3.1516,-3.2864,-3.3431,-3.2547,-3.1801,-3.1438,-3.151,0.0,0.0,0.0,0.0,-2.9602,-2.9602,-2.9602,-2.9602,-2.9602,-2.9602,-2.9602,-2.9602,-2.9602,-2.9307,-2.8788,-2.8788,-2.845,-2.7862,-2.7256,-2.7284,-2.758,-2.6427,-2.5655,-2.5133,-2.4528,-2.3938,-2.3477,-2.4022,0.0,0.0,-2.3952,-2.3741,-2.3407,-2.3938,-2.3642,-2.321,-2.3825,-2.3466,-2.294,-2.3083,-2.2353,-2.1701,-2.2178,-2.1976,-2.1909,-2.28,-2.2536,-2.2271,-2.2815,-2.1558,-2.0374,-2.0245,-1.9038,-1.8069,-1.802,-1.7646,-1.7394,-1.7394,-1.7394,-1.7394,-1.7415,0.0,0.0,-1.6731,-1.6731,-1.6573,-1.6222,-1.6659,-1.6774,-1.65,-1.65,-1.6457,-1.6414,-1.6457,-1.6457,-1.6414,-1.6457,-1.6479,-1.638,-1.5198,-1.4339,0.0,0.0,0.0,0.0,0.0,0.0,0.0,0.0,0.0,0.0,0.0,0.0,0.0,0.0,0.0,-2.5955,-2.7643,-2.9079,-3.0289,-3.1077,-3.1701,-3.2109,-3.2358,-3.2529,-3.2723,-3.2609,-3.2835,-3.3551,-3.2626,-3.2252,-3.2789,-3.1582,-3.0714,-3.0347,-2.9855,-2.9602,-2.9602,-2.9602,-2.9602,-2.9602,0.0,0.0,-2.9602,-2.9602,-2.9546,-2.9434,-2.9434,-2.9083,-2.8507,-2.838,-2.7804,-2.6975,-2.6722,-2.6554,-2.6385,-2.5767,-2.5458,-2.5303,-2.495,-2.5077,-2.5219,-2.4374,-2.4331,-2.457,-2.4205,-2.3642,0.0,-2.3252,-2.254,-2.1938,-2.2874,-2.2272,-2.1704,-2.27,-2.2497,-2.2128,-2.2339,-2.193,-2.1586,-2.1705,-2.0718,-1.9696,-1.9267,-1.8535,-1.7858,-1.7438,-1.6997,-1.6701,-1.6701,-1.6701,-1.6731,-1.6837,-1.6774,-1.6616,-1.634,-1.6318,-1.6275,-1.62,-1.6297,-1.6383,-1.6414,-1.6414,-1.6436,-1.6479,-1.6436,-1.6436,-1.6479,-1.6436,-1.625,-1.5942,-1.6042,-1.5844,0.0,0.0,0.0,0.0,0.0,0.0,0.0,0.0,0.0,0.0,0.0,-2.1957,-2.2975,0.0,-2.5615,-2.7687,-2.8873,-2.9918,-3.101,-3.1552,-3.1911,-3.2117,-3.2356,-3.2594,-3.2782,-3.3001,-3.3149,-3.3163,-3.2889,-3.2585,-3.2369,-3.1411,-3.0726,-3.053,-2.9926,-2.9602,-2.9602,-2.9602,-2.9602,-2.9602,-2.9602,-2.9602,-2.9602,-2.9602,-2.9602,-2.9602,-2.9602,-2.9434,-2.9153,-2.9153,-2.8605,-2.7748,-2.7748,-2.7186,-2.6357,-2.6357,-2.5964,-2.543,-2.543,-2.543,-2.5414,-2.5105,-2.5006,-2.5006,-2.5006,-2.457,-2.4058,-2.4041,-2.323,-2.2466,-2.2958,-2.2075,-2.1287,-2.2405,-2.2213,-2.1963,-2.2522,-2.1993,-2.1498,-2.1785,-2.0707,-1.9654,-1.9363,-1.8627,-1.7813,-1.6987,-1.6457,-1.6154,-1.6154,-1.6154,-1.6175,-1.6228,-1.625,-1.6175,-1.6013,-1.5991,-1.6035,-1.61,-1.61,-1.6197,-1.6392,-1.6392,-1.6414,-1.6457,-1.6414,-1.6371,-1.6362,-1.6371,-1.6306,-1.6107,-1.638,-1.612,0.0,0.0,0.0,0.0,0.0,0.0,0.0,-2.0218,-2.1199,-2.2147,-2.3238,-2.4428,-2.5672,-2.6616,-2.7753,-2.9375,-2.9993,-3.0561,-3.1378,-3.1389,-3.1338,-3.139,-3.2172,-3.2633,-3.2472,-3.3359,-3.355,-3.2643,-3.2976,-3.283,-3.1912,-3.1134,-3.068,-3.068,-2.9996,-2.9602,-2.9602,-2.9602,-2.9602,-2.9602,-2.9602,-2.9602,-2.9602,-2.9602,-2.9602,-2.9602,-2.9602,-2.954,-2.9509,-2.9571,-2.922,-2.8612,-2.8785,-2.772,-2.6146,-2.6764,-2.6301,-2.5428,-2.5907,-2.5669,-2.526,-2.5725,-2.5556,-2.5274,-2.5739,-2.5377,-2.4813,-2.4804,-2.3892,-2.2964,-2.3083,-2.1941,-2.1037,-2.2133,-2.1967,-2.1809,-2.2738,-2.2029,-2.1401,-2.1878,-2.0711,-1.9597,-1.9439,-1.8734,-1.7848,-1.6801,-1.6247,-1.5912,-1.5804,-1.5792,-1.5792,-1.5792,-1.5792,-1.5792,-1.5792,-1.5792,-1.5859,-1.5957,-1.5957,-1.6066,-1.6306,-1.6328,-1.6328,-1.6362,-1.6328,-1.6275,-1.62,-1.6318,-1.6383,-1.6392,-1.6479,-1.6098,-1.8156,-1.8595,-1.9153,-1.9623,-1.9839,-2.0807,0.0,-2.4395,-2.4343,-2.5784,-2.6583,-2.7229,-2.7934,-2.8582,-2.9379,-3.0594,-3.0843,-3.0945,-3.1048,-3.0616,-3.0079,-2.9645,-3.1364,-3.2549,-3.2432,-3.2949,-3.3259,-3.322,-3.3248,-3.322,-3.3129,-3.2019,-3.1387,-3.1387,-3.0235,-2.9602,-2.9602,-2.9602,-2.9602,-2.9602,-2.9602,-2.9602,-2.9602,-2.9602,-2.9602,-2.9602,-2.9602,-2.9415,-2.9194,-2.9477,-2.9052,-2.8349,-2.917,-2.8352,-2.6778,-2.7425,-2.7214,-2.661,-2.6694,-2.6301,-2.5809,-2.5879,-2.5837,-2.5809,-2.5879,-2.5066,-2.4123,-2.4096,-2.2901,-2.1848,-2.286,-2.2196,-2.1611,-2.2714,-2.2547,-2.2152,-2.2262,-2.1442,-2.0702,-2.0787,-1.987,-1.895,-1.8442,-1.8281,-1.7969,-1.7312,-1.6797,-1.6343,-1.5852,-1.5792,-1.5792,-1.5792,-1.5792,-1.5792,-1.5792,-1.5792,-1.5814,-1.5814,-1.5814,-1.5891,-1.6032,-1.6032,-1.6088,-1.6222,-1.611,-1.6088,-1.62,-1.6222,-1.6275,-1.6392,-1.6479,-1.6445,-1.9646,-2.015,-2.072,-2.1289,-2.2454,-2.3829,-2.5436,-2.6011,-2.6603,-2.7954,-2.8647,-2.9187,-2.9797,-3.0098,-3.0461,-3.0908,-3.0986,-3.0986,-3.0986,-3.0202,-2.9371,-2.8694,-2.9403,-3.009,-3.0405,-3.099,-3.1555,-3.1867,-3.2243,-3.2521,-3.2757,-3.2081,-3.1634,-3.1499,-3.0614,-2.9968,-2.9602,-2.9602,-2.9785,-3.0105,-2.9785,-2.9996,-3.0698,-3.0305,-3.0009,-2.9803,-2.9473,-2.9131,-2.8812,-2.8972,-2.8803,-2.8429,-2.8477,-2.825,-2.7847,-2.7977,-2.7191,-2.6106,-2.6411,-2.6133,-2.5702,-2.5839,-2.5893,-2.5893,-2.5893,-2.5287,-2.45,-2.4108,-2.2995,-2.2029,-2.2459,-2.1998,-2.1596,-2.2396,-2.2389,-2.2197,-2.2197,-2.1596,-2.1055,-2.1079,-2.0201,-1.9399,-1.9155,-1.8867,-1.8475,-1.7922,-1.74,-1.6979,-1.6763,-1.6463,-1.6151,-1.5828,-1.5792,-1.5792,-1.5792,-1.5792,-1.5792,-1.5792,-1.5792,-1.5859,-1.5988,-1.5988,-1.6066,-1.62,-1.6066,-1.6022,-1.6066,-1.6066,-1.6166,-1.6297,-1.6392,-1.6457,-2.0311,-2.1185,-2.2165,-2.2923,-2.4713,-2.6354,-2.67,-2.7419,-2.8294,-2.9314,-2.9588,-2.9771,-3.0189,-3.0137,-3.0137,-3.0464,-3.0516,-3.0568,-3.0725,-2.9627,-2.8528,-2.7795,-2.7125,-2.7065,-2.7808,-2.9122,-3.011,-3.0518,-3.1227,-3.1702,-3.1839,-3.1723,-3.1426,-3.0949,-3.0628,-3.0151,-2.9557,-2.9706,-3.0012,-3.0443,-2.9998,-3.0262,-3.1157,-3.0503,-2.9965,-2.9604,-2.9164,-2.878,-2.8471,-2.8554,-2.8554,-2.8403,-2.7908,-2.7872,-2.8062,-2.7796,-2.6903,-2.5904,-2.6316,-2.603,-2.5522,-2.573,-2.5853,-2.5866,-2.5702,-2.5216,-2.458,-2.3946,-2.3035,-2.2256,-2.22,-2.1909,-2.168,-2.1921,-2.2089,-2.2149,-2.2005,-2.1668,-2.1404,-2.1404,-2.0526,-1.9808,-1.9808,-1.9363,-1.8867,-1.8482,-1.8097,-1.7724,-1.7423,-1.7063,-1.6619,-1.609,-1.6008,-1.5948,-1.5804,-1.5792,-1.5792,-1.5792,-1.5792,-1.5836,-1.5935,-1.5935,-1.6051,-1.631,-1.6197,-1.6248,-1.6393,-1.6258,-1.6264,-1.6365,-1.6349,-1.6392,-1.9773,-2.1342,-2.3433,-2.4626,-2.619,-2.7738,-2.8922,-2.9231,-2.9392,-2.9957,-2.9209,-2.8472,-2.8486,-2.8007,-2.8007,-2.9144,-2.9362,-2.9523,-3.0048,-2.8638,-2.7366,-2.6811,-2.4743,-2.3827,-2.5022,-2.7793,-2.9549,-2.9629,-3.0685,-3.1058,-3.0487,-3.0934,-3.0703,-2.9617,-3.0052,-3.0038,-2.9401,-2.9977,-3.0289,-3.0303,-3.0289,-3.0289,-3.0303,-2.9713,-2.9129,-2.8646,-2.8633,-2.8438,-2.8145,-2.8471,-2.8406,-2.8091,-2.7814,-2.7342,-2.6823,-2.6488,-2.6526,-2.6758,-2.6772,-2.6229,-2.5494,-2.5494,-2.5702,-2.5784,-2.5202,-2.458,-2.3904,-2.3284,-2.2689,-2.2204,-2.2185,-2.2173,-2.2041,-2.1548,-2.1825,-2.2053,-2.1536,-2.1416,-2.1404,-2.1404,-2.0526,-1.9808,-1.9808,-1.9363,-1.8987,-1.8963,-1.8951,-1.8578,-1.7519,-1.74,-1.7159,-1.6631,-1.6583,-1.6379,-1.584,-1.5792,-1.5792,-1.5792,-1.5792,-1.5792,-1.5814,-1.5814,-1.6054,-1.6571,-1.6571,-1.6823,-1.7364,-1.6975,-1.679,-1.6777,-1.6389,-1.6275,-2.2201,-2.4018,-2.5785,-2.6981,-2.7968,-2.8895,-2.9666,-2.9549,-2.9222,-2.9013,-2.8093,-2.7164,-2.6752,-2.6216,-2.6203,-2.7399,-2.8224,-2.893,-2.9483,-2.9052,-2.8046,-2.6321,-2.6054,-2.544,-2.3955,-2.5276,0.0,-2.7937,-2.8738,-2.9538,-3.0371,-3.0688,-3.0788,-3.0628,-3.0804,-3.0628,-2.9984,-3.0187,-3.0485,-3.0913,-3.1306,-3.1089,-3.0351,-3.0147,-2.9639,-2.8839,-2.845,-2.8033,-2.7703,-2.7822,-2.7802,-2.7611,-2.6765,-2.6564,-2.663,-2.577,-2.5284,-2.5105,-2.5332,-2.4952,-2.4408,-2.4622,-2.4509,-2.4339,-2.4494,-2.393,-2.3237,-2.3027,-2.261,-2.2197,-2.2197,-2.2197,-2.2118,-2.1803,-2.1961,-2.2087,-2.1692,-2.1675,-2.1706,-2.1625,-2.1003,-2.0428,-2.0055,-1.9642,-1.926,-1.9047,-1.8987,-1.8734,-1.8025,-1.7941,-1.7736,-1.7183,-1.7123,-1.7051,-1.6883,-1.6859,-1.6859,-1.6859,-1.6859,-1.6859,-1.6859,-1.6859,-1.6943,-1.7123,-1.7123,-1.7207,-1.7387,-1.7255,-1.7049,-1.6814,-1.6654,-1.6475,-2.4346,-2.595,-2.7406,-2.917,-2.9601,-2.9732,-3.0307,-2.9353,-2.8211,-2.7589,-2.6261,-2.4992,-2.4357,-2.3812,-2.3893,-2.5223,-2.6229,-2.7275,-2.849,-2.8307,-2.7719,-2.6844,-2.6661,-2.6046,-2.4596,-2.4787,-2.5504,-2.663,-2.7848,-2.8877,-2.9636,-3.0379,-3.0701,-3.0539,-3.0927,-3.0824,-3.0236,-3.0436,-3.0624,-3.0797,-3.1208,-3.0802,-2.9697,-2.9697,-2.924,-2.8444,-2.804,-2.7736,-2.749,-2.749,-2.739,-2.7105,-2.5981,-2.578,-2.5961,-2.4835,-2.4197,-2.3954,-2.4372,-2.4081,-2.3594,-2.38,-2.3699,-2.3509,-2.3653,-2.3267,-2.2738,-2.2537,-2.2266,-2.2011,-2.2011,-2.2011,-2.1932,-2.1625,-2.1794,-2.192,-2.1513,-2.162,-2.1812,-2.173,-2.1252,-2.0781,-2.0441,-2.0005,-1.957,-1.9158,-1.9168,-1.9003,-1.8554,-1.8482,-1.8277,-1.7748,-1.77,-1.7616,-1.7436,-1.7387,-1.7387,-1.7387,-1.7387,-1.7387,-1.7387,-1.7387,-1.7496,-1.7688,-1.77,-1.7796,-1.7977,-1.7784,-1.7544,-1.7291,-1.7097,-1.6803,-2.6123,-2.7189,-2.8417,-3.1119,-3.0936,-3.0218,-3.0712,-2.8621,-2.6431,-2.5741,-2.3825,-2.2087,-2.1485,-2.0988,-2.121,-2.2936,-2.377,-2.501,-2.7268,-2.6707,-2.6661,-2.819,-2.6549,-2.5646,-2.6654,-2.6282,-2.5963,-2.5923,0.0,-2.9022,-2.849,-3.0045,-3.0451,-2.9428,-3.0424,-3.0725,-3.014,-3.0712,-3.0712,-3.014,-3.014,-2.9562,-2.8459,-2.8459,-2.8098,-2.749,-2.749,-2.749,-2.749,-2.749,-2.7175,-2.6561,-2.5516,-2.5027,-2.4817,-2.3753,-2.333,-2.3406,-2.39,-2.3631,-2.3027,-2.3027,-2.3182,-2.3272,-2.2743,-2.2561,-2.2421,-2.1831,-2.1698,-2.1698,-2.1698,-2.1698,-2.1569,-2.1052,-2.1322,-2.1557,-2.104,-2.1334,-2.1667,-2.1667,-2.1221,-2.0887,-2.0875,-2.0476,-1.9941,-1.9373,-1.9431,-1.9392,-1.9032,-1.8987,-1.8806,-1.8301,-1.8241,-1.8037,-1.7544,-1.7471,-1.7471,-1.7471,-1.7471,-1.7471,-1.7471,-1.7471,-1.7724,-1.8229,-1.8241,-1.8482,-1.8987,-1.8458,-1.8205,-1.8193,-1.7664,-1.7207,-2.8186,-2.9931,-3.1457,-3.1732,-3.0936,-2.9764,-2.8547,-2.6792,-2.4988,-2.3436,-2.1707,-2.027,-1.9682,-1.9812,-2.0727,-2.2843,-2.4805,-2.6674,-2.8569,-2.9314,-2.9353,-2.849,-2.8647,-2.839,-2.7406,-2.7968,-2.8203,0.0,-2.7876,-2.8477,-2.9627,-3.0074,-3.0411,-3.0542,-3.083,-3.0921,-3.0764,-3.0908,-3.0908,-3.0764,-3.0764,-3.0163,-2.9087,-2.9087,-2.849,-2.749,-2.749,-2.749,-2.749,-2.749,-2.6963,-2.6024,-2.5351,-2.4595,-2.3784,-2.3059,-2.2586,-2.2304,-2.2437,-2.2357,-2.2218,-2.2218,-2.2032,-2.1815,-2.2032,-2.1908,-2.1659,-2.1526,-2.158,-2.1698,-2.1698,-2.1698,-2.1632,-2.1331,-2.1487,-2.1588,-2.1217,-2.1318,-2.1443,-2.136,-2.0881,-2.0553,-2.0663,-2.06,-2.0275,-1.942,-1.9665,-1.9667,-1.8944,-1.8946,-1.8939,-1.8806,-1.8794,-1.8734,-1.8602,-1.859,-1.859,-1.859,-1.859,-1.859,-1.859,-1.859,-1.865,-1.8782,-1.8794,-1.8855,-1.8987,-1.8458,-1.8205,-1.8193,-1.7664,-1.7339,-3.044,-3.1643,-3.2406,-3.2587,-3.1034,-2.908,-2.7571,-2.5366,-2.3171,-2.1366,-1.9879,-1.8698,-1.8182,-1.8559,-1.9582,-2.1394,-2.3655,-2.5882,-2.7897,-2.9153,-2.9758,-2.9585,-2.9889,-2.9709,-2.873,-2.9261,-2.951,-2.9183,-2.8821,-2.9069,-3.0048,-3.0335,-3.066,-3.0973,-3.0986,-3.0986,-3.0986,-3.0986,-3.0869,-3.0607,-3.0359,-2.9758,-2.8917,-2.8621,-2.815,-2.749,0.0,-2.749,-2.7503,-2.7255,-2.6506,-2.5515,-2.4963,-2.4075,-2.3123,-2.3006,-2.2522,-2.1913,-2.2163,-2.1966,-2.1577,-2.1577,-2.1562,-2.1521,-2.1596,-2.1463,-2.1305,-2.1305,-2.138,-2.1466,-2.1466,-2.1466,-2.1454,-2.1348,-2.1391,-2.1434,-2.1233,-2.1253,-2.1273,-2.1221,-2.0971,-2.0764,-2.0857,-2.0888,-2.0584,-1.9622,-1.9762,-1.9673,-1.874,-1.8732,-1.8854,-1.8919,-1.8919,-1.8946,-1.8987,-1.8946,-1.8919,-1.8919,-1.8919,-1.8919,-1.8919,-1.8972,-1.8987,-1.8987,-1.8987,-1.8987,-1.8987,-1.8698,-1.8554,-1.8542,-1.8241,-1.7989,-3.2401,-3.2557,-3.2429,-3.329,-3.1073,-2.8344,-2.7019,-2.4176,-2.1298,-1.9603,-1.8349,-1.7474,-1.7071,-1.754,-1.8452,-1.9882,-2.1903,-2.4161,-2.6706,-2.791,-2.9153,-3.079,-3.0555,-3.0218,-3.0218,-3.0218,-3.0218,-3.0218,-3.0218,-3.0218,-3.0218,-3.0725,-3.0986,-3.0986,-3.0986,-3.0986,-3.0986,-3.0986,-3.0738,-3.0205,-2.9745,-2.9192,-2.8512,-2.7994,-2.7646,-2.749,-2.749,-2.749,-2.7469,-2.6918,-2.6067,-2.5062,-2.4496,-2.3639,-2.2755,-2.3089,-2.2639,-2.1961,-2.2447,-2.2016,-2.1282,-2.1213,-2.15,-2.1755,-2.1408,-2.1293,-2.1293,-2.1293,-2.1293,-2.1282,-2.1213,-2.119,-2.119,-2.119,-2.119,-2.1213,-2.1282,-2.1351,-2.1397,-2.1397,-2.1339,-2.1293,-2.1293,-2.1236,-2.0879,-1.993,-1.9887,-1.9628,-1.8693,-1.86,-1.864,-1.8771,-1.8771,-1.8825,-1.8934,-1.8839,-1.8771,-1.8771,-1.8771,-1.8771,-1.8771,-1.8893,-1.8972,-1.8972,-1.8987,-1.8987,-1.8987,-1.8915,-1.8915,-1.8987,-1.8915,-1.8674,-3.2544,-3.3133,-3.3251,-3.2547,-3.0509,-2.7988,-2.539,-2.2598,-2.0066,-1.8234,-1.7434,-1.7012,-1.6944,-1.7753,-1.9199,-2.1419,-2.2914,-2.4957,-2.836,-2.9035,-2.9624,-3.083,-3.0895,-3.083,-3.083,-3.083,-3.083,0.0,-3.083,-3.083,-3.083,-3.0934,-3.0986,-3.0986,-3.0986,-3.0986,-3.0986,-3.0986,-3.0934,-3.083,-3.0738,-3.0137,-2.9153,-2.9026,-2.8451,-2.749,-2.749,0.0,-2.7469,-2.6918,-2.6067,-2.5062,-2.4496,-2.3648,-2.2648,-2.2301,-2.2037,-2.1899,-2.2024,-2.1935,-2.172,-2.1339,-2.1259,-2.1385,-2.1697,-2.1801,-2.1801,-2.1801,-2.1801,-2.1697,-2.1305,-2.119,-2.119,-2.119,-2.119,-2.1316,-2.1697,-2.2122,-2.2454,-2.2454,-2.2076,-2.1801,-2.1801,-2.1477,-2.0994,-2.0366,-2.0285,-2.0097,-1.9552,-1.8974,-1.8614,-1.864,-1.864,-1.864,-1.8667,-1.864,-1.864,-1.864,-1.864,-1.864,-1.864,-1.8759,-1.8825,-1.8825,-1.8946,-1.8987,-1.8987,-1.8554,-1.8566,-1.8987,-1.8542,-1.853,-3.2672,-3.3208,-3.3195,-3.2371,-2.9834,-2.6878,-2.4261,-2.1344,-1.8786,-1.7289,-1.6827,-1.6705,-1.6782,-1.7501,-1.8567,-2.0076,-2.1534,-2.3486,-2.6395,-2.7663,-2.8838,-3.0212,-3.0766,-3.0986,-3.0986,-3.0986,-3.0986,-3.0986,-3.0986,-3.0986,-3.0986,-3.0986,-3.0986,-3.0986,-3.0986,-3.0986,-3.0986,-3.0986,-3.0986,-3.0973,-3.0385,-2.9846,-2.9297,-2.8647,-2.8059,-2.749,-2.749,-2.7323,-2.7053,-2.6496,-2.5657,-2.4657,-2.4354,-2.3595,-2.2708,-2.3006,-2.2777,-2.2363,-2.2593,-2.2502,-2.2271,-2.2063,-2.1983,-2.2029,-2.2249,-2.2317,-2.226,-2.1974,-2.1894,-2.178,-2.1328,-2.1385,-2.156,-2.156,-2.1799,-2.2052,-2.226,-2.2513,-2.2719,-2.2719,-2.2271,-2.1894,-2.1894,-2.1502,-2.1017,-2.0481,-2.0412,-2.024,-1.9757,-1.9396,-1.9093,-1.8869,-1.8655,-1.8518,-1.8587,-1.8545,-1.8608,-1.885,-1.8643,-1.8737,-1.9247,-1.8893,-1.8809,-1.9054,-1.889,-1.8774,-1.8774,-1.8524,-1.8589,-1.8893,-1.863,-1.868,-3.2554,-3.2893,-3.2729,-3.2039,-2.8963,-2.5548,-2.3409,-2.0374,-1.7739,-1.6701,-1.65,-1.6522,-1.6654,-1.7052,-1.7626,-1.8416,-1.9706,-2.1464,-2.3983,-2.5896,-2.7681,-2.9404,-3.0444,-3.0986,-3.0986,-3.0986,-3.0986,-3.0949,-3.0911,-3.0911,-3.0986,-3.0986,-3.0986,-3.0949,-3.0986,-3.0986,-3.0949,-3.0869,-3.0803,-3.079,-2.9771,-2.9244,-2.9087,-2.8069,-2.7587,-2.7469,-2.7403,-2.7167,-2.6726,-2.6,-2.5199,-2.4434,-2.4064,-2.3528,-2.2982,-2.3632,-2.3381,-2.2754,-2.3153,-2.2901,-2.2468,-2.2684,-2.2754,-2.273,-2.2811,-2.2765,-2.2616,-2.2295,-2.2146,-2.1996,-2.1627,-2.1789,-2.2088,-2.2088,-2.2478,-2.2846,-2.2846,-2.2926,-2.3006,-2.3006,-2.2593,-2.2181,-2.2078,-2.1663,-2.1178,-2.0653,-2.0572,-2.0435,-2.0056,-1.9907,-1.9718,-1.942,-1.895,-1.872,-1.8819,-1.8748,-1.8851,-1.92,-1.8869,-1.9036,-1.9819,-1.9223,-1.8987,-1.9252,-1.8909,-1.8704,-1.8587,-1.8587,-1.864,-1.8771,-1.8798,-1.8878,-3.1863,-3.229,-3.2051,-3.1022,-2.7846,-2.4519,-2.2786,-1.9823,-1.7297,-1.6626,-1.65,-1.65,-1.6522,-1.6559,-1.6992,-1.8225,-1.8554,-1.9876,-2.3289,-2.4921,-2.6583,-2.8805,-3.0197,-3.0986,-3.0986,-3.0986,-3.0911,-3.0736,-3.0571,-3.0596,-3.0986,-3.0986,-3.0911,-3.0736,-3.0911,-3.0911,-3.0736,-3.0366,-3.0179,-3.0166,-2.9575,-2.9022,-2.8451,-2.8187,-2.7794,-2.7302,-2.7113,-2.7024,0.0,-2.5616,-2.5016,-2.4803,-2.3596,-2.3279,-2.345,-2.3066,-2.2876,-2.2809,-2.2853,-2.2329,-2.1772,-2.2696,-2.2853,-2.2765,-2.3201,-2.3052,-2.2765,-2.3155,-2.2972,-2.2638,-2.2581,-2.257,-2.265,-2.265,-2.3006,-2.3338,-2.3338,-2.3741,-2.4062,-2.4062,-2.3614,-2.3121,-2.2685,-2.2191,-2.1686,-2.1201,-2.1132,-2.1109,-2.1063,-2.063,-2.0331,-2.0274,-1.9867,-1.958,-1.9609,-1.958,-1.9603,-1.9649,-1.9603,-1.9626,-1.9718,-1.9761,-1.9564,-1.9118,-1.9188,-1.9042,-1.8587,-1.8587,-1.8614,-1.8614,-1.8744,-1.8798,-2.9753,-3.0959,-3.1373,-2.9955,-2.6671,-2.3404,-2.1765,-1.8601,-1.6032,-1.6069,-1.6086,-1.6151,-1.6457,-1.65,-1.6672,-1.7178,-1.7254,-1.8084,-2.0523,-2.201,-2.3889,-2.6806,-2.8305,-2.951,-3.0544,-3.0634,-3.0596,-3.0533,-3.0444,-3.0482,-3.0634,-3.0634,-3.0441,-2.9994,-3.0056,-2.9888,-2.9479,-2.9669,-2.9589,-2.9254,-2.937,-2.898,-2.8075,-2.7958,-2.7627,-2.7113,-2.7024,-2.6555,0.0,-2.5217,-2.4504,-2.3754,-2.3213,-2.3113,-2.3202,-2.3003,-2.2937,-2.2937,-2.2937,-2.2696,-2.2451,-2.2881,-2.2761,-2.2581,-2.33,-2.3574,-2.3569,-2.3442,-2.327,-2.3075,-2.2765,-2.2903,-2.3213,-2.3523,-2.3752,-2.389,-2.389,-2.4051,-2.42,-2.42,-2.3751,-2.335,-2.3132,-2.2719,-2.2214,-2.1697,-2.1617,-2.1514,-2.1236,-2.1017,-2.0891,-2.0891,-2.0159,-1.9688,-1.9688,-1.9688,-1.9815,-2.0102,-1.9849,-1.9953,-2.058,-2.0058,-1.9812,-1.9874,-1.935,-1.8962,-1.8781,-1.8452,-1.8356,-1.8464,-1.853,-1.861,-2.7015,-2.8558,-2.9403,-2.7705,-2.465,-2.1672,-2.0251,-1.7354,-1.5074,-1.5411,-1.5589,-1.5744,-1.5976,-1.6272,-1.6436,-1.6315,-1.6402,-1.7089,-1.877,-2.0142,-2.2105,-2.5071,-2.6585,-2.8046,-2.9739,-3.0138,-3.0292,-3.0292,-3.0254,-3.0228,-3.0228,-3.0063,-2.9782,-2.9424,-2.9448,-2.9217,-2.8618,-2.8884,-2.8831,-2.8482,-2.8677,-2.8369,-2.7648,-2.7506,-2.7267,-2.6909,-2.6624,-2.5943,0.0,-2.4612,-2.3863,-2.2964,-2.274,-2.2703,-2.2815,-2.2815,-2.2815,-2.2815,-2.2815,-2.274,-2.2665,-2.2665,-2.2503,-2.2444,-2.3051,-2.3318,-2.3419,-2.3458,-2.3447,-2.3367,-2.2898,-2.3033,-2.3394,-2.377,-2.3934,-2.4007,-2.4007,-2.4007,-2.4043,-2.4164,-2.3794,-2.3437,-2.3406,-2.3144,-2.2731,-2.2226,-2.1986,-2.1801,-2.1433,-2.1282,-2.1253,-2.138,-2.0661,-2.0125,-2.0125,-2.0264,-2.0414,-2.0607,-2.06,-2.0759,-2.1198,-2.0646,-2.0299,-2.0194,-1.9493,-1.8977,-1.8667,-1.8283,-1.8166,-1.8313,-1.8503,-1.8706,-2.3776,-2.4898,-2.566,-2.3979,-2.1438,-1.9064,-1.8057,-1.6207,-1.4709,-1.4698,-1.5085,-1.5299,-1.4971,-1.5734,-1.6284,-1.5876,-1.6207,-1.7089,-1.877,-2.0142,-2.1824,-2.4035,-2.5442,-2.6886,-2.8549,-2.9578,-3.0113,-3.0113,-2.9934,0.0,-2.9792,-2.9252,-2.9001,-2.92,-2.9411,-2.9143,-2.8411,-2.8068,-2.7905,-2.7892,-2.7306,-2.7003,-2.699,-2.6807,-2.6726,-2.6645,-2.5734,-2.5312,0.0,-2.3655,-2.3001,-2.2927,-2.2101,-2.2073,-2.2402,-2.2402,-2.2402,-2.2402,-2.2402,-2.2138,-2.1807,-2.1807,-2.2063,-2.2402,-2.2402,-2.2056,-2.1905,-2.3215,-2.3593,-2.3519,-2.3102,-2.299,-2.299,-2.3001,-2.3335,-2.3604,-2.3604,-2.3604,-2.3714,-2.4116,-2.3849,-2.3545,-2.3417,-2.3407,-2.3224,-2.2742,-2.2249,-2.1894,-2.1883,-2.1479,-2.138,-2.1846,-2.1482,-2.1178,-2.1178,-2.1628,-2.169,-2.121,-2.2051,-2.2175,-2.1221,-2.1628,-2.1188,-1.9753,-1.9688,-1.9172,-1.8123,-1.8084,-1.8084,-1.8111,-1.8721,-1.9277,-2.073,-2.1847,-2.2482,-2.1232,-1.941,-1.7645,-1.6554,-1.495,-1.3779,-1.4154,-1.434,-1.4502,-1.4732,-1.5028,-1.5231,-1.5186,-1.5886,-1.6659,-1.7287,-1.9358,-2.1605,-2.382,-2.6813,-2.886,0.0,0.0,-2.9908,-2.9908,-2.983,-2.9792,-2.9792,-2.9239,-2.875,-2.8447,-2.8142,-2.771,-2.7119,-2.7357,-2.7303,-2.6936,-2.7483,-2.7369,-2.6683,-2.6981,-2.6921,-2.6555,-2.6233,-2.5511,-2.4445,-2.395,-2.3117,-2.2138,-2.1921,-2.1883,-2.1987,-2.1987,-2.1987,-2.1987,-2.1987,-2.1921,-2.1807,-2.1807,-2.1665,-2.158,-2.1893,-2.2275,-2.2655,-2.3062,-2.3187,-2.315,-2.3038,-2.3001,-2.3001,-2.3001,-2.3113,-2.3187,-2.3187,-2.3187,-2.3224,-2.3372,-2.3261,-2.318,-2.3135,-2.315,-2.2947,-2.2448,-2.1972,-2.1642,-2.1497,-2.1079,-2.0955,-2.1368,-2.1588,-2.1671,-2.1671,-2.1526,-2.1368,-2.1221,-2.1494,-2.1526,-2.1221,-2.1348,-2.1148,-2.0604,-2.027,-1.9913,-1.9528,-1.9167,-1.8999,-1.8987,-1.9172,-1.9368,-1.7373,-1.8603,-1.931,-1.8235,-1.7032,-1.5863,-1.5002,-1.3915,-1.318,-1.3515,-1.3729,-1.3907,-1.4071,-1.4387,-1.4606,-1.4582,-1.5556,-1.6444,-1.6799,-1.9017,-2.1553,-2.4017,-2.718,-2.9164,0.0,-2.9541,-2.9792,-2.9792,-2.9792,-2.9792,-2.9792,-2.9051,-2.8461,-2.8109,-2.757,-2.7052,-2.6499,-2.6839,-2.6839,-2.6499,-2.719,-2.7165,-2.6499,-2.6851,-2.6813,-2.6487,-2.6176,-2.5288,0.0,-2.3804,-2.2931,-2.1807,-2.1807,-2.1807,-2.1807,-2.1807,-2.1807,-2.1807,-2.1807,-2.1807,-2.1807,-2.1807,-2.1611,-2.1424,-2.1714,-2.2252,-2.274,-2.259,-2.2665,-2.274,-2.259,-2.2553,-2.2553,-2.2553,-2.2665,-2.2777,-2.2777,-2.2777,-2.2815,-2.2964,-2.2889,-2.2815,-2.2964,-2.3001,-2.2903,-2.256,-2.2124,-2.1769,-2.167,-2.1074,-2.0839,-2.1261,-2.1377,-2.1534,-2.1877,-2.1784,-2.1588,-2.1221,-2.1526,-2.1639,-2.1463,-2.1639,-2.1609,-2.1326,-2.0827,-2.0576,-2.0527,-2.0013,-1.9933,-2.0264,-2.0053,-2.0059,0.0,-1.5338,-1.6179,-1.5182,-1.4464,-1.3919,-1.3555,-1.3164,0.0,-1.2905,-1.3248,-1.3464,-1.3187,-1.3842,-1.4337,-1.4063,-1.5294,-1.6538,-1.7241,-1.9366,-2.1865,-2.46,-2.6857,-2.8197,-2.8109,-2.9126,-2.9779,-2.9729,-2.9729,-2.9716,-2.9679,-2.8637,-2.8047,-2.8047,-2.7507,-2.7014,-2.6499,-2.6499,-2.6499,-2.6499,-2.6499,-2.6452,-2.6418,-2.6452,-2.6452,0.0,-2.5629,-2.4862,-2.4047,-2.3313,-2.2515,-2.1807,-2.1807,-2.1807,-2.1807,-2.1807,-2.1807,-2.1807,-2.1807,-2.1807,-2.1807,-2.1807,-2.1807,-2.1807,-2.1807,-2.2073,-2.2289,-2.1921,-2.2063,-2.2252,-2.1883,-2.1807,-2.1807,-2.1807,-2.2111,-2.2365,-2.2365,-2.2365,-2.2478,-2.2852,-2.2628,-2.2478,-2.2852,-2.2927,-2.2927,-2.2927,-2.244,-2.2136,-2.2136,-2.1357,-2.0984,-2.1484,-2.1035,-2.1053,-2.1858,-2.2298,-2.2187,-2.1348,-2.2094,-2.239,-2.197,-2.2359,-2.2376,-2.1959,-2.1387,-2.1144,-2.1188,-2.068,-2.0897,-2.1746,-2.1251,-2.1222,-1.3165,0.0,-1.3716,-1.3485,-1.3302,-1.3154,0.0,-1.2974,-1.2905,-1.2905,-1.3002,-1.314,-1.3351,-1.3601,-1.3852,-1.4194,-1.5954,-1.7372,-1.7634,-2.1475,-2.4663,-2.5726,-2.7974,-2.9063,-2.8185,-2.9126,-2.9616,-2.9164,-2.9101,-2.895,-2.8524,-2.7846,-2.7482,-2.7482,-2.6977,-2.6625,-2.6499,-2.6499,-2.6499,-2.6499,-2.6499,-2.6176,-2.5594,-2.6211,-2.6164,-2.5558,-2.5382,-2.4862,-2.4047,-2.3313,-2.2515,-2.1807,-2.1807,-2.1807,-2.1807,-2.1807,-2.1807,-2.1807,-2.1807,-2.1807,-2.1807,-2.1807,-2.1807,-2.1807,-2.1807,-2.1883,-2.1921,-2.1845,-2.1883,-2.1921,-2.1807,-2.1807,-2.1807,-2.1807,-2.1883,-2.1959,-2.1959,-2.1959,-2.1959,-2.2063,-2.1987,-2.1959,-2.2063,-2.2063,-2.2063,-2.2063,-2.1675,-2.1445,-2.1711,-2.1282,-2.115,-2.1652,-2.1974,-2.2138,-2.2116,-2.2006,-2.1963,-2.2111,-2.2316,-2.2445,-2.2451,-2.2531,-2.2526,-2.2367,-2.2178,-2.2076,-2.2076,-2.1973,-2.2013,-2.2224,-2.2095,-2.2097,-1.2774,-1.2856,-1.2905,-1.2905,-1.2905,-1.2905,-1.2905,-1.2905,-1.2905,-1.2905,-1.2905,-1.3008,-1.3428,-1.335,-1.3512,-1.4388,-1.6018,-1.7822,-1.9639,-2.2596,-2.4909,-2.5926,-2.7468,-2.8313,0.0,-2.8537,-2.8813,-2.8537,-2.8512,-2.8423,-2.8122,-2.726,-2.6947,-2.7268,-2.6195,-2.5916,-2.6487,-2.6499,-2.6499,-2.6499,-2.6141,-2.5734,-2.5312,-2.5734,-2.5699,-2.5312,-2.5312,-2.4862,-2.4047,-2.3313,-2.2515,-2.1807,-2.1807,-2.1807,-2.1807,-2.1807,-2.1731,-2.1655,-2.1655,-2.1617,-2.154,-2.1617,-2.1655,-2.1655,-2.1655,-2.1655,-2.1693,-2.1769,-2.1807,-2.1807,-2.1807,-2.1807,-2.1807,-2.1807,-2.1807,-2.1807,-2.1807,-2.1807,-2.1869,-2.2087,-2.2118,-2.2118,-2.2118,-2.2118,-2.2056,-2.1838,-2.159,-2.1472,-2.1659,-2.1298,-2.1304,-2.1966,-2.2229,-2.2414,-2.2551,-2.2534,-2.2457,-2.2321,-2.2309,-2.2469,-2.2798,-2.2829,-2.2819,-2.2827,-2.3072,-2.3027,-2.2781,-2.2779,-2.2923,-2.3184,-2.2897,-2.2766,-1.2627,-1.2749,-1.2856,-1.2881,-1.2905,-1.2905,-1.2905,-1.2905,-1.2905,-1.2905,-1.2954,-1.3111,-1.3437,-1.3271,-1.3467,-1.4687,-1.622,-1.8521,-2.2204,-2.3355,-2.4304,-2.5593,-2.6437,0.0,-2.7481,-2.7655,-2.7791,-2.7875,-2.7911,-2.7837,-2.7749,-2.6656,-2.6332,-2.6947,-2.5398,-2.5074,-2.6167,-2.618,-2.6289,-2.6383,-2.5508,-2.5075,-2.5052,-2.5158,-2.511,-2.4933,0.0,0.0,-2.3861,-2.3095,-2.2365,-2.1693,-2.1693,-2.1693,-2.1693,-2.1693,-2.1617,-2.1464,-2.1464,-2.1359,-2.1244,-2.1397,-2.1464,-2.1464,-2.1464,-2.1464,-2.1512,-2.1655,-2.1783,-2.1873,-2.1911,-2.1911,-2.1911,-2.1911,-2.1859,-2.1828,-2.189,-2.1859,-2.1963,-2.2501,-2.2542,-2.2501,-2.2501,-2.2501,-2.2335,-2.188,-2.1807,-2.1807,-2.1807,-2.1568,-2.1665,-2.2377,-2.2439,-2.2636,-2.3107,-2.3413,-2.3224,-2.2376,-2.2371,-2.2604,-2.3138,-2.3168,-2.3208,-2.3269,-2.3793,-2.3806,-2.3298,-2.3326,-2.3587,-2.4083,-2.3561,-2.3354,-1.2505,-1.2554,-1.2627,-1.2832,-1.2905,-1.2905,-1.2905,-1.2905,-1.2905,-1.2905,-1.3164,-1.3437,-1.3496,-1.3724,-1.4211,-1.5166,-1.7746,-2.073,-2.3738,-2.4844,-2.5261,-2.4996,0.0,-2.7077,-2.6265,-2.7028,-2.7373,-2.6941,-2.6904,-2.6707,-2.6251,-2.5635,-2.5327,-2.5413,-2.4735,-2.4439,-2.4645,-2.4822,-2.5248,-2.5968,-2.4704,-2.4002,-2.3818,-2.4492,-2.4283,-2.3394,0.0,-2.3735,-2.3074,-2.2147,-2.154,-2.1282,-2.1282,-2.1282,-2.1282,-2.1282,-2.1282,-2.1244,-2.1244,-2.1244,-2.1215,-2.1244,-2.1244,-2.1244,-2.1244,-2.1244,-2.1244,-2.1282,-2.171,-2.2201,-2.2348,-2.2387,-2.2387,-2.2387,-2.2087,-2.1911,-2.2304,-2.2087,-2.2056,-2.2915,-2.277,-2.2501,-2.2501,-2.2501,-2.2335,-2.188,-2.1807,-2.1807,-2.1807,-2.2339,-2.2827,-2.3137,-2.3734,-2.4035,-2.3847,-2.3898,-2.366,-2.2994,-2.312,-2.3313,-2.3497,-2.3526,-2.3518,-2.3559,-2.3809,-2.3881,-2.379,-2.3923,-2.3992,-2.4083,-2.4021,-2.3952,-1.2002,-1.2175,-1.2431,-1.2627,-1.2676,-1.2676,-1.2676,-1.2676,-1.2743,-1.2965,-1.3043,-1.32,-1.363,-1.3777,-1.4614,-1.7002,-1.949,-2.1804,-2.3831,-2.444,-2.4643,0.0,0.0,-2.5848,-2.5748,-2.5929,-2.5977,-2.5861,-2.5566,-2.5296,-2.505,-2.441,-2.4263,-2.4657,-2.3761,-2.3538,-2.4112,-2.3646,-2.3968,-2.5038,-2.3615,-2.2878,-2.2741,-2.2741,-2.2477,-2.1996,0.0,-2.2229,-2.189,-2.1032,-2.0734,-2.0863,-2.0863,-2.1004,-2.1167,-2.1099,-2.1022,-2.1012,-2.0925,-2.0886,-2.0886,-2.1012,-2.1022,-2.1022,-2.1022,-2.1022,-2.1022,-2.1022,-2.1317,-2.1763,-2.2203,-2.208,-2.198,-2.2709,-2.2314,-2.1942,-2.2521,-2.2489,-2.254,-2.3207,-2.3299,-2.3163,-2.2915,-2.2873,-2.2625,-2.1911,-2.1807,-2.1807,-2.1807,-2.2515,-2.3198,-2.3691,-2.4472,-2.4803,-2.4467,-2.4443,-2.4036,-2.3158,-2.33,-2.3433,-2.348,-2.3569,-2.3599,-2.3599,-2.3688,-2.3789,-2.3891,-2.3949,-2.4037,-2.4083,-2.4083,-2.4083,-1.1553,-1.1852,-1.2274,-1.2382,-1.2446,-1.2533,-1.2628,-1.2647,-1.2761,-1.3152,-1.3144,-1.3231,-1.3767,-1.415,-1.5356,-1.8373,-2.0684,-2.2536,-2.3802,-2.3974,-2.4133,-2.4638,-2.4494,-2.4589,-2.5258,-2.4869,-2.4633,-2.478,-2.4434,-2.4141,-2.4018,-2.3454,-2.3356,-2.3778,-2.2858,-2.2759,-2.3571,-2.2771,-2.2967,-2.4157,-2.2535,-2.1854,-2.1931,-2.1282,-2.0903,-2.0842,-2.0959,-2.0938,-2.0772,-2.0119,-2.0056,-2.0439,-2.0439,-2.0699,-2.1051,-2.0906,-2.0819,-2.0819,-2.0644,-2.0605,-2.0644,-2.078,-2.0819,-2.0819,-2.0819,-2.0819,-2.0819,-2.0819,-2.1014,-2.1389,-2.2068,-2.1887,-2.1787,-2.295,-2.2585,-2.213,-2.2747,-2.2798,-2.293,-2.3532,-2.373,-2.3681,-2.3267,-2.3184,-2.2873,-2.1942,-2.1807,-2.1807,-2.1807,-2.2515,-2.3276,-2.4011,-2.4826,-2.5168,-2.4811,-2.4675,-2.4173,-2.3158,-2.3228,-2.333,-2.333,-2.342,-2.3467,-2.3467,-2.3539,-2.3641,-2.3772,-2.3861,-2.3949,-2.4067,-2.4083,-2.4083,-1.1326,-1.1703,-1.2126,-1.2126,-1.2323,-1.2599,-1.2979,-1.3064,-1.3162,-1.3571,-1.3939,-1.4081,-1.376,-1.5324,-1.6984,-1.8023,-2.0676,-2.3072,-2.4284,0.0,-2.4662,-2.5192,-2.441,-2.4059,-2.453,-2.4155,-2.3887,-2.3887,-2.3863,-2.3622,-2.3128,-2.3035,-2.2806,-2.238,-2.2265,-2.2252,-2.2337,-2.2252,-2.2746,-2.3794,-2.1778,-2.1045,-2.1516,-2.0861,-2.0337,-2.002,-2.0565,-2.0502,-1.9962,-1.9712,-1.9752,-1.9959,-1.9959,-2.0224,-2.0644,-2.0644,-2.0605,-2.0605,-2.0605,-2.0605,-2.0605,-2.0605,-2.0605,-2.0605,-2.0605,-2.0605,-2.0605,-2.0605,-2.0909,-2.141,-2.224,-2.2452,-2.2553,-2.3078,-2.2804,-2.2593,-2.3046,-2.2815,-2.2857,-2.3939,-2.3808,-2.3463,-2.3226,-2.3184,-2.2873,-2.1942,-2.1807,-2.1807,-2.1807,-2.2515,-2.3276,-2.4011,-2.4826,-2.5168,-2.4811,-2.4356,-2.3791,-2.3145,-2.3108,-2.3108,-2.3108,-2.3138,-2.3138,-2.3138,-2.333,-2.3433,-2.3433,-2.3743,-2.3891,-2.392,-2.4037,-2.4083,-1.0838,-1.141,-1.2101,-1.2101,-1.2175,-1.2361,-1.2761,-1.2844,-1.2975,-1.3375,-1.3634,-1.3992,-1.4576,-1.5984,-1.7539,-1.9073,-2.1222,-2.2975,-2.3764,-2.3982,-2.4121,-2.4326,-2.4047,-2.3878,-2.4037,-2.3613,-2.318,-2.2811,-2.2486,-2.2065,-2.1536,-2.1512,-2.1416,-2.1211,-2.1211,-2.1368,-2.1692,-2.1704,-2.1837,-2.211,-2.0917,-2.0423,-2.0598,-1.9469,-1.8863,-1.8713,-1.8952,-1.8932,-1.8713,-1.8626,-1.8811,-1.9134,-1.9707,-2.0185,-2.0605,-2.0605,-2.0605,-2.0605,-2.0605,-2.0605,-2.0605,-2.0605,-2.0605,-2.0605,-2.0605,-2.0605,-2.0605,-2.0605,-2.0723,-2.0997,-2.175,-2.1829,-2.1936,-2.2942,-2.2647,-2.2362,-2.3192,-2.3255,-2.3278,-2.3823,-2.3796,-2.358,-2.3267,-2.3062,-2.2703,-2.1904,-2.1807,-2.1807,-2.1807,-2.2515,-2.3102,-2.3386,-2.426,-2.4803,-2.4786,-2.4318,-2.3753,-2.3145,-2.3108,-2.3108,-2.3108,-2.3108,-2.3108,-2.3108,-2.3168,-2.3271,-2.3403,-2.3522,-2.3641,-2.373,-2.3878,-2.3979,-1.0499,-1.1217,-1.2101,-1.2101,-1.2202,-1.2432,-1.2955,-1.2983,-1.3084,-1.3727,-1.3949,-1.4213,-1.4934,-1.635,-1.7879,-1.924,-2.1261,-2.2775,-2.3131,-2.3344,-2.3514,-2.3682,-2.3295,-2.3119,-2.3288,-2.2674,-2.2089,-2.1716,-2.1344,-2.0911,-2.0382,-2.0514,-2.0538,-2.0358,-2.0526,-2.0791,-2.1139,-2.1151,-2.1164,-2.1187,-2.0293,-1.9825,-1.9704,-1.8529,-1.8008,-1.8008,-1.8008,-1.8008,-1.8008,-1.8008,-1.834,-1.888,-1.9629,-2.0185,-2.0605,-2.0605,-2.0605,-2.0605,-2.0605,-2.0605,-2.0605,-2.0605,-2.0605,-2.0605,-2.0605,-2.0605,-2.0605,-2.0605,-2.0703,-2.085,-2.1204,-2.1243,-2.1456,-2.2524,-2.2448,-2.2288,-2.3047,-2.3274,-2.345,-2.3667,-2.3711,-2.3559,-2.3053,-2.2849,-2.2463,-2.1712,-2.1617,-2.1617,-2.1693,-2.2176,-2.2665,-2.2964,-2.392,-2.4483,-2.441,-2.4179,-2.3753,-2.3145,-2.3108,-2.3108,-2.3108,-2.3108,-2.3108,-2.3108,-2.3108,-2.3168,-2.33,-2.3373,-2.3463,-2.3539,-2.373,-2.3832,-1.0364,-1.1217,-1.2101,-1.2101,-1.2395,-1.29,-1.3727,-1.358,-1.3635,-1.4836,-1.5084,-1.4964,-1.4579,-1.6467,-1.8086,-1.8097,-2.0559,-2.2495,-2.2483,-2.2613,-2.2888,-2.3399,-2.226,-2.1596,-2.2125,-2.1235,-2.0581,-2.0581,-2.0574,-2.0362,-1.9832,-2.0298,-2.0346,-1.982,-2.031,-2.0586,-2.0591,-2.0598,-2.0846,-2.1362,-1.9947,-1.918,-1.8977,-1.8303,-1.8008,-1.8008,-1.8008,-1.8008,-1.8008,-1.8008,-1.8516,-1.9326,-1.9746,-2.0176,-2.0605,-2.0605,-2.0605,-2.0605,-2.0605,-2.0605,-2.0605,-2.0605,-2.0605,-2.0605,-2.0605,-2.0605,-2.0605,-2.0605,-2.0889,-2.1083,-2.0684,-2.0898,-2.1298,-2.1777,-2.2197,-2.25,-2.251,-2.2789,-2.3178,-2.345,-2.3493,-2.3259,-2.2601,-2.2492,-2.2181,-2.1346,-2.1205,-2.1282,-2.1474,-2.1502,-2.1873,-2.2889,-2.3884,-2.4268,-2.3682,-2.3848,-2.3766,-2.3158,-2.3108,-2.3108,-2.3108,-2.3108,-2.3108,-2.3108,-2.3108,-2.3108,-2.3108,-2.33,-2.3403,-2.3403,-2.3539,-2.3688,-1.0141,-1.0889,-1.1628,-1.2002,-1.2395,-1.29,-1.3727,-1.358,-1.3479,-1.4112,-1.402,-1.4108,-1.4954,-1.6396,-1.7696,-1.8408,-2.0305,-2.1611,-2.1261,-2.1357,-2.1367,-2.1209,-2.0813,-2.0676,-2.0908,-2.0633,-2.0327,-2.0057,-2.0049,-1.9808,-1.9278,-1.9384,-1.9396,-1.9227,-1.9384,-1.9648,-2.0037,-2.0049,-1.9858,-1.9512,-1.9077,-1.9195,-1.9737,-1.8529,-1.8008,-1.8008,-1.8008,-1.8008,-1.8008,-1.8008,-1.8516,-1.9297,-1.9424,-1.9959,-2.0605,-2.0605,-2.0605,-2.0605,-2.0605,-2.0605,-2.0605,-2.0605,-2.0605,-2.0605,-2.0605,-2.0605,-2.0605,-2.0605,-2.0703,-2.0732,-2.0635,-2.0703,-2.0869,-2.1318,-2.1483,-2.1699,-2.2002,-2.2168,-2.2438,-2.2955,-2.2919,-2.284,-2.2962,-2.261,-2.2129,-2.1709,-2.1357,-2.1205,-2.1282,-2.1282,-2.1835,-2.3217,-2.3765,-2.4225,-2.4765,-2.5012,-2.4895,-2.4324,-2.3954,-2.3521,-2.312,-2.3108,-2.3108,-2.3108,-2.3108,-2.3108,-2.3108,-2.3168,-2.3198,-2.3198,-2.336,-2.3492,-1.0456,-1.1082,-1.1663,-1.2193,-1.2591,-1.3031,-1.3736,-1.4075,-1.4222,-1.4148,-1.4066,-1.432,-1.5321,-1.6407,-1.7452,-1.839,-1.9534,-2.0239,-1.9954,-2.0049,-2.0024,-1.9766,-1.9814,-1.9927,-2.0001,-1.98,-1.9594,-1.9422,-1.9386,-1.9282,-1.8999,-1.8987,-1.8987,-1.8987,-1.8987,-1.917,-1.9495,-1.9183,-1.8969,-1.8766,-1.8173,-1.8369,-1.9158,-1.8006,-1.7598,-1.7773,-1.7939,-1.8008,-1.8008,-1.8008,-1.8418,-1.9023,-1.9023,-1.9416,-1.9945,-1.9945,-2.0099,-2.0245,-2.0245,-2.0391,-2.0605,-2.0605,-2.0527,-2.0489,-2.0489,-2.0411,-2.0333,-2.0333,-2.0333,-2.0333,-2.045,-2.0489,-2.0557,-2.0869,-2.1064,-2.1268,-2.1572,-2.1768,-2.2004,-2.2426,-2.235,-2.235,-2.2643,-2.2193,-2.1736,-2.158,-2.1301,-2.1099,-2.1099,-2.1167,-2.1683,-2.292,-2.3248,-2.3639,-2.4377,-2.4612,-2.4571,-2.4066,-2.376,-2.341,-2.312,-2.3108,-2.3108,-2.3108,-2.3108,-2.3108,-2.3108,-2.3108,-2.3108,-2.3108,-2.321,-2.333,-1.093,-1.1469,-1.1942,-1.251,-1.2895,-1.3267,-1.3698,-1.4735,-1.5377,-1.4662,-1.4854,-1.5249,-1.5579,-1.6441,-1.7315,-1.7997,-1.8402,-1.8608,-1.8548,-1.8758,-1.8896,-1.884,-1.9103,-1.9272,-1.9312,-1.8881,-1.8652,-1.8771,-1.8771,-1.8813,-1.896,-1.896,-1.896,-1.896,-1.896,-1.896,-1.8999,-1.8251,-1.818,-1.8714,-1.7305,-1.696,-1.7533,-1.6972,-1.6941,-1.7402,-1.775,-1.7935,-1.7949,-1.7974,-1.8183,-1.8562,-1.8562,-1.8727,-1.8968,-1.8968,-1.9254,-1.9591,-1.963,-2.0004,-2.0479,-2.0508,-2.044,-2.0322,-2.0322,-2.0165,-1.9959,-1.9959,-1.9931,-1.9942,-2.0186,-2.0264,-2.0342,-2.0489,-2.0839,-2.1132,-2.1132,-2.1484,-2.1777,-2.1816,-2.1826,-2.1836,-2.1875,-2.1523,-2.1181,-2.1142,-2.1007,-2.0867,-2.0867,-2.1089,-2.1578,-2.2365,-2.271,-2.298,-2.3218,-2.3506,-2.3466,-2.3064,-2.2978,-2.3014,-2.3153,-2.3133,-2.3108,-2.3108,-2.3108,-2.3108,-2.3108,-2.3108,-2.3108,-2.3108,-2.3108,-2.3198,-0.995,-1.06,-1.1311,-1.2105,-1.2832,-1.3286,-1.3165,-1.3889,-1.4566,-1.4522,-1.5074,-1.5496,-1.5267,-1.6164,-1.6867,-1.6677,-1.7482,-1.7991,-1.7518,-1.7903,-1.8042,-1.7647,-1.8069,-1.8448,-1.8585,-1.8507,-1.8491,-1.8625,-1.864,-1.8652,-1.8667,-1.8694,-1.8694,-1.8694,-1.8694,-1.8732,-1.8851,-1.8116,-1.764,-1.7405,-1.6496,-1.5899,-1.5623,-1.6354,-1.6867,-1.7166,-1.7263,-1.7418,-1.7608,-1.7716,-1.7931,-1.8218,-1.8218,-1.843,-1.8765,-1.8765,-1.8822,-1.8955,-1.9298,-1.9469,-1.9631,-1.9954,-2.0288,-2.0524,-2.0524,-2.0524,-2.0434,-2.0434,-2.0197,-1.9902,-1.9981,-2.0147,-2.0264,-2.0098,-2.041,-2.0752,-2.0752,-2.082,-2.0957,-2.1309,-2.1337,-2.1484,-2.1826,-2.1523,-2.1073,-2.0762,-2.0713,-2.0654,-2.0654,-2.1252,-2.1993,-2.2782,-2.3557,-2.4155,-2.4398,-2.4637,-2.4554,-2.4045,-2.3614,-2.343,-2.3586,-2.3285,-2.3108,-2.3108,-2.3108,-2.3108,-2.3108,-2.3108,-2.3108,-2.3108,-2.3108,-2.3138,-1.0053,-1.0523,-1.0979,-1.1904,-1.2652,-1.3144,-1.3012,-1.367,-1.4273,-1.422,-1.4543,-1.4763,-1.4552,-1.5284,-1.5886,-1.5822,-1.6323,-1.6742,-1.6713,-1.6993,-1.707,-1.6814,-1.7567,-1.803,-1.7843,-1.8084,-1.834,-1.8491,-1.8491,-1.8545,-1.8587,-1.8333,-1.817,-1.817,-1.817,-1.8197,-1.8263,-1.7501,-1.7056,-1.6888,-1.5835,-1.5216,-1.5028,-1.5808,-1.6357,-1.6695,-1.6915,-1.7183,-1.7505,-1.7588,-1.7687,-1.7818,-1.7818,-1.788,-1.7979,-1.7979,-1.8111,-1.8319,-1.8732,-1.9052,-1.9364,-1.977,-2.0146,-2.0404,-2.0404,-2.0333,-2.0251,-2.0251,-1.9953,-1.9627,-1.9745,-1.9872,-1.9951,-1.9902,-2.0177,-2.0459,-2.0459,-2.0459,-2.0557,-2.083,-2.0918,-2.1055,-2.1494,-2.1346,-2.1044,-2.0674,-2.0605,-2.0605,-2.0605,-2.1308,-2.2096,-2.292,-2.3553,-2.4038,-2.4307,-2.4174,-2.3896,-2.3423,-2.313,-2.3033,-2.322,-2.3088,-2.3017,-2.3108,-2.3108,-2.3108,-2.3108,-2.3108,-2.3108,-2.3108,-2.3108,-2.3108,-1.0174,-1.0563,-1.0882,-1.1739,-1.2333,-1.2751,-1.286,-1.3426,-1.387,-1.366,-1.3872,-1.4104,-1.403,-1.4411,-1.4864,-1.5197,-1.5264,-1.5428,-1.593,-1.6083,-1.614,-1.614,-1.7112,-1.7623,-1.723,-1.7639,-1.8057,-1.834,-1.834,-1.8356,-1.836,-1.7886,-1.7573,-1.7462,-1.7462,-1.7462,-1.749,-1.6708,-1.6397,-1.6595,-1.5284,-1.4754,-1.493,-1.526,-1.5638,-1.6084,-1.6529,-1.6954,-1.7298,-1.7398,-1.7436,-1.7401,-1.7401,-1.7289,-1.7132,-1.7132,-1.7365,-1.7682,-1.8118,-1.8564,-1.908,-1.9521,-1.9844,-2.0077,-2.0216,-2.0149,-1.9994,-1.9994,-1.9692,-1.9433,-1.9536,-1.9557,-1.9636,-1.9784,-1.999,-2.0186,-2.0225,-2.0225,-2.0264,-2.045,-2.0489,-2.0605,-2.0975,-2.1043,-2.0956,-2.0654,-2.0605,-2.0605,-2.0605,-2.1362,-2.2131,-2.2789,-2.3238,-2.3523,-2.3643,-2.3264,-2.2814,-2.2395,-2.2359,-2.2451,-2.2647,-2.2757,-2.2878,-2.3017,-2.3078,-2.3108,-2.3108,-2.3108,-2.3108,-2.3108,-2.3108,-2.3108,-0.9033,-0.9997,-1.1021,-1.1336,-1.1688,-1.1945,-1.1971,-1.2191,-1.2395,-1.2432,-1.3755,-1.4836,-1.4488,-1.4535,-1.4639,-1.461,-1.4668,-1.4715,-1.4737,-1.5186,-1.5526,-1.5526,-1.6112,-1.6698,-1.7174,-1.7257,-1.7556,-1.8084,-1.8139,-1.7936,-1.7396,-1.7313,-1.7034,-1.65,-1.6472,-1.6539,-1.6652,-1.5921,-1.5633,-1.5747,-1.4922,-1.4536,-1.4575,-1.4621,-1.493,-1.5452,-1.5903,-1.6258,-1.649,-1.7027,-1.7141,-1.6978,-1.6978,-1.6978,-1.6934,-1.6934,-1.6971,-1.7081,-1.7476,-1.7687,-1.7852,-1.8626,-1.9102,-1.9552,-2.0269,-2.0438,-2.0438,-2.0438,-2.0113,-1.9769,-1.9433,-1.9469,-1.9557,-1.9429,-1.9548,-1.9754,-1.9912,-1.9942,-1.9942,-1.9981,-1.9981,-2.0078,-2.038,-2.0429,-2.0449,-2.0576,-2.0605,-2.0605,-2.0605,-2.1489,-2.219,-2.2299,-2.3156,-2.3553,-2.3135,-2.3047,-2.2794,-2.2252,-2.2216,-2.2278,-2.242,-2.2451,-2.2543,-2.2739,-2.3,-2.3108,-2.3108,-2.3108,-2.3108,-2.3108,-2.3108,-2.3108,-0.9066,-0.9952,-1.0767,-1.1184,-1.1404,-1.155,-1.1602,-1.1878,-1.2061,-1.1928,-1.277,-1.353,-1.3516,-1.3886,-1.4213,-1.4159,-1.4369,-1.4656,-1.4962,-1.5245,-1.5526,-1.5853,-1.5943,-1.6172,-1.6648,-1.6492,-1.656,-1.7062,-1.7084,-1.6989,-1.6698,-1.6397,-1.6083,-1.5806,-1.5806,-1.5835,-1.5892,-1.5555,-1.5264,-1.4981,-1.4645,-1.4515,-1.4515,-1.4515,-1.4756,-1.5204,-1.542,-1.5661,-1.5991,-1.6505,-1.6637,-1.6597,-1.6817,-1.6908,-1.6908,-1.6908,-1.6908,-1.6963,-1.7358,-1.7495,-1.7596,-1.8192,-1.8797,-1.9366,-1.9732,-2.0154,-2.0521,-2.0521,-2.0351,-2.0218,-2.0035,-1.9865,-1.9749,-1.9659,-1.9516,-1.9469,-1.9539,-1.9666,-1.9754,-1.9863,-1.9902,-1.9942,-2.0059,-2.0069,-2.0098,-2.0177,-2.0333,-2.0478,-2.0643,-2.1576,-2.2246,-2.2404,-2.2973,-2.3264,-2.3035,-2.2714,-2.2438,-2.2209,-2.2197,-2.2216,-2.2278,-2.2359,-2.2451,-2.2512,-2.2818,-2.2987,-2.2987,-2.3047,-2.3108,-2.3108,-2.3108,-2.3283,-0.9119,-0.9692,-1.0164,-1.0888,-1.1065,-1.1167,-1.1498,-1.1748,-1.1861,-1.1788,-1.2016,-1.2324,-1.2551,-1.3095,-1.3533,-1.3633,-1.3906,-1.4252,-1.4754,-1.4831,-1.5002,-1.5465,-1.5257,-1.5279,-1.5733,-1.5495,-1.5526,-1.5956,-1.6091,-1.6079,-1.5938,-1.5602,-1.5332,-1.5186,-1.5157,-1.5157,-1.5157,-1.5157,-1.4961,-1.4515,-1.4515,-1.4515,-1.4515,-1.4515,-1.4671,-1.4955,-1.5056,-1.5267,-1.5579,-1.6101,-1.6288,-1.6358,-1.6752,-1.6908,-1.6908,-1.6908,-1.6908,-1.6945,-1.7238,-1.7348,-1.7413,-1.7834,-1.8366,-1.8898,-1.921,-1.9806,-2.0393,-2.0451,-2.0585,-2.0622,-2.0378,-2.0104,-1.9866,-1.9756,-1.9531,-1.9301,-1.9301,-1.9429,-1.9557,-1.9706,-1.9745,-1.9745,-1.9824,-1.9824,-1.9824,-1.9902,-2.012,-2.0398,-2.0588,-2.1456,-2.2095,-2.2287,-2.2622,-2.2787,-2.2787,-2.2426,-2.2197,-2.2197,-2.2197,-2.2197,-2.2197,-2.2309,-2.2359,-2.2359,-2.2635,-2.2818,-2.2909,-2.2987,-2.3078,-2.3108,-2.3258,-2.359,-0.8672,-0.8856,-0.9138,-1.019,-1.0454,-1.0671,-1.1572,-1.1541,-1.1447,-1.1904,-1.2053,-1.2149,-1.2281,-1.2369,-1.2511,-1.2877,-1.2984,-1.3048,-1.3195,-1.3213,-1.3268,-1.3433,-1.3442,-1.365,-1.426,-1.4294,-1.4523,-1.5112,-1.5513,-1.5478,-1.4915,-1.5204,-1.5128,-1.4565,-1.4545,-1.4545,-1.4545,-1.4545,-1.4545,-1.4515,-1.4515,-1.4515,-1.4515,-1.4515,-1.4524,-1.4561,-1.4937,-1.5111,-1.5194,-1.5991,-1.6288,-1.6358,-1.6752,-1.6908,-1.6908,-1.6908,-1.6908,-1.6908,-1.6927,-1.6936,-1.7,-1.7394,-1.755,-1.7807,-1.8953,-1.9613,-1.9994,-2.0369,-2.0787,-2.0906,-2.0113,-1.9902,-1.9793,-1.943,-1.932,-1.9301,-1.9301,-1.9301,-1.9301,-1.9341,-1.9341,-1.9381,-1.9597,-1.9606,-1.9676,-1.9863,-2.0167,-2.0392,-2.0399,-2.1067,-2.1553,-2.1563,-2.1984,-2.2234,-2.2234,-2.2209,-2.2197,-2.2197,-2.2197,-2.2197,-2.2197,-2.2228,-2.2228,-2.2228,-2.2359,-2.2574,-2.2909,-2.2909,-2.3,-2.312,-2.3703,-2.3966,-0.8646,-0.8804,-0.8981,-0.9692,-1.0138,-1.0486,-1.0821,-1.1115,-1.1361,-1.1524,-1.1584,-1.161,-1.1661,-1.2228,-1.2716,-1.2885,-1.2903,-1.2903,-1.2967,-1.2958,-1.3123,-1.3567,-1.3119,-1.3143,-1.3975,-1.3578,-1.3434,-1.3915,-1.4311,-1.4458,-1.4232,-1.4588,-1.4704,-1.4515,-1.4515,-1.4515,-1.4515,-1.4515,-1.4515,-1.4515,-1.4515,-1.4515,-1.4515,-1.4515,-1.4515,-1.4515,-1.4662,-1.4717,-1.4781,-1.5588,-1.5909,-1.601,-1.6927,-1.7284,-1.7284,-1.7284,-1.7284,-1.7248,-1.6991,-1.6908,-1.6927,-1.7073,-1.7284,-1.7578,-1.8009,-1.8788,-1.9503,-1.9393,-2.0017,-2.0604,-2.0031,-1.9893,-1.9783,-1.9402,-1.9301,-1.9301,-1.9301,-1.9512,-1.9622,-1.9356,-1.9301,-1.9301,-1.939,-1.9178,-1.9051,-1.9119,-1.9513,-1.9895,-2.0057,-2.0911,-2.157,-2.1745,-2.2012,-2.2197,-2.2197,-2.2197,-2.2197,-2.2197,-2.2197,-2.2197,-2.2197,-2.2197,-2.2197,-2.2197,-2.2247,-2.2432,-2.2769,-2.2848,-2.3187,-2.369,-2.3904,-2.4608,-0.8388,-0.8494,-0.8626,-0.9145,-0.9562,-0.9958,-1.0259,-1.0676,-1.1065,-1.1251,-1.1301,-1.1301,-1.1301,-1.1896,-1.2351,-1.2351,-1.2351,-1.2378,-1.2431,-1.2431,-1.2609,-1.303,-1.2591,-1.2485,-1.3169,-1.2746,-1.2529,-1.2812,-1.3378,0.0,-1.3709,-1.4212,-1.4515,-1.4515,-1.4515,-1.4515,-1.4515,-1.4515,-1.4515,-1.4515,-1.4515,-1.4515,-1.4515,-1.4515,-1.4515,-1.4515,-1.4446,-1.4455,-1.4561,-1.5221,-1.5538,-1.5692,-1.6622,-1.7115,-1.7315,-1.7315,-1.7433,-1.7533,-1.7141,-1.704,-1.7082,-1.6945,-1.7082,-1.7321,-1.7449,-1.8155,-1.888,-1.8751,-1.9314,-1.993,-1.9675,-1.9502,-1.9365,-1.9228,-1.9262,-1.9301,-1.9301,-1.9522,-1.9641,-1.9356,-1.9191,-1.91,-1.91,-1.8779,-1.8513,-1.8513,-1.9097,-1.9591,-1.9772,-2.094,-2.1742,-2.1722,-2.2111,-2.2284,-2.2104,-2.2166,-2.2197,-2.2197,-2.2197,-2.2197,-2.2197,-2.2197,-2.2197,-2.2197,-2.2197,-2.234,-2.2586,-2.2696,-2.3034,-2.3623,-2.4002,-2.5216,0.0,0.0,0.0,-0.8441,-0.8672,-0.9033,-0.9935,-1.0259,-1.0531,-1.1141,-1.1267,-1.1267,-1.1301,-1.1301,-1.1301,-1.1301,-1.1301,-1.1352,-1.1477,-1.1494,-1.1553,-1.1669,-1.1694,-1.1694,-1.1694,-1.1828,-1.1902,-1.192,-1.2758,-1.3296,-1.3305,-1.4075,-1.4515,-1.4515,-1.4515,-1.4515,-1.4515,-1.4515,-1.4515,-1.4515,-1.4515,-1.4515,-1.4476,-1.4476,-1.4476,-1.4485,-1.4357,-1.4366,-1.4513,-1.4906,-1.5205,-1.5411,-1.5848,-1.6374,-1.69,-1.6927,-1.7277,-1.773,-1.7315,-1.7315,-1.7413,-1.6993,-1.6874,-1.6947,-1.7358,-1.7734,-1.8145,-1.8512,-1.8806,-1.8966,-1.8975,-1.8722,-1.8512,-1.8912,-1.9161,-1.9271,-1.9262,-1.9262,-1.9301,-1.9301,-1.8981,-1.8715,-1.8733,-1.8356,-1.8091,-1.8091,-1.8948,-1.9582,-1.9582,-2.1097,-2.1981,-2.1469,-2.2165,-2.2464,-2.1965,-2.2116,-2.2209,-2.2197,-2.2197,-2.2197,-2.2197,-2.2197,-2.2197,-2.2197,-2.2197,-2.2247,-2.2389,-2.2389,-2.2574,-2.2976,-2.4149,-2.5728,-0.7783,0.0,0.0,0.0,0.0,0.0,-0.883,-0.9216,-0.9729,-1.0372,-1.0507,-1.066,-1.1192,-1.1301,-1.1301,-1.1301,-1.1301,-1.1318,-1.1343,-1.1352,-1.1377,-1.1402,-1.1502,-1.1553,-1.1553,-1.1678,-1.1869,0.0,-1.2761,-1.3249,-1.3493,-1.4134,-1.4515,-1.4515,-1.4515,-1.4515,-1.4515,-1.4515,-1.4515,-1.4515,-1.4515,-1.4455,-1.4366,-1.4366,-1.4267,-1.4139,-1.41,-1.41,-1.4165,-1.4581,-1.4774,-1.4907,-1.5886,-1.6394,-1.6581,-1.7149,-1.7283,-1.7187,-1.7026,-1.6848,-1.6625,-1.6482,-1.6491,-1.6508,-1.6616,-1.6965,-1.7242,-1.7027,-1.7474,-1.8035,-1.8303,-1.8674,-1.8936,-1.8807,-1.9017,-1.9173,-1.8905,-1.8851,-1.8962,-1.9222,-1.8981,-1.8806,-1.9091,-1.8577,-1.8091,-1.8091,-1.8703,-1.9153,-1.9153,-2.0587,-2.1702,-2.1946,-2.2292,-2.2477,-2.2475,-2.2528,-2.2468,-2.2221,-2.2197,-2.2197,-2.2197,-2.2197,-2.2197,-2.2197,-2.2197,-2.2216,-2.2247,-2.2359,-2.3003,-2.4162,-2.5948,-2.682,-0.7723,-0.767,-0.7595,-0.744,0.0,0.0,-0.8494,-0.885,-0.934,0.0,-1.0336,-1.0472,-1.0896,-1.0972,-1.0998,-1.1124,-1.1124,-1.1175,-1.1276,-1.1301,-1.1301,-1.1301,-1.1377,-1.1427,-1.1427,-1.1668,-1.1912,-1.2088,-1.2805,-1.337,-1.3754,-1.4093,-1.4327,-1.4417,-1.4426,-1.4455,-1.4515,-1.4515,-1.4476,-1.4426,-1.4426,-1.4327,-1.4169,-1.4169,-1.4109,-1.401,-1.395,-1.392,-1.3937,-1.4088,-1.4281,-1.4531,-1.5259,-1.5692,-1.5992,-1.6725,-1.7044,-1.7083,-1.725,-1.719,-1.7015,-1.6855,-1.6687,-1.6546,-1.6546,-1.6741,-1.691,-1.6643,-1.6969,-1.7461,-1.7567,-1.7991,-1.8347,-1.8351,-1.8408,-1.843,-1.8257,-1.8213,-1.838,-1.8939,-1.8795,-1.8643,-1.887,-1.8318,-1.7862,-1.7862,-1.8512,-1.9011,-1.9011,-2.0532,-2.1663,-2.1768,-2.2094,-2.2259,-2.2165,-2.2281,-2.2289,-2.2085,-2.2154,-2.2197,-2.2197,-2.2197,-2.2197,-2.2197,-2.2197,-2.2197,-2.2197,-2.2278,-2.3106,-2.459,-2.6093,-2.6783,-0.767,-0.7568,-0.744,-0.7311,-0.7365,0.0,-0.8435,-0.8692,-0.9059,0.0,-1.0223,-1.0257,-1.0334,-1.036,-1.0437,-1.0659,-1.0761,-1.0896,-1.1242,-1.1301,-1.1301,-1.1301,-1.1301,-1.1301,-1.1301,-1.1679,-1.1974,-1.2025,-1.2921,-1.3597,-1.3992,-1.401,-1.407,-1.4267,-1.4267,-1.4327,-1.4446,-1.4446,-1.4387,-1.4267,-1.4267,-1.4178,-1.398,-1.398,-1.398,-1.395,-1.383,-1.3769,-1.3739,-1.3571,-1.3778,-1.4221,-1.4264,-1.4653,-1.53,-1.5924,-1.6584,-1.7148,-1.7513,-1.7742,-1.7835,-1.7543,-1.7199,-1.6908,-1.6908,-1.6872,-1.6837,-1.6793,-1.6911,-1.7067,-1.6896,-1.7023,-1.7304,-1.7626,-1.7623,-1.7499,-1.751,-1.7492,-1.7649,-1.8355,-1.8437,-1.8386,-1.8386,-1.7933,-1.7586,-1.7612,-1.8414,-1.9044,-1.911,-2.0709,-2.1686,-2.1316,-2.1825,-2.1971,-2.1527,-2.1757,-2.1922,-2.1906,-2.2061,-2.2197,-2.2197,-2.2197,-2.2197,-2.2197,-2.2197,-2.2197,-2.2197,-2.2371,-2.3113,-2.4397,-2.5336,-2.6092,-0.744,-0.7365,-0.7311,-0.7171,-0.7166,0.0,-0.7402,-0.7456,-0.7691,0.0,-0.858,-0.8764,-0.934,-0.9444,-0.947,-0.9521,-0.9814,-1.031,-1.1167,-1.1301,-1.1301,-1.1301,-1.1301,-1.1301,-1.1301,-1.1387,-1.1688,-1.229,-1.3191,-1.3811,-1.398,-1.401,-1.401,-1.407,-1.407,-1.407,-1.41,-1.41,-1.407,-1.407,-1.407,-1.398,-1.383,-1.383,-1.3761,-1.3601,-1.3571,-1.3571,-1.3571,-1.3511,-1.3554,-1.3687,-1.4004,-1.4588,-1.5232,-1.5343,-1.5857,-1.6493,-1.6616,-1.667,-1.6704,-1.6954,-1.6942,-1.692,-1.692,-1.6704,-1.643,-1.6092,-1.6237,-1.6484,-1.6493,-1.6985,-1.7381,-1.7119,-1.7278,-1.7394,-1.7101,-1.7032,-1.7075,-1.723,-1.787,-1.8386,-1.8386,-1.8179,-1.8073,-1.8328,-1.8733,-1.9199,-1.9802,-2.0746,-2.1433,-2.1743,-2.187,-2.1991,-2.205,-2.2104,-2.2057,-2.1929,-2.1937,-2.203,-2.2185,-2.2197,-2.2197,-2.2197,-2.2197,-2.2197,-2.2197,-2.3335,-2.3771,-2.3568,-2.5467,-2.6154,-0.7365,-0.7257,-0.7171,-0.7112,0.0,0.0,0.0,-0.7402,-0.7563,-0.8143,-0.8249,-0.8355,-0.8718,-0.8804,-0.885,-0.8974,-0.9347,-0.9744,-1.02,-1.0625,-1.0896,-1.0896,-1.1023,-1.1099,-1.1099,-1.137,-1.1875,-1.2657,-1.3156,-1.351,-1.3752,-1.3761,-1.3791,-1.389,-1.389,-1.392,-1.401,-1.401,-1.398,-1.389,-1.389,-1.3821,-1.364,-1.364,-1.361,-1.3511,-1.3511,-1.3511,-1.3511,-1.3511,-1.3511,-1.3528,-1.3725,-1.4033,-1.4435,-1.5,-1.542,-1.5857,-1.643,-1.6627,-1.665,-1.7072,-1.7072,-1.6953,-1.7141,-1.6935,-1.6593,-1.6413,-1.6353,-1.6345,-1.6345,-1.6664,-1.6905,-1.6716,-1.681,-1.6845,-1.6439,-1.6462,-1.659,-1.659,-1.7238,-1.7843,-1.7928,-1.7859,-1.7988,-1.8531,-1.8835,-1.9276,-1.9998,-2.0732,-2.1293,-2.1514,-2.1548,-2.1581,-2.1677,-2.1762,-2.1754,-2.1643,-2.18,-2.1968,-2.2061,-2.2166,-2.2197,-2.2197,-2.2197,-2.2197,-2.2197,-2.3518,-2.4034,-2.3829,-2.5273,-2.5987,0.0,0.0,0.0,0.0,0.0,-0.7192,0.0,0.0,0.0,-0.8076,-0.8156,-0.8156,-0.8156,0.0,0.0,-0.8364,0.0,0.0,0.0,-0.9577,0.0,-1.0334,-1.0641,-1.082,-1.082,-1.1358,-1.2017,-1.2714,-1.2923,-1.3138,-1.3391,-1.3468,-1.3571,-1.3731,-1.3731,-1.3791,-1.3881,-1.3881,-1.386,-1.3731,-1.3731,-1.367,-1.3511,-1.3511,-1.3511,-1.3511,-1.3511,-1.3511,-1.3511,-1.3511,-1.3511,-1.3511,-1.3511,-1.3596,-1.3827,-1.4598,-1.5069,-1.5446,-1.6293,-1.6607,-1.679,-1.7342,-1.7312,-1.7175,-1.7398,-1.7261,-1.6995,-1.685,-1.6584,-1.6364,-1.6214,-1.6233,-1.6278,-1.6278,-1.6278,-1.6201,-1.5865,-1.6028,-1.6197,-1.6197,-1.662,-1.7048,-1.7285,-1.7396,-1.7718,-1.8516,-1.8842,-1.9309,-2.0204,-2.0828,-2.119,-2.119,-2.119,-2.119,-2.119,-2.1305,-2.1368,-2.1388,-2.1663,-2.1831,-2.1894,-2.2092,-2.2197,-2.2197,-2.2197,-2.2197,-2.2197,-2.328,-2.3975,-2.425,-2.5133,-2.5878,0.0,0.0,0.0,0.0,-0.7112,0.0,0.0,0.0,-0.7192,-0.7246,0.0,-0.7246,-0.7246,0.0,0.0,0.0,0.0,0.0,-0.7629,-0.8209,-0.8942,-0.9795,-1.0275,-1.0547,-1.0547,-1.1096,-1.1582,-1.1916,-1.2595,-1.3026,-1.304,-1.3339,-1.3511,-1.3541,-1.3541,-1.3541,-1.3571,-1.3571,-1.3541,-1.3541,-1.3541,-1.3511,-1.3511,-1.3511,-1.3511,-1.3511,-1.3511,-1.3511,-1.3511,-1.3511,-1.3511,-1.3511,-1.3511,-1.3939,-1.4487,-1.3913,-1.4564,-1.5703,-1.548,-1.5634,-1.6096,-1.7171,-1.7672,-1.7812,-1.76,-1.748,-1.7261,-1.6584,-1.6334,-1.6223,-1.5942,-1.5857,-1.5865,-1.5865,-1.5865,-1.5857,-1.5814,-1.584,-1.5857,-1.5857,-1.6068,-1.6341,-1.6645,-1.6999,-1.7589,-1.863,-1.8908,-1.9507,-2.0892,-2.1158,-2.119,-2.119,-2.119,-2.119,-2.119,-2.1221,-2.1285,-2.1388,-2.1431,-2.1588,-2.1894,-2.2092,-2.2197,-2.2197,-2.2197,-2.2197,-2.2197,-2.2859,-2.3505,-2.4063,-2.5384,-2.6138,0.0,0.0,0.0,0.0,0.0,0.0,-0.7112,0.0,-0.7112,0.0,0.0,0.0,0.0,0.0,0.0,0.0,-0.7361,0.0,0.0,0.0,-0.8553,0.0,0.0,0.0,-1.047,-1.0727,-1.1062,-1.1532,-1.2089,-1.2597,-1.2963,-1.3314,-1.3511,-1.3511,-1.3511,-1.3511,-1.3511,-1.3511,-1.3511,-1.3511,-1.3511,-1.3511,-1.3511,-1.3511,-1.3511,-1.3511,-1.3511,-1.3511,-1.3511,-1.3511,-1.3511,-1.3511,-1.3511,-1.3708,-1.399,-1.3887,-1.453,-1.5403,-1.5035,-1.5583,-1.6559,-1.7282,-1.7723,-1.7965,-1.7843,-1.7646,-1.7394,-1.6824,-1.6641,-1.6505,-1.5951,-1.5951,-1.6054,-1.5848,-1.5805,-1.5805,-1.5805,-1.5805,-1.5805,-1.5805,-1.5867,-1.5981,-1.611,-1.6457,-1.6977,-1.7842,-1.8499,-1.9266,-2.0279,-2.0848,-2.119,-2.119,-2.119,-2.119,-2.119,-2.119,-2.1221,-2.1273,-2.1368,-2.1557,-2.1894,-2.1968,-2.2092,-2.2197,-2.2197,-2.2197,-2.2197,-2.2811,-2.3403,-2.4021,-2.5091,-2.5797,-0.7398,0.0,0.0,0.0,0.0,0.0,0.0,0.0,0.0,0.0,0.0,0.0,0.0,0.0,-0.7063,-0.6999,0.0,-0.7406,0.0,-0.7602,0.0,0.0,0.0,0.0,0.0,-1.012,-1.0436,-1.1023,-1.1661,-1.2237,-1.28,-1.3254,-1.3511,-1.3511,-1.3511,-1.3511,-1.3511,-1.3511,-1.3511,-1.3511,-1.3511,-1.3511,-1.3511,-1.3511,-1.3571,-1.3665,-1.3665,-1.3665,-1.3665,-1.3665,-1.3605,-1.3511,-1.3511,-1.3511,-1.3545,-1.3827,-1.4418,-1.5018,-1.4649,-1.5437,-1.667,-1.7038,-1.7483,-1.7903,-1.7965,-1.7843,-1.7543,-1.7175,-1.7072,-1.6901,-1.6148,-1.6148,-1.6242,-1.5891,-1.5805,-1.5805,-1.5805,-1.5805,-1.5805,-1.5805,-1.5805,-1.5805,-1.5805,-1.6035,-1.6508,-1.7207,-1.8051,-1.8924,-1.9694,-2.0516,-2.1094,-2.119,-2.119,-2.119,-2.119,-2.119,-2.119,-2.119,-2.1336,-2.1526,-2.1843,-2.1874,-2.1999,-2.2197,-2.2197,-2.2197,-2.2197,-2.2641,-2.3237,-2.4021,-2.4781,-2.5481,0.0,0.0,0.0,-0.7471,0.0,0.0,0.0,0.0,-0.7112,0.0,0.0,0.0,0.0,-0.7112,-0.7009,-0.6757,-0.6939,0.0,0.0,0.0,0.0,0.0,0.0,0.0,0.0,-0.9197,-0.9673,0.0,-1.1342,-1.212,-1.2406,-1.3108,-1.3511,-1.3511,-1.3511,-1.3511,-1.3511,-1.3511,-1.3511,-1.3511,-1.3511,-1.3511,-1.3511,-1.3511,-1.3716,-1.4076,-1.4076,-1.4076,-1.4076,-1.4076,-1.3853,-1.3511,-1.3511,-1.3511,-1.3511,-1.3519,-1.4024,-1.4649,-1.4256,-1.4872,-1.5899,-1.6214,-1.6876,-1.7591,-1.788,-1.7991,-1.7897,-1.76,-1.7488,-1.7317,-1.657,-1.6381,-1.6295,-1.5891,-1.5805,-1.5805,-1.5805,-1.5805,-1.5805,-1.5805,-1.5805,-1.5805,-1.5805,-1.5964,-1.6333,-1.701,-1.7731,-1.86,-1.9661,-2.0291,-2.0775,-2.1158,-2.119,-2.119,-2.119,-2.119,-2.119,-2.119,-2.1336,-2.1506,-2.1698,-2.1843,-2.1999,-2.2197,-2.2197,-2.2197,-2.2197,-2.2216,-2.2823,-2.4021,-2.4694,-2.5397,0.0,0.0,-0.8003,-0.7742,0.0,0.0,0.0,0.0,0.0,0.0,0.0,0.0,0.0,-0.7112,-0.7058,-0.6977,-0.7031,-0.7052,0.0,-0.6902,0.0,0.0,0.0,0.0,0.0,0.0,0.0,0.0,-1.0528,-1.1386,-1.2103,-1.2617,-1.3093,-1.3502,-1.3511,-1.3511,-1.3511,-1.3511,-1.3511,-1.3511,-1.3511,-1.3511,-1.3519,-1.3776,-1.3973,-1.411,-1.4367,-1.4487,-1.4487,-1.4487,-1.4256,-1.3896,-1.3896,-1.3733,-1.3536,-1.3802,-1.4375,-1.512,-1.5745,-1.5891,-1.5908,-1.6479,-1.7064,-1.7531,-1.762,-1.7834,-1.7863,-1.7287,-1.7278,-1.7274,-1.6242,-1.6165,-1.6242,-1.5891,-1.5805,-1.5805,-1.5805,-1.5805,-1.5805,-1.5805,-1.5805,-1.5805,-1.5805,-1.5867,-1.5973,-1.6202,-1.7285,-1.8206,-1.8556,-1.9595,-2.0399,-2.0764,-2.0796,-2.0903,-2.1169,-2.119,-2.119,-2.119,-2.1253,-2.1348,-2.1506,-2.1334,-2.1476,-2.1987,-2.1788,-2.1849,-2.2197,-2.2197,-2.2823,-2.3992,-2.4237,-2.4936,-0.814,-0.8167,0.0,-0.8014,-0.7955,0.0,-0.7599,0.0,-0.7709,0.0,0.0,0.0,0.0,-0.7225,-0.7112,-0.7198,-0.7139,-0.7112,0.0,-0.6869,0.0,0.0,0.0,-0.7563,0.0,0.0,-0.8791,-0.9361,-1.0021,-1.0821,-1.178,-1.2307,-1.2818,-1.3299,-1.345,-1.3511,-1.3511,-1.3511,-1.3511,-1.3511,-1.3511,-1.3511,-1.3519,-1.3913,-1.4179,-1.4324,-1.4709,-1.4872,-1.4872,-1.4872,-1.4649,-1.4307,-1.4307,-1.4153,-1.3939,-1.405,-1.4572,-1.5291,-1.5995,-1.6055,-1.5872,-1.6331,-1.6762,-1.7115,-1.742,-1.7552,-1.753,-1.7218,-1.7192,-1.7072,-1.6216,-1.612,-1.6206,-1.5891,-1.5805,-1.5805,-1.5805,-1.5805,-1.5805,-1.5805,-1.5805,-1.5805,-1.5805,-1.5805,-1.5805,-1.5805,-1.6786,-1.7628,-1.7969,-1.8967,-1.9835,-2.0366,-2.0539,-2.0764,-2.1158,-2.119,-2.119,-2.119,-2.119,-2.1204,-2.1144,-2.1002,-2.1226,-2.1913,-2.1577,-2.1765,-2.2474,-2.2282,-2.2823,-2.3992,-2.3992,-2.4696]},{"header":{"parameterUnit":"m.s-1","parameterCategory":1,"la1":30.6,"la2":29.2853,"lo1":-89.7004,"lo2":-87.6739,"dy":0.0162,"dx":0.0183,"nx":112,"ny":82,"refTime":"2023-08-29T06:00:00:Z","depth":0,"parameterNumber":3,"parameterNumberName":"V-component_of_WINDS"},"data":[0.0,0.0,0.0,0.0,0.0,0.0,0.0,0.0,0.0,0.0,0.0,0.0,0.0,0.0,0.0,0.0,0.0,0.0,0.0,0.0,0.0,0.0,0.0,0.0,0.0,0.0,0.0,0.0,0.0,0.0,0.0,0.0,0.0,0.0,0.0,0.0,0.0,0.0,0.0,0.0,0.0,0.0,0.0,0.0,0.0,0.0,0.0,0.0,0.0,0.0,0.0,0.0,0.0,0.0,0.0,0.0,0.0,0.0,0.0,0.0,0.0,0.0,0.0,0.0,0.0,0.0,0.0,0.0,0.0,0.0,0.0,0.0,0.0,0.0,0.0,0.0,0.0,0.0,0.0,0.0,0.0,0.0,0.0,0.0,0.0,0.0,0.0,0.0,0.0,0.0,1.6651,1.7819,1.878,1.8797,1.7441,1.6905,1.6222,1.5267,0.0,0.0,0.0,0.0,0.0,0.0,0.0,0.0,0.0,0.0,0.0,0.0,0.0,0.0,0.0,0.0,0.0,0.0,0.0,0.0,0.0,0.0,0.0,0.0,0.0,0.0,0.0,0.0,0.0,0.0,0.0,0.0,0.0,0.0,0.0,0.0,0.0,0.0,0.0,0.0,0.0,0.0,0.0,0.0,0.0,0.0,0.0,0.0,0.0,0.0,0.0,0.0,0.0,0.0,0.0,0.0,0.0,0.0,0.0,0.0,0.0,0.0,0.0,0.0,0.0,0.0,0.0,0.0,0.0,0.0,0.0,0.0,0.0,0.0,0.0,0.0,0.0,0.0,0.0,0.0,0.0,0.0,0.0,0.0,0.0,0.0,0.0,0.0,0.0,0.0,0.0,0.0,0.0,0.0,0.0,0.0,0.0,0.0,0.0,0.0,0.0,0.0,0.0,0.0,1.6703,1.8019,1.8208,1.815,1.7901,1.6089,1.5035,1.519,0.0,0.0,0.0,0.0,0.0,0.0,0.0,0.0,0.0,0.0,0.0,0.0,0.0,0.0,0.0,0.0,0.0,0.0,0.0,0.0,0.0,0.0,0.0,0.0,0.0,0.0,0.0,0.0,0.0,0.0,0.0,0.0,0.0,0.0,0.0,0.0,0.0,0.0,0.0,0.0,0.0,0.0,0.0,0.0,0.0,0.0,0.0,0.0,0.0,0.0,0.0,0.0,0.0,0.0,0.0,0.0,0.0,0.0,0.0,0.0,0.0,0.0,0.0,0.0,0.0,0.0,0.0,0.0,0.0,0.0,0.0,0.0,0.0,0.0,0.0,0.0,0.0,0.0,0.0,0.0,0.0,0.0,0.0,0.0,0.0,0.0,0.0,0.0,0.0,0.0,0.0,0.0,0.0,0.0,0.0,0.0,0.0,0.0,0.0,0.0,0.0,0.0,0.0,1.6985,1.7517,1.8116,1.8419,1.8421,1.8122,1.6327,1.527,1.5449,1.4597,0.0,0.0,0.0,0.0,0.0,0.0,0.0,0.0,0.0,0.0,0.0,0.0,0.0,0.0,0.0,0.0,0.0,0.0,0.0,0.0,0.0,0.0,0.0,0.0,0.0,0.0,0.0,0.0,0.0,0.0,0.0,0.0,0.0,0.0,0.0,0.0,0.0,0.0,0.0,0.0,0.0,0.0,0.0,0.0,0.0,0.0,0.0,0.0,0.0,0.0,0.0,0.0,0.0,0.0,0.0,0.0,0.0,0.0,0.0,0.0,0.0,0.0,0.0,0.0,0.0,0.0,0.0,0.0,0.0,0.0,0.0,0.0,0.0,0.0,0.0,0.0,0.0,0.0,0.0,0.0,0.0,0.0,0.0,0.0,0.0,0.0,0.0,0.0,0.0,0.0,0.0,0.0,0.0,0.0,0.0,0.0,0.0,0.0,0.0,0.0,0.0,0.0,1.7456,1.8003,1.8003,1.8392,1.8468,1.8053,1.6584,1.5694,1.57,1.4655,0.0,0.0,0.0,0.0,0.0,0.0,0.0,0.0,0.0,0.0,0.0,0.0,0.0,0.0,0.0,0.0,0.0,0.0,0.0,0.0,0.0,0.0,0.0,0.0,0.0,0.0,0.0,0.0,0.0,0.0,0.0,0.0,0.0,0.0,0.0,0.0,0.0,0.0,0.0,0.0,0.0,0.0,0.0,0.0,0.0,0.0,0.0,0.0,0.0,0.0,0.0,0.0,0.0,0.0,0.0,0.0,0.0,0.0,0.0,0.0,0.0,0.0,0.0,0.0,0.0,0.0,0.0,0.0,0.0,0.0,0.0,0.0,0.0,0.0,0.0,0.0,0.0,0.0,0.0,0.0,0.0,0.0,0.0,0.0,0.0,0.0,0.0,0.0,0.0,0.0,0.0,0.0,0.0,0.0,0.0,0.0,0.0,0.0,0.0,0.0,0.0,0.0,1.7326,1.7461,1.7461,1.7498,1.7511,1.7461,1.6371,1.5694,1.57,1.5101,0.0,0.0,0.0,0.0,0.0,0.0,0.0,0.0,0.0,0.0,0.0,0.0,0.0,0.0,0.0,0.0,0.0,0.0,0.0,0.0,0.0,0.0,0.0,0.0,0.0,0.0,0.0,0.0,0.0,0.0,0.0,0.0,0.0,0.0,0.0,0.0,0.0,0.0,0.0,0.0,0.0,0.0,0.0,0.0,0.0,0.0,0.0,0.0,0.0,0.0,0.0,0.0,0.0,0.0,0.0,0.0,0.0,0.0,0.0,0.0,0.0,0.0,0.0,0.0,0.0,0.0,0.0,0.0,0.0,0.0,0.0,0.0,0.0,0.0,0.0,0.0,0.0,0.0,0.0,0.0,0.0,0.0,0.0,0.0,0.0,0.0,0.0,0.0,0.0,0.0,0.0,0.0,0.0,0.0,0.0,0.0,0.0,0.0,0.0,0.0,0.0,0.0,1.7134,1.741,0.0,1.741,1.726,1.6873,1.6132,1.5581,1.5345,0.0,0.0,0.0,0.0,0.0,0.0,0.0,0.0,0.0,0.0,0.0,0.0,0.0,0.0,0.0,0.0,0.0,0.0,0.0,0.0,0.0,0.0,0.0,0.0,0.0,0.0,0.0,0.0,0.0,0.0,0.0,0.0,0.0,0.0,0.0,0.0,0.0,0.0,0.0,0.0,0.0,0.0,0.0,0.0,0.0,0.0,0.0,0.0,0.0,0.0,0.0,0.0,0.0,0.0,0.0,0.0,0.0,0.0,0.0,0.0,0.0,0.0,0.0,0.0,0.0,0.0,0.0,0.0,0.0,0.0,0.0,0.0,0.0,0.0,0.0,0.0,0.0,0.0,0.0,0.0,0.0,0.0,0.0,0.0,0.0,0.0,0.0,0.0,0.0,0.0,0.0,0.0,0.0,0.0,0.0,0.0,0.0,0.0,0.0,0.0,0.0,0.0,1.6773,1.6921,1.7036,0.0,1.687,1.6685,1.6283,1.5906,1.553,1.5129,0.0,0.0,0.0,0.0,0.0,0.0,0.0,0.0,0.0,0.0,0.0,0.0,0.0,0.0,0.0,0.0,0.0,0.0,0.0,0.0,0.0,0.0,0.0,0.0,0.0,0.0,0.0,0.0,0.0,0.0,0.0,0.0,0.0,0.0,0.0,0.0,0.0,0.0,0.0,0.0,0.0,0.0,0.0,0.0,0.0,0.0,0.0,0.0,0.0,0.0,0.0,0.0,0.0,0.0,0.0,0.0,0.0,0.0,0.0,0.0,0.0,0.0,0.0,0.0,0.0,0.0,0.0,0.0,0.0,0.0,0.0,0.0,0.0,0.0,0.0,0.0,0.0,0.0,0.0,0.0,0.0,0.0,0.0,0.0,0.0,0.0,0.0,0.0,0.0,0.0,0.0,0.0,0.0,0.0,0.0,0.0,0.0,0.0,0.0,0.0,0.0,0.0,1.7066,1.6697,1.6287,1.5756,1.5706,1.5706,1.5693,1.5693,1.553,0.0,0.0,0.0,0.0,0.0,0.0,0.0,0.0,0.0,0.0,0.0,0.0,0.0,0.0,0.0,0.0,0.0,0.0,0.0,0.0,0.0,0.0,0.0,0.0,0.0,0.0,0.0,0.0,0.0,0.0,0.0,0.0,0.0,0.0,0.0,0.0,0.0,0.0,0.0,0.0,0.0,0.0,0.0,0.0,0.0,0.0,0.0,0.0,0.0,0.0,0.0,0.0,0.0,0.0,0.0,0.0,0.0,0.0,0.0,0.0,0.0,0.0,0.0,0.0,0.0,0.0,0.0,0.0,0.0,0.0,0.0,0.0,0.0,0.0,0.0,0.0,0.0,0.0,0.0,0.0,0.0,0.0,0.0,0.0,0.0,0.0,0.0,0.0,0.0,0.0,0.0,0.0,0.0,0.0,0.0,0.0,0.0,0.0,0.0,0.0,0.0,0.0,0.0,1.6678,1.6525,1.6287,1.5756,1.6045,1.612,1.5731,1.5693,1.553,1.5129,0.0,0.0,0.0,0.0,0.0,0.0,0.0,0.0,0.0,0.0,0.0,0.0,0.0,0.0,0.0,0.0,0.0,0.0,0.0,0.0,0.0,0.0,0.0,0.0,0.0,0.0,0.0,0.0,0.0,0.0,0.0,0.0,0.0,0.0,0.0,0.0,0.0,0.0,0.0,0.0,0.0,0.0,0.0,0.0,0.0,0.0,0.0,0.0,0.0,0.0,0.0,0.0,0.0,0.0,0.0,0.0,0.0,0.0,0.0,0.0,0.0,0.0,0.0,0.0,0.0,0.0,0.0,0.0,0.0,0.0,0.0,0.0,0.0,0.0,0.0,0.0,0.0,0.0,0.0,0.0,0.0,0.0,0.0,0.0,0.0,0.0,0.0,0.0,0.0,0.0,0.0,0.0,0.0,0.0,0.0,0.0,0.0,0.0,0.0,0.0,0.0,0.0,1.6159,1.613,1.607,1.5731,1.5793,1.5819,1.5706,1.5512,1.5299,1.5098,0.0,0.0,0.0,0.0,0.0,0.0,0.0,0.0,0.0,0.0,0.0,0.0,0.0,0.0,0.0,0.0,0.0,0.0,0.0,0.0,0.0,0.0,0.0,0.0,0.0,0.0,0.0,0.0,0.0,0.0,0.0,0.0,0.0,0.0,0.0,0.0,0.0,0.0,0.0,0.0,0.0,0.0,0.0,0.0,0.0,0.0,0.0,0.0,0.0,0.0,0.0,0.0,0.0,0.0,0.0,0.0,0.0,0.0,0.0,0.0,0.0,0.0,0.0,0.0,0.0,0.0,0.0,0.0,0.0,0.0,0.0,0.0,0.0,0.0,0.0,0.0,0.0,0.0,0.0,0.0,0.0,0.0,0.0,0.0,0.0,0.0,0.0,0.0,0.0,0.0,0.0,0.0,0.0,0.0,0.0,0.0,0.0,0.0,0.0,0.0,0.0,0.0,1.5573,1.56,1.5701,1.5638,1.5236,1.5198,1.5731,1.5236,1.4972,1.5152,0.0,0.0,0.0,0.0,0.0,0.0,0.0,0.0,0.0,0.0,0.0,0.0,0.0,0.0,0.0,0.0,0.0,0.0,0.0,0.0,0.0,0.0,0.0,0.0,0.0,0.0,0.0,0.0,0.0,0.0,0.0,0.0,0.0,0.0,0.0,0.0,0.0,0.0,0.0,0.0,0.0,0.0,0.0,0.0,0.0,0.0,0.0,0.0,0.0,0.0,0.0,0.0,0.0,0.0,0.0,0.0,0.0,0.0,0.0,0.0,1.9425,0.0,0.0,0.0,0.0,0.0,0.0,0.0,0.0,0.0,0.0,0.0,0.0,0.0,0.0,0.0,0.0,0.0,0.0,0.0,0.0,0.0,0.0,0.0,0.0,0.0,0.0,0.0,0.0,0.0,0.0,0.0,0.0,0.0,0.0,0.0,0.0,0.0,0.0,0.0,0.0,0.0,1.5162,1.5524,1.5723,1.5208,1.5428,1.5792,1.6296,1.5462,1.5126,1.5685,1.4941,0.0,0.0,0.0,0.0,0.0,0.0,0.0,0.0,0.0,0.0,0.0,0.0,0.0,0.0,0.0,0.0,0.0,0.0,0.0,0.0,0.0,0.0,0.0,0.0,0.0,0.0,0.0,0.0,0.0,0.0,0.0,0.0,0.0,0.0,0.0,0.0,0.0,0.0,0.0,0.0,0.0,0.0,0.0,0.0,0.0,0.0,0.0,0.0,0.0,0.0,0.0,0.0,0.0,0.0,0.0,0.0,0.0,0.0,0.0,0.0,1.9219,0.0,0.0,0.0,0.0,0.0,0.0,0.0,0.0,0.0,0.0,0.0,0.0,0.0,0.0,0.0,0.0,0.0,0.0,0.0,0.0,0.0,0.0,0.0,0.0,0.0,0.0,0.0,0.0,0.0,0.0,0.0,0.0,0.0,0.0,0.0,0.0,0.0,0.0,0.0,0.0,1.5495,1.5717,1.5977,1.5911,1.5904,1.6112,1.6655,1.5678,1.5323,1.6001,1.5008,0.0,0.0,0.0,0.0,0.0,0.0,0.0,0.0,0.0,0.0,0.0,0.0,0.0,0.0,0.0,0.0,0.0,0.0,0.0,0.0,0.0,0.0,0.0,0.0,0.0,0.0,0.0,0.0,0.0,0.0,0.0,0.0,0.0,0.0,0.0,0.0,0.0,0.0,0.0,0.0,0.0,0.0,0.0,0.0,0.0,0.0,0.0,0.0,0.0,0.0,0.0,0.0,0.0,2.2072,2.2181,2.2125,2.2641,2.2195,2.0971,1.9564,1.894,1.8819,1.7961,0.0,0.0,0.0,0.0,0.0,0.0,0.0,0.0,0.0,0.0,0.0,0.0,0.0,0.0,0.0,0.0,0.0,0.0,0.0,0.0,0.0,0.0,0.0,0.0,1.7968,1.7787,1.8187,0.0,0.0,0.0,0.0,0.0,0.0,0.0,0.0,0.0,0.0,0.0,1.5927,1.5966,1.6257,1.6725,1.625,1.6114,1.6683,1.5697,1.5343,1.6009,1.5073,1.4799,0.0,0.0,0.0,0.0,0.0,0.0,0.0,0.0,0.0,0.0,0.0,0.0,0.0,0.0,0.0,0.0,0.0,0.0,0.0,0.0,0.0,0.0,0.0,0.0,0.0,0.0,0.0,0.0,0.0,0.0,0.0,0.0,2.267,2.2256,0.0,0.0,0.0,0.0,0.0,0.0,0.0,0.0,0.0,0.0,0.0,0.0,0.0,2.2664,2.366,2.2926,2.2586,2.263,2.2335,2.2218,2.2185,2.2278,2.2044,2.1549,2.0458,0.0,2.0377,1.902,0.0,0.0,0.0,0.0,0.0,0.0,0.0,0.0,0.0,0.0,0.0,0.0,0.0,0.0,0.0,0.0,0.0,0.0,0.0,0.0,0.0,0.0,1.7303,1.7352,1.7323,1.7303,0.0,1.7968,1.85,1.85,1.8481,0.0,0.0,0.0,0.0,0.0,0.0,0.0,1.5614,1.5984,1.6322,1.6307,1.5763,1.5601,1.6066,1.5069,1.4698,1.537,1.4842,1.4799,1.5463,1.5507,0.0,0.0,0.0,0.0,0.0,0.0,0.0,0.0,0.0,0.0,0.0,0.0,0.0,0.0,0.0,0.0,0.0,0.0,0.0,0.0,0.0,0.0,0.0,0.0,0.0,0.0,0.0,0.0,0.0,2.3122,2.2206,2.2106,2.0571,1.9823,0.0,0.0,0.0,0.0,0.0,0.0,0.0,0.0,0.0,2.3401,2.3202,2.3206,2.3501,2.3133,2.3079,2.334,2.3449,2.3652,2.3941,2.3941,2.3706,2.3239,2.2532,2.1928,2.1303,1.9219,1.8946,1.9675,0.0,0.0,0.0,0.0,1.8142,1.8384,1.8625,1.8523,1.8315,1.8536,0.0,0.0,0.0,0.0,0.0,0.0,0.0,0.0,0.0,0.0,1.7199,1.7199,1.7199,1.7199,1.7199,1.7496,1.7767,0.0,1.7767,1.7808,1.7914,0.0,0.0,0.0,0.0,1.718,1.6399,1.6628,1.6825,1.6772,1.653,1.6341,1.6229,1.5472,1.5113,1.5443,1.4973,1.4966,1.5639,1.5668,1.589,0.0,0.0,0.0,0.0,0.0,0.0,0.0,0.0,0.0,0.0,0.0,0.0,0.0,0.0,0.0,0.0,0.0,0.0,0.0,0.0,0.0,0.0,0.0,0.0,0.0,0.0,0.0,0.0,2.2585,2.1813,2.1774,2.032,1.9426,0.0,0.0,0.0,0.0,0.0,0.0,2.2821,2.3197,2.3631,2.421,2.4073,2.4075,2.4227,2.4075,2.4222,2.4627,2.4973,2.5343,2.5721,2.5721,2.5428,2.489,2.441,2.3596,2.2413,1.9843,1.9465,2.0344,1.8956,1.8578,1.8848,1.876,1.8623,1.8535,1.888,1.8717,1.8381,1.8535,1.8247,1.7895,1.84,0.0,0.0,0.0,0.0,1.8038,1.8062,1.7758,1.7434,1.7434,1.7303,1.7199,1.7199,1.7199,1.7199,0.0,1.7199,1.724,1.7344,0.0,0.0,0.0,0.0,1.7455,1.7094,1.7136,1.7199,1.7199,1.7081,1.6833,1.6428,1.584,1.5603,1.5848,1.548,1.5488,1.6009,1.6039,1.6232,1.6682,0.0,0.0,0.0,0.0,0.0,0.0,0.0,0.0,0.0,0.0,0.0,0.0,0.0,0.0,0.0,0.0,0.0,0.0,0.0,0.0,0.0,0.0,0.0,0.0,0.0,0.0,0.0,0.0,0.0,2.0652,1.9541,0.0,0.0,0.0,0.0,2.2038,2.2412,2.2997,2.4058,2.3657,2.4154,2.5849,2.5375,2.5891,2.7525,2.7067,2.6824,2.6849,2.6875,2.6879,2.6892,2.6892,2.6598,2.597,2.5454,2.4854,2.4091,2.1533,2.0548,2.0649,2.0168,2.0031,2.011,2.0097,1.9727,1.9239,1.9265,1.9171,1.8971,1.8477,1.8072,1.7916,1.8506,1.8603,0.0,0.0,1.9109,1.8677,1.8811,1.8463,1.8048,1.8048,1.7617,1.7199,1.7199,1.7199,1.7199,0.0,1.7199,1.7323,1.77,0.0,1.7199,1.77,1.7352,1.7073,1.7178,1.7199,1.7199,1.7199,1.6741,1.6428,1.6388,1.584,1.5813,1.6501,1.6526,1.6546,1.6651,1.6636,1.6398,1.5873,1.6755,0.0,0.0,0.0,0.0,0.0,0.0,0.0,0.0,0.0,0.0,0.0,0.0,0.0,0.0,0.0,0.0,0.0,0.0,0.0,0.0,0.0,0.0,0.0,0.0,0.0,0.0,0.0,0.0,2.2564,2.1725,0.0,2.2454,2.2246,2.2445,2.3392,2.3322,2.3707,2.479,2.5083,2.5653,2.6621,2.6796,2.717,2.7776,2.7276,2.7007,2.7007,2.7007,2.7007,2.6994,2.6601,2.6286,2.6056,2.5134,2.4405,2.3816,2.2921,2.2483,2.2365,2.1485,2.1283,2.1533,2.1459,2.1035,2.0569,2.0871,2.0449,1.9694,1.902,1.872,1.8653,1.88,1.8795,1.8802,1.9087,1.9002,1.8839,1.8891,1.8767,1.861,1.861,1.8453,1.8296,1.8296,1.8022,1.7774,1.7774,1.7473,1.7261,1.7393,1.7261,1.7199,1.7393,1.7261,1.7157,1.7199,1.7199,1.7199,1.7199,1.7262,1.7163,1.682,1.6831,1.6713,1.6422,1.6757,1.6741,1.6144,1.6921,1.704,1.6398,1.7556,1.8494,0.0,0.0,0.0,0.0,0.0,0.0,0.0,0.0,0.0,0.0,0.0,0.0,0.0,0.0,0.0,0.0,0.0,0.0,0.0,0.0,0.0,0.0,0.0,0.0,0.0,2.2908,2.277,2.4112,2.3471,2.3205,2.4014,2.3819,2.3922,2.465,2.4548,2.4942,2.6016,2.6342,2.6735,2.7242,2.7605,2.7902,2.8052,2.7709,2.7543,2.7543,2.7543,2.7543,2.753,2.7118,2.6707,2.6302,2.5545,2.4792,2.4089,2.4089,2.401,2.3855,2.2935,2.2578,2.2591,2.2489,2.1965,2.1307,2.1573,2.1053,2.0171,1.9655,1.9343,1.9201,1.9295,1.9206,1.9117,1.9498,1.9472,1.939,1.9551,1.9449,1.9268,1.9337,1.9134,1.8979,1.9025,1.8771,1.8508,1.8508,1.7799,1.7199,1.7199,1.7199,1.7199,1.7199,1.7199,1.7199,1.7199,1.7199,1.7199,1.7199,1.7557,1.7658,1.7305,1.7515,1.7557,1.7255,1.7488,1.7381,1.6802,1.7595,1.7712,1.7055,1.8132,1.9113,1.9938,0.0,0.0,0.0,0.0,0.0,0.0,0.0,0.0,0.0,0.0,0.0,0.0,0.0,0.0,0.0,0.0,0.0,0.0,0.0,0.0,0.0,0.0,0.0,2.4504,2.4261,2.4314,2.5007,2.4558,2.4202,2.423,2.4347,2.4823,2.5861,2.6104,2.6673,2.7754,2.7293,2.7255,2.7776,2.7835,2.8066,2.8587,2.8587,2.8587,2.8587,2.8587,2.8587,2.8587,2.8573,2.7936,2.682,2.6806,2.6115,2.5032,2.5032,2.5032,2.4948,2.4494,2.3899,2.3269,2.3269,2.251,2.1456,2.1293,2.0917,2.0459,2.0301,1.9844,1.9488,2.0057,1.983,1.9571,2.0702,2.0633,2.035,2.0875,2.0523,2.0051,2.0193,1.9671,1.9178,1.9332,1.9341,1.9328,1.9328,1.8196,1.7246,1.7246,1.7233,1.722,1.724,1.724,0.0,1.724,1.724,1.724,1.724,1.7578,1.7828,1.7828,1.7848,1.8212,1.9035,1.875,1.8578,1.8668,1.8717,1.8433,1.7788,1.8418,1.9222,2.0191,0.0,0.0,0.0,0.0,0.0,0.0,0.0,0.0,0.0,0.0,0.0,0.0,0.0,0.0,0.0,0.0,0.0,0.0,0.0,0.0,0.0,2.457,2.4969,2.4801,2.5121,2.5775,2.6823,2.6806,2.6921,2.7381,2.7084,2.6974,2.7266,2.6612,2.6687,2.7732,2.7268,2.7198,2.7789,2.8185,2.8445,2.86,2.8587,2.8587,2.8587,2.8587,2.8587,2.8587,2.8153,2.7773,2.7447,2.6982,2.6345,2.5643,2.5643,2.5385,2.4977,2.4863,2.4689,2.4502,2.4502,2.4014,2.3228,2.2322,2.2175,2.2245,2.1245,2.1113,2.1263,2.0873,2.0662,2.0609,2.0904,2.0902,2.0808,2.0968,2.0877,2.0733,2.0769,2.0625,2.0481,2.0505,2.0233,1.995,1.995,1.8924,1.807,1.807,1.7712,1.7516,1.7801,1.7847,0.0,1.7847,1.7847,1.7821,1.7787,1.8127,1.8481,1.8726,1.8997,1.9068,1.8826,1.9154,1.8954,1.8011,1.8912,1.9348,1.9151,1.9563,1.9921,0.0,0.0,0.0,0.0,0.0,0.0,0.0,0.0,0.0,0.0,0.0,0.0,0.0,0.0,0.0,0.0,0.0,0.0,0.0,0.0,0.0,0.0,2.6232,2.6932,2.72,2.7207,2.7441,2.8072,2.8524,2.8799,2.8722,2.8559,2.8495,2.8529,2.7721,2.746,2.8105,2.7803,2.7769,2.8131,2.8452,2.8597,2.86,2.8587,2.8587,2.8587,2.8587,2.8587,2.8587,2.8234,2.7949,2.7691,2.7339,2.6837,2.6267,2.5995,2.5846,0.0,0.0,0.0,0.0,0.0,2.3852,2.3269,2.2822,2.2741,2.2754,2.2206,2.2111,2.214,2.1958,2.1757,2.1609,2.1864,2.1757,2.1542,2.1542,2.1491,2.1375,2.1204,2.1302,2.1442,2.1527,2.111,2.0775,2.104,2.0288,0.0,1.9019,1.8272,1.7821,1.8066,1.8243,1.8361,1.8361,1.8361,1.8341,1.8311,1.8679,1.9016,1.9217,1.9439,0.0,0.0,0.0,1.9206,1.8551,1.9286,0.0,0.0,0.0,1.9997,2.0032,0.0,0.0,0.0,2.0795,2.1198,0.0,0.0,0.0,0.0,0.0,0.0,0.0,0.0,0.0,0.0,0.0,0.0,0.0,0.0,0.0,0.0,2.8713,2.9675,3.0608,3.003,2.934,2.9031,2.9786,2.9926,2.9006,2.9204,2.9447,2.9499,2.9013,2.8744,2.881,0.0,0.0,0.0,0.0,2.8587,2.8587,2.8587,2.8587,2.8587,2.8587,2.8587,2.8587,2.8587,2.8302,2.78,2.78,2.7474,2.6847,2.6321,2.6348,2.6576,2.552,2.4774,2.4218,2.3635,2.3066,2.2671,2.3147,0.0,0.0,2.3079,2.2876,2.2603,2.3066,2.2781,2.2414,2.2957,2.271,2.2299,2.2291,2.2255,2.2132,2.1794,2.2024,2.2393,2.2553,2.2098,2.1838,2.2371,2.1889,2.1052,2.0026,1.8997,1.8307,1.8218,1.8554,1.8817,1.8817,1.8817,1.8817,1.8798,0.0,0.0,1.946,1.946,1.9621,1.9988,1.9548,1.9424,1.9708,1.9708,1.9744,1.978,1.9744,1.9744,1.978,1.9744,1.9726,1.9782,2.068,2.1308,0.0,0.0,0.0,0.0,0.0,0.0,0.0,0.0,0.0,0.0,0.0,0.0,0.0,0.0,0.0,2.8826,3.0036,3.1048,3.2269,3.2464,3.2048,3.094,3.0108,2.9808,3.0117,2.975,2.95,2.9488,2.9441,2.9619,3.0045,2.9194,2.8893,2.9306,2.8831,2.8587,2.8587,2.8587,2.8587,2.8587,0.0,0.0,2.8587,2.8587,2.8532,2.8424,2.8424,2.8085,2.7528,2.7406,2.685,2.605,2.5805,2.5643,2.548,2.4883,2.4584,2.4435,2.4042,2.4164,2.4354,2.3486,2.3445,2.3676,2.3323,2.2781,0.0,2.2454,2.2344,2.2227,2.2283,2.2912,2.3531,2.3558,2.3967,2.4361,2.4379,2.388,2.3454,2.3583,2.2659,2.1636,2.0889,2.0183,1.9531,1.8989,1.9254,1.9512,1.9512,1.9512,1.946,1.9369,1.9424,1.9584,1.9866,1.9884,1.9919,2.0005,1.9902,1.983,1.978,1.978,1.9762,1.9726,1.9762,1.9762,1.9726,1.9762,1.9889,2.0087,2.0032,2.0189,0.0,0.0,0.0,0.0,0.0,0.0,0.0,0.0,0.0,0.0,0.0,2.5037,2.643,0.0,2.8448,3.0683,3.1717,3.2507,3.3254,3.3468,3.3045,3.1631,3.1246,3.0998,3.0771,3.0506,3.0375,3.0388,3.0138,3.0122,3.0383,2.9548,2.9221,2.9482,2.8899,2.8587,2.8587,2.8587,2.8587,2.8587,2.8587,2.8587,2.8587,2.8587,2.8587,2.8587,2.8587,2.8424,2.8153,2.8153,2.7623,2.6796,2.6796,2.6253,2.5453,2.5453,2.5073,2.4557,2.4557,2.4557,2.4489,2.4191,2.4096,2.4096,2.4096,2.3676,2.3334,2.3937,2.3587,2.3213,2.3878,2.4144,2.4273,2.4451,2.4888,2.5265,2.5345,2.4587,2.3981,2.4301,2.3509,2.251,2.1647,2.1617,2.1181,1.9627,1.9744,1.9993,1.9993,1.9993,1.9975,1.9907,1.9889,1.9975,2.0131,2.0148,2.0113,2.0061,2.0061,1.9957,1.9797,1.9797,1.978,1.9744,1.978,1.9815,1.9848,1.9815,1.9869,1.998,1.9782,1.9995,0.0,0.0,0.0,0.0,0.0,0.0,0.0,2.3777,2.4712,2.6162,2.6615,2.7309,2.9209,2.9886,3.0755,3.2553,3.3311,3.3719,3.3871,3.3808,3.324,3.1943,3.2102,3.1998,3.1153,3.104,3.115,3.1455,3.1021,3.0748,3.075,3.0066,2.9692,2.9692,2.8967,2.8587,2.8587,2.8587,2.8587,2.8587,2.8587,2.8587,2.8587,2.8587,2.8587,2.8587,2.8587,2.8651,2.8683,2.8619,2.8279,2.7812,2.7858,2.6769,2.5249,2.5846,2.5398,2.4502,2.5018,2.4788,2.434,2.4842,2.4679,2.4353,2.4856,2.4668,2.449,2.5462,2.5012,2.4465,2.5524,2.5464,2.5182,2.5349,2.5777,2.6165,2.6273,2.5285,2.4511,2.5002,2.4357,2.3407,2.2412,2.2828,2.2539,2.0245,2.0243,2.0458,2.032,2.0304,2.0304,2.0304,2.0304,2.0304,2.0304,2.0304,2.0252,2.015,2.015,2.0063,1.9869,1.9851,1.9851,1.9848,1.9851,1.9919,2.0005,1.9884,1.983,1.9797,1.9726,2.0013,2.1352,2.1773,2.2375,2.2975,2.3228,2.4147,0.0,2.7756,2.788,2.8952,2.9653,3.0307,3.1092,3.1743,3.2629,3.3978,3.4254,3.4293,3.4332,3.3854,3.326,3.2493,3.1639,3.1159,3.1251,3.0792,3.0947,3.201,3.2037,3.201,3.1992,3.092,3.031,3.031,2.9197,2.8587,2.8587,2.8587,2.8587,2.8587,2.8587,2.8587,2.8587,2.8587,2.8587,2.8587,2.8587,2.878,2.9004,2.8716,2.8425,2.8164,2.8416,2.7379,2.586,2.6484,2.628,2.5697,2.5778,2.5398,2.4924,2.4991,2.4951,2.4924,2.4991,2.4956,2.4926,2.5061,2.5268,2.5468,2.5725,2.6452,2.7108,2.719,2.7658,2.81,2.8112,2.7017,2.6084,2.6191,2.5148,2.3984,2.3289,2.3242,2.2692,2.0862,2.0929,2.0965,2.0381,2.0304,2.0304,2.0304,2.0304,2.0304,2.0304,2.0304,2.0287,2.0287,2.0287,2.0202,2.0065,2.0065,2.0045,1.9988,2.0028,2.0045,2.0005,1.9988,1.9919,1.9797,1.9726,1.9729,2.2205,2.2776,2.3419,2.4116,2.538,2.6875,2.8373,2.9143,2.9871,3.1047,3.1816,3.2486,3.3093,3.3427,3.3757,3.4327,3.4414,3.4414,3.4414,3.3543,3.2478,3.1245,3.0715,3.062,3.1076,3.0521,3.0473,3.1384,3.1754,3.1889,3.1702,3.1389,3.0952,3.0418,2.9564,2.894,2.8587,2.8587,2.8763,2.9135,2.8763,2.8967,2.9645,2.9265,2.9234,2.9416,2.9027,2.9067,2.9383,2.9226,2.9118,2.8993,2.8726,2.8374,2.803,2.7734,2.6779,2.571,2.6068,2.5794,2.5257,2.5061,2.5005,2.5005,2.5005,2.5232,2.5593,2.5909,2.6048,2.6312,2.7124,2.7348,2.7518,2.7905,2.821,2.8411,2.8411,2.7642,2.6949,2.698,2.5857,2.4773,2.4518,2.4148,2.3488,2.238,2.2022,2.1781,2.1504,2.1119,2.0718,2.035,2.0304,2.0304,2.0304,2.0304,2.0304,2.0304,2.0304,2.0252,2.01,2.01,2.0063,2.0005,2.0063,2.0098,2.0063,2.0063,2.0008,1.9902,1.9797,1.9744,2.2607,2.3528,2.4617,2.5458,2.7447,2.9334,2.9653,3.0451,3.1424,3.2556,3.2861,3.3064,3.3529,3.347,3.347,3.3833,3.3891,3.3949,3.4124,3.2904,3.1476,3.0135,2.9344,2.9214,3.0017,3.0091,3.0242,3.0718,3.1501,3.1771,3.1357,3.1723,3.1495,3.0479,3.0164,2.9759,2.9109,2.932,2.9621,3.0047,2.9608,2.9868,3.0685,3.0041,2.9835,2.9864,2.942,2.9415,2.9741,2.9634,2.9634,2.967,2.89,2.8799,2.8996,2.841,2.7317,2.6189,2.6605,2.6201,2.5467,2.5229,2.5075,2.5033,2.5202,2.566,2.6244,2.6771,2.6971,2.724,2.8161,2.8042,2.775,2.8057,2.8273,2.835,2.8165,2.7734,2.7396,2.7396,2.6272,2.5296,2.5296,2.4727,2.4148,2.3656,2.3163,2.2736,2.2351,2.1889,2.1319,2.0641,2.0582,2.0505,2.032,2.0304,2.0304,2.0304,2.0304,2.027,2.0168,2.0168,2.0225,2.0368,2.0408,2.0518,2.0702,2.0485,2.0355,2.0299,2.001,1.9797,2.2301,2.3912,2.6025,2.7289,2.9087,3.0874,3.2121,3.2394,3.2643,3.3344,3.244,3.1553,3.1567,3.1105,3.1105,3.2367,3.2539,3.2788,3.3445,3.1876,3.0393,2.9711,2.742,2.6405,2.7668,2.9416,3.0465,3.0415,3.1567,3.2022,3.1433,3.2033,3.1794,3.0535,3.112,3.1106,3.0445,3.111,3.1434,3.1448,3.1434,3.1434,3.1448,3.0769,3.0164,2.9599,2.9585,2.9772,3.005,2.9741,2.9803,2.9993,2.8991,2.8252,2.7776,2.8096,2.7952,2.7648,2.7663,2.6691,2.5494,2.5494,2.5257,2.5118,2.5702,2.6244,2.6782,2.7323,2.7894,2.8356,2.8396,2.8381,2.8211,2.758,2.7934,2.8227,2.7565,2.7411,2.7396,2.7396,2.6272,2.5296,2.5296,2.4727,2.4302,2.4271,2.4256,2.3779,2.2474,2.227,2.2012,2.1334,2.1273,2.1011,2.0366,2.0304,2.0304,2.0304,2.0304,2.0304,2.0287,2.0287,2.0595,2.1257,2.1257,2.1581,2.2224,2.1436,2.106,2.1045,2.033,1.9919,2.482,2.6733,2.8637,2.99,3.1061,3.2092,3.2948,3.2817,3.2454,3.2222,3.1132,3.0103,2.9711,2.9116,2.9102,3.0364,3.1277,3.206,3.2745,3.2266,3.1148,2.9232,2.8999,2.8317,2.6605,2.7224,0.0,2.944,3.035,3.0991,3.1382,3.2268,3.2443,3.1785,3.1968,3.1785,3.1185,3.1396,3.1706,3.2081,3.2489,3.2264,3.1429,3.1218,3.0894,3.0523,3.0111,3.0127,3.0431,3.0296,3.0341,3.033,2.9145,2.8799,2.8871,2.8123,2.7958,2.8066,2.7888,2.723,2.6404,2.6231,2.6283,2.6388,2.6324,2.6811,2.7388,2.7565,2.7984,2.8411,2.8411,2.8411,2.8374,2.8223,2.8299,2.8398,2.8333,2.8248,2.8224,2.831,2.7557,2.6743,2.6315,2.5598,2.4931,2.4379,2.4302,2.3979,2.3071,2.2963,2.2701,2.2043,2.1966,2.1874,2.1658,2.1627,2.1627,2.1627,2.1627,2.1627,2.1627,2.1627,2.1735,2.1966,2.1966,2.2074,2.2305,2.2036,2.1627,2.1091,2.0843,2.0436,2.7278,2.8883,3.0437,3.2396,3.2875,3.3021,3.3659,3.26,3.1263,3.064,2.9102,2.7695,2.7111,2.6445,2.6477,2.8013,2.9131,3.0292,3.1642,3.1438,3.0785,2.9813,2.961,2.8927,2.7316,2.7169,2.7651,2.8871,3.0192,3.1103,3.1436,3.272,3.314,3.2464,3.2876,3.2839,3.2212,3.2426,3.2625,3.281,3.3175,3.2672,3.1432,3.1432,3.1219,3.0838,3.0467,3.0401,3.0598,3.0598,3.0687,3.0705,2.9431,2.9139,2.9344,2.8071,2.7774,2.7984,2.8036,2.7641,2.7082,2.6901,2.6964,2.7104,2.703,2.7363,2.783,2.8018,2.8308,2.8556,2.8556,2.8556,2.8518,2.831,2.8403,2.8503,2.842,2.856,2.8684,2.8771,2.8202,2.7578,2.7125,2.6427,2.5678,2.4911,2.4755,2.4488,2.3748,2.3656,2.3394,2.2717,2.2655,2.2548,2.2317,2.2305,2.2305,2.2305,2.2305,2.2305,2.2305,2.2305,2.2394,2.264,2.2655,2.2778,2.3009,2.2763,2.2405,2.1884,2.1639,2.1124,2.9462,3.0395,3.1629,3.4637,3.4433,3.3634,3.4109,3.1787,2.9291,2.8651,2.646,2.4476,2.3862,2.3258,2.3505,2.5473,2.6457,2.7837,3.0351,2.9726,2.961,3.1308,2.9421,2.842,2.9537,2.9189,2.8898,2.8854,0.0,3.2162,3.1642,3.3369,3.3819,3.2611,3.379,3.4124,3.3547,3.4109,3.4109,3.3547,3.3547,3.2832,3.1538,3.1538,3.1206,3.0598,3.0598,3.0598,3.0598,3.0598,3.0851,3.1099,2.9809,2.9302,2.9121,2.7873,2.7437,2.7527,2.8107,2.7976,2.7565,2.7565,2.7384,2.7308,2.7775,2.7923,2.8061,2.8645,2.8794,2.8794,2.8794,2.8794,2.8623,2.7937,2.8295,2.8607,2.7921,2.8311,2.8818,2.8818,2.8225,2.7718,2.7703,2.7172,2.6523,2.5826,2.5611,2.5273,2.4415,2.4302,2.4071,2.3425,2.3348,2.3086,2.2455,2.2413,2.2413,2.2413,2.2413,2.2413,2.2413,2.2413,2.2686,2.3332,2.3348,2.3656,2.4302,2.3625,2.3302,2.3286,2.2609,2.1876,3.1442,3.3314,3.4936,3.5319,3.4433,3.3202,3.1984,2.9886,2.7752,2.6258,2.4214,2.2512,2.1859,2.2004,2.302,2.5425,2.7549,2.9624,3.1729,3.2556,3.26,3.1642,3.1816,3.16,3.0437,3.1061,3.1322,0.0,3.0959,3.1627,3.2904,3.3474,3.3775,3.392,3.424,3.4341,3.4167,3.4327,3.4327,3.4167,3.4167,3.3499,3.2234,3.2234,3.1642,3.0598,3.0598,3.0598,3.0598,3.0598,3.0543,3.0403,2.9616,2.9182,2.8917,2.8097,2.7953,2.8229,2.8397,2.836,2.8247,2.8247,2.8391,2.8559,2.8391,2.8487,2.8677,2.8826,2.8834,2.8794,2.8794,2.8794,2.8771,2.863,2.8709,2.8779,2.8739,2.881,2.8912,2.8998,2.8478,2.7967,2.7861,2.7713,2.7152,2.5889,2.6096,2.5923,2.4632,2.4359,2.4241,2.4071,2.4056,2.3979,2.381,2.3794,2.3794,2.3794,2.3794,2.3794,2.3794,2.3794,2.3871,2.404,2.4056,2.4133,2.4302,2.3625,2.3302,2.3286,2.2609,2.2194,3.4482,3.5687,3.6629,3.6833,3.5078,3.2869,3.1232,2.8671,2.6075,2.4203,2.2469,2.1088,2.0371,2.0793,2.1844,2.3813,2.6271,2.8681,3.0915,3.2307,3.305,3.2785,3.3195,3.3067,3.1978,3.2498,3.2774,3.2411,3.208,3.2356,3.3445,3.3765,3.4051,3.4399,3.4414,3.4414,3.4414,3.4414,3.4283,3.3993,3.3717,3.305,3.2046,3.1787,3.1264,3.0598,0.0,3.0598,3.0612,3.0807,3.0761,3.0475,3.035,2.9863,2.92,2.9117,2.8827,2.8558,2.8883,2.8886,2.8764,2.8764,2.914,2.9485,2.892,2.8873,2.899,2.899,2.8959,2.8944,2.8944,2.8944,2.8928,2.8982,2.8975,2.8967,2.9091,2.9052,2.9013,2.9075,2.8798,2.8514,2.8446,2.8423,2.7944,2.6518,2.6585,2.6285,2.4812,2.4523,2.4405,2.438,2.438,2.4359,2.4302,2.4359,2.438,2.438,2.438,2.438,2.438,2.4338,2.4302,2.4302,2.4302,2.4302,2.4302,2.3933,2.3748,2.3733,2.3348,2.3025,3.7438,3.7535,3.7388,3.8296,3.5745,3.2606,3.1014,2.7689,2.4393,2.2451,2.1108,2.0057,1.9423,1.9869,2.081,2.2178,2.4379,2.6893,2.9595,3.0929,3.2307,3.4196,3.3935,3.3634,3.3634,3.3634,3.3634,3.3634,3.3634,3.3634,3.3634,3.4124,3.4414,3.4414,3.4414,3.4414,3.4414,3.4414,3.4138,3.362,3.3035,3.235,3.1596,3.109,3.0772,3.0598,3.0598,3.0598,3.0642,3.1102,3.1134,3.0949,3.1424,3.0877,2.9856,3.0363,2.9772,2.8816,2.9452,2.9484,2.9225,2.913,2.9525,2.9943,2.9398,2.924,2.924,2.924,2.924,2.9225,2.913,2.9098,2.9098,2.9098,2.9098,2.913,2.9225,2.9319,2.9382,2.9382,2.9304,2.924,2.924,2.9161,2.8672,2.7431,2.7123,2.6586,2.5262,2.4795,2.4569,2.4518,2.4518,2.4477,2.4343,2.4441,2.4518,2.4518,2.4518,2.4518,2.4518,2.44,2.4338,2.4338,2.4302,2.4302,2.4302,2.421,2.421,2.4302,2.421,2.3902,3.752,3.8199,3.8251,3.7441,3.5097,3.2268,2.9402,2.611,2.3083,2.1208,2.0144,1.9527,1.9406,2.0333,2.1844,2.4104,2.5729,2.7963,3.1496,3.2176,3.2829,3.424,3.4312,3.424,3.424,3.424,3.424,0.0,3.424,3.424,3.424,3.4356,3.4414,3.4414,3.4414,3.4414,3.4414,3.4414,3.4356,3.424,3.4138,3.347,3.2307,3.2237,3.1598,3.0598,3.0598,0.0,3.0642,3.1102,3.1134,3.0949,3.1424,3.1311,3.0887,3.0415,3.0124,2.9935,3.0037,3.0053,2.9896,2.9304,2.9193,2.9367,2.9864,3.0006,3.0006,3.0006,3.0006,2.9864,2.9256,2.9098,2.9098,2.9098,2.9098,2.9272,2.9864,3.0449,3.0835,3.0835,3.0385,3.0006,3.0006,2.9493,2.883,2.8031,2.7921,2.7598,2.6788,2.5467,2.4589,2.4569,2.4569,2.4569,2.4549,2.4569,2.4569,2.4569,2.4569,2.4569,2.4569,2.4503,2.4477,2.4477,2.4359,2.4302,2.4302,2.3748,2.3763,2.4302,2.3733,2.3717,3.8338,3.8882,3.8867,3.7901,3.4931,3.1471,2.8595,2.5101,2.1995,2.0422,1.9789,1.956,1.952,2.0266,2.1359,2.2842,2.4447,2.6605,2.9768,3.0993,3.2169,3.3849,3.4244,3.4414,3.4414,3.4414,3.4414,3.4414,3.4414,3.4414,3.4414,3.4414,3.4414,3.4414,3.4414,3.4414,3.4414,3.4414,3.4414,3.4399,3.3746,3.3075,3.2466,3.1816,3.1163,3.0598,3.0598,3.0747,3.0984,3.1437,3.1473,3.1347,3.2173,3.196,3.1255,3.1665,3.1349,3.078,3.1169,3.1042,3.0654,3.0298,3.0188,3.0251,3.0622,3.0717,3.0638,3.0315,3.0204,3.0046,2.9288,2.9367,2.9674,2.9674,2.9935,3.0282,3.0638,3.0986,3.1198,3.1198,3.0654,3.0204,3.0204,2.9595,2.8861,2.8189,2.8094,2.7857,2.7194,2.6393,2.5743,2.5326,2.4925,2.4686,2.4609,2.4666,2.4862,2.5243,2.4909,2.5034,2.5775,2.5015,2.4735,2.5113,2.4673,2.4467,2.4467,2.4141,2.4116,2.44,2.406,2.4071,3.8796,3.92,3.9005,3.8182,3.4517,3.0447,2.7959,2.4335,2.1141,1.9947,1.9708,1.969,1.9629,2.0009,2.0546,2.1232,2.262,2.4637,2.7468,2.9271,3.1082,3.3235,3.4035,3.4414,3.4414,3.4414,3.4414,3.4448,3.4481,3.4481,3.4414,3.4414,3.4414,3.4448,3.4414,3.4414,3.4448,3.4283,3.4211,3.4196,3.3064,3.2408,3.2234,3.1311,3.0773,3.0642,3.0702,3.091,3.1292,3.1823,3.1965,3.1916,3.3045,3.2758,3.1851,3.2827,3.2479,3.1607,3.2162,3.1958,3.1427,3.1729,3.1535,3.1214,3.1397,3.1334,3.1128,3.0757,3.0552,3.0275,2.9698,2.999,3.0401,3.0401,3.0939,3.1444,3.1444,3.1555,3.1665,3.1665,3.1097,3.0599,3.0457,2.9817,2.9082,2.8426,2.8316,2.8126,2.7604,2.7399,2.7077,2.6424,2.5727,2.5241,2.5144,2.5221,2.5534,2.6125,2.5617,2.5785,2.6907,2.5743,2.5311,2.5722,2.515,2.4765,2.4609,2.4609,2.4569,2.4518,2.4498,2.4436,3.7973,3.8482,3.8197,3.6971,3.3185,2.922,2.7156,2.3625,2.0569,1.9857,1.9708,1.9708,1.969,1.9735,2.0161,2.1292,2.1628,2.3016,2.6674,2.823,2.9915,3.2487,3.3758,3.4414,3.4414,3.4414,3.4481,3.4664,3.4783,3.4735,3.4414,3.4414,3.4481,3.4664,3.4481,3.4481,3.4664,3.3947,3.359,3.3576,3.2846,3.2162,3.1598,3.1651,3.1347,3.0791,3.0984,3.1087,0.0,3.2132,3.2528,3.2617,3.362,3.3793,3.3412,3.2942,3.267,3.2574,3.2638,3.2337,3.2126,3.3411,3.2638,3.1334,3.2007,3.1729,3.1334,3.1943,3.1618,3.1088,3.1009,3.1065,3.1103,3.1103,3.1665,3.2196,3.2196,3.2677,3.3119,3.3119,3.2576,3.1896,3.1223,3.0543,2.9848,2.9114,2.9019,2.8988,2.8925,2.8395,2.7984,2.7905,2.7283,2.6888,2.6867,2.6888,2.6919,2.6983,2.6919,2.6951,2.7077,2.6828,2.6439,2.5895,2.5696,2.5269,2.4609,2.4609,2.4589,2.4589,2.4539,2.4498,3.5537,3.6896,3.7389,3.5699,3.2283,2.8773,2.6758,2.3437,2.0613,2.0111,1.9997,1.9945,1.9744,1.9708,1.9869,2.0337,2.0426,2.1362,2.4082,2.5431,2.7421,3.0837,3.2276,3.3428,3.4599,3.4702,3.4735,3.4817,3.4868,3.4835,3.4702,3.4702,3.4559,3.4277,3.4196,3.4006,3.3689,3.3756,3.3592,3.3211,3.3343,3.2828,3.1803,3.188,3.1572,3.0984,3.1087,3.1438,0.0,3.2422,3.2964,3.3533,3.3933,3.4025,3.3917,3.3627,3.353,3.353,3.353,3.3411,3.3364,3.3922,3.3272,3.2399,3.2969,3.2821,3.244,3.2339,3.2102,3.176,3.1334,3.1523,3.195,3.2376,3.2692,3.2882,3.2882,3.3103,3.3309,3.3309,3.2766,3.2212,3.1912,3.127,3.0575,2.9864,2.9753,2.9611,2.9161,2.8861,2.8688,2.8688,2.7747,2.7099,2.7099,2.7099,2.7273,2.7668,2.732,2.7462,2.8261,2.7482,2.7082,2.7229,2.633,2.5743,2.5439,2.5051,2.4806,2.4726,2.4701,2.4641,3.3213,3.4953,3.5827,3.4213,3.1129,2.8053,2.6214,2.3239,2.0795,2.0497,2.0362,2.0243,2.0085,1.9871,1.9762,1.9836,1.9764,2.0412,2.2418,2.3688,2.571,2.929,3.0718,3.2192,3.4136,3.4747,3.5001,3.5001,3.5034,3.5082,3.5082,3.4889,3.4564,3.4073,3.4026,3.3684,3.3066,3.3301,3.3166,3.2693,3.2989,3.2635,3.1735,3.1781,3.1575,3.1161,3.138,3.1894,0.0,3.2884,3.3455,3.4126,3.4275,3.43,3.4226,3.4226,3.4226,3.4226,3.4226,3.4275,3.4325,3.4325,3.3917,3.351,3.3855,3.3457,3.2908,3.2736,3.272,3.2609,3.2176,3.244,3.295,3.3401,3.3477,3.3424,3.3424,3.3424,3.3398,3.3335,3.2976,3.2631,3.2364,3.1855,3.1286,3.0591,3.033,3.0006,2.9501,2.9225,2.9052,2.8959,2.8178,2.7699,2.7699,2.7573,2.7778,2.8363,2.7713,2.7863,2.9044,2.8093,2.7621,2.7794,2.683,2.6119,2.5693,2.5223,2.4946,2.4862,2.4722,2.4544,3.1337,3.2668,3.3215,3.2332,2.9642,2.685,2.5433,2.2986,2.1007,2.0991,2.0715,2.0581,2.0845,2.0275,1.9887,2.0139,1.9925,2.0412,2.2418,2.3688,2.5384,2.8017,2.9332,3.0793,3.2842,3.4327,3.518,3.518,3.5359,0.0,3.5504,3.4861,3.4409,3.4188,3.4058,3.3748,3.3192,3.2431,3.203,3.2015,3.1412,3.1132,3.1117,3.1249,3.1292,3.1336,3.2064,3.2398,0.0,3.3626,3.4101,3.4151,3.4691,3.4732,3.4497,3.4497,3.4497,3.4497,3.4497,3.4667,3.4899,3.4899,3.4715,3.4497,3.4497,3.3323,3.2248,3.3386,3.3694,3.3745,3.4009,3.4084,3.4084,3.4101,3.3873,3.371,3.371,3.371,3.3633,3.3346,3.3513,3.3393,3.2453,3.2291,3.2038,3.1302,3.0622,3.0204,3.0188,2.9564,2.8959,2.8535,2.8834,2.9082,2.9082,2.8701,2.8654,2.9059,2.8352,2.8255,2.9075,2.8701,2.8054,2.7125,2.7099,2.6388,2.5001,2.5005,2.5005,2.4985,2.4508,2.4073,2.8079,2.939,3.0038,2.8825,2.7275,2.5673,2.4313,2.2802,2.1628,2.1385,2.126,2.115,2.0991,2.078,2.0631,2.0664,2.075,2.099,2.1588,2.3327,2.5521,2.82,3.1603,3.4016,0.0,0.0,3.5407,3.5407,3.5472,3.5504,3.5504,3.4846,3.4262,3.3752,3.3242,3.2661,3.2035,3.2244,3.2109,3.1678,3.2392,3.2258,3.138,3.1871,3.187,3.1438,3.1682,3.2216,3.296,3.3345,3.3951,3.4667,3.4828,3.4851,3.4763,3.4763,3.4763,3.4763,3.4763,3.4828,3.4899,3.4899,3.4504,3.4119,3.4615,3.4137,3.3509,3.3871,3.3975,3.4,3.4075,3.4101,3.4101,3.4101,3.4025,3.3975,3.3975,3.3975,3.3949,3.3848,3.3924,3.3885,3.3584,3.3526,3.331,3.2586,3.1895,3.1197,3.0559,2.9826,2.9243,2.8943,2.8779,2.8693,2.8693,2.8826,2.8943,2.9075,2.885,2.8826,2.9075,2.8982,2.845,2.7467,2.696,2.6128,2.4995,2.4533,2.4317,2.4302,2.4156,2.4024,2.5575,2.6816,2.7513,2.6595,2.5733,2.484,2.372,2.2763,2.2044,2.184,2.1706,2.1569,2.1462,2.1229,2.1055,2.1119,2.1265,2.143,2.1599,2.3379,2.5743,2.8622,3.2392,3.4756,0.0,3.5205,3.5504,3.5504,3.5504,3.5504,3.5504,3.4622,3.3918,3.3499,3.2856,3.2168,3.1511,3.1914,3.1914,3.1511,3.2333,3.2303,3.1511,3.1929,3.1884,3.1496,3.1754,3.2367,0.0,3.3449,3.4077,3.4899,3.4899,3.4899,3.4899,3.4899,3.4899,3.4899,3.4899,3.4899,3.4899,3.4899,3.4584,3.4286,3.475,3.4594,3.4275,3.4374,3.4325,3.4275,3.4374,3.4399,3.4399,3.4399,3.4325,3.425,3.425,3.425,3.4226,3.4126,3.4176,3.4226,3.4126,3.4101,3.3955,3.3526,3.2878,3.2199,3.1604,3.0663,2.99,2.9601,2.9155,2.8772,2.8511,2.8583,2.8779,2.9075,2.8826,2.8716,2.8873,2.8716,2.8225,2.7357,2.6657,2.5984,2.5348,2.4659,2.4396,2.4528,2.4272,2.4064,0.0,2.4846,2.5518,2.533,2.4801,2.4169,2.3477,2.2801,0.0,2.2296,2.2049,2.1917,2.2221,2.1727,2.1356,2.1655,2.1741,2.1947,2.2418,2.4076,2.6348,2.9382,3.2077,3.3604,3.3499,3.4711,3.5489,3.5429,3.5429,3.5415,3.537,3.4128,3.3425,3.3425,3.2781,3.2123,3.1511,3.1511,3.1511,3.1511,3.1511,3.1524,3.1553,3.1524,3.1524,0.0,3.2148,3.2695,3.3251,3.3841,3.4423,3.4899,3.4899,3.4899,3.4899,3.4899,3.4899,3.4899,3.4899,3.4899,3.4899,3.4899,3.4899,3.4899,3.4899,3.4732,3.457,3.4828,3.4715,3.4594,3.4851,3.4899,3.4899,3.4899,3.4707,3.4521,3.4521,3.4521,3.4448,3.4201,3.4349,3.4448,3.4201,3.4151,3.4151,3.4151,3.3583,3.3129,3.3129,3.1888,3.0819,3.0329,2.9834,2.9245,2.855,2.8158,2.8271,2.8982,2.8343,2.8085,2.8439,2.811,2.757,2.6877,2.6235,2.5879,2.5817,2.5198,2.507,2.5349,2.4718,2.4252,2.2688,0.0,2.3111,2.3066,2.2924,2.2784,0.0,2.2415,2.2296,2.2296,2.224,2.2363,2.3009,2.2975,2.3053,2.3622,2.4104,2.4411,2.4439,2.7241,2.9786,3.1138,3.3486,3.4637,3.3589,3.4711,3.5295,3.4756,3.4758,3.4502,3.3993,3.3185,3.2751,3.2751,3.2079,3.166,3.1511,3.1511,3.1511,3.1511,3.1511,3.1754,3.2176,3.1726,3.1739,3.2203,3.2342,3.2695,3.3251,3.3841,3.4423,3.4899,3.4899,3.4899,3.4899,3.4899,3.4899,3.4899,3.4899,3.4899,3.4899,3.4899,3.4899,3.4899,3.4899,3.4851,3.4828,3.4875,3.4851,3.4828,3.4899,3.4899,3.4899,3.4899,3.4851,3.4804,3.4804,3.4804,3.4804,3.4715,3.4763,3.4804,3.4715,3.4715,3.4715,3.4715,3.4105,3.358,3.3432,3.2616,3.1579,3.0354,2.9831,2.9245,2.8499,2.8486,2.8494,2.8429,2.8244,2.8091,2.8036,2.7947,2.7448,2.6538,2.5569,2.5062,2.5062,2.4945,2.4936,2.5009,2.481,2.4704,2.2349,2.2324,2.2296,2.2296,2.2296,2.2296,2.2296,2.2296,2.2296,2.2296,2.2296,2.253,2.3257,2.3122,2.3344,2.4733,2.4903,2.5217,2.6359,2.8471,3.0419,3.1732,3.3321,3.4118,0.0,3.4236,3.449,3.4084,3.4054,3.3873,3.3514,3.2631,3.2257,3.2497,3.1357,3.0954,3.1496,3.1511,3.1511,3.1511,3.1783,3.2064,3.2398,3.2064,3.2092,3.2398,3.2398,3.2695,3.3251,3.3841,3.4423,3.4899,3.4899,3.4899,3.4899,3.4899,3.4947,3.4994,3.4994,3.5018,3.5065,3.5018,3.4994,3.4994,3.4994,3.4994,3.497,3.4923,3.4899,3.4899,3.4899,3.4899,3.4899,3.4899,3.4899,3.4899,3.4899,3.4899,3.4998,3.5346,3.5396,3.5396,3.5396,3.5396,3.5297,3.4949,3.4551,3.4279,3.4162,3.3512,3.2649,3.159,3.0878,3.0016,2.8929,2.8842,2.8679,2.8314,2.8299,2.8122,2.778,2.7755,2.7255,2.6144,2.585,2.5575,2.5245,2.5299,2.5458,2.5749,2.5429,2.5284,2.2432,2.2363,2.2324,2.231,2.2296,2.2296,2.2296,2.2296,2.2296,2.2296,2.2381,2.2651,2.3274,2.2987,2.3325,2.5439,2.5399,2.5966,2.8356,2.9164,3.008,3.1675,3.2575,0.0,3.3412,3.3623,3.3638,3.3441,3.3411,3.3396,3.3291,3.2193,3.1802,3.2257,3.0674,3.0283,3.1254,3.1269,3.133,3.1582,3.2069,3.2384,3.2574,3.2492,3.2431,3.242,0.0,0.0,3.3144,3.3919,3.4521,3.497,3.497,3.497,3.497,3.497,3.5018,3.5111,3.5111,3.5198,3.5268,3.5175,3.5111,3.5111,3.5111,3.5111,3.5105,3.4994,3.503,3.5089,3.5065,3.5065,3.5065,3.5065,3.4982,3.4932,3.5032,3.4982,3.5148,3.6009,3.6075,3.6009,3.6009,3.6009,3.5744,3.5015,3.4899,3.4899,3.4899,3.4266,3.3601,3.2943,3.2046,3.0872,2.9311,2.9042,2.8743,2.8321,2.825,2.8039,2.7575,2.7549,2.7054,2.6014,2.6541,2.6556,2.5988,2.5963,2.6253,2.6806,2.6224,2.5937,2.2501,2.2474,2.2432,2.2338,2.2296,2.2296,2.2296,2.2296,2.2296,2.2296,2.2801,2.3274,2.3376,2.3831,2.4677,2.6268,2.7855,2.9332,3.0727,3.1374,3.1616,3.1353,0.0,3.3363,3.2362,3.3228,3.3652,3.3122,3.3076,3.2834,3.2273,3.1516,3.1137,3.1243,3.041,3.0046,3.0231,3.0111,3.0697,3.1925,3.1905,3.2437,3.3391,3.2949,3.2593,3.2422,0.0,3.297,3.265,3.4267,3.5065,3.5245,3.5245,3.5245,3.5245,3.5245,3.5245,3.5268,3.5268,3.5268,3.5308,3.5268,3.5268,3.5268,3.5268,3.5268,3.5268,3.5245,3.5602,3.5965,3.5851,3.5827,3.5827,3.5827,3.5346,3.5065,3.5694,3.5346,3.5297,3.6671,3.6439,3.6009,3.6009,3.6009,3.5744,3.5015,3.4899,3.4899,3.4899,3.4399,3.3605,3.2437,3.1784,3.0694,2.8865,2.867,2.8385,2.7771,2.7615,2.7478,2.7269,2.7244,2.7174,2.6983,2.6971,2.6933,2.6831,2.6686,2.6704,2.6806,2.6678,2.666,2.2751,2.2659,2.2542,2.2432,2.2405,2.2405,2.2405,2.2405,2.2524,2.2915,2.2937,2.3095,2.3907,2.3506,2.3732,2.587,2.8292,3.0149,3.0778,3.1071,3.1259,0.0,0.0,3.2422,3.2153,3.2307,3.2294,3.1936,3.1571,3.1238,3.0934,3.0346,3.0164,3.0448,2.954,2.9393,3.011,2.9331,2.9598,3.0919,3.141,3.1926,3.2478,3.2478,3.24,3.2305,0.0,3.2571,3.2377,3.3495,3.4252,3.4722,3.4722,3.4956,3.5314,3.5377,3.5423,3.5406,3.5435,3.5458,3.5458,3.5406,3.5423,3.5423,3.5423,3.5423,3.5423,3.5423,3.5566,3.5776,3.6056,3.5856,3.578,3.6431,3.6148,3.5895,3.6571,3.643,3.6513,3.7594,3.7468,3.7069,3.6671,3.6605,3.6208,3.5065,3.4899,3.4899,3.4899,3.4423,3.3754,3.2833,3.2255,3.1182,2.9289,2.9131,2.8708,2.766,2.7463,2.7376,2.731,2.7233,2.7207,2.7207,2.713,2.7067,2.7003,2.6951,2.6873,2.6806,2.6806,2.6806,2.2982,2.2829,2.2605,2.2569,2.2511,2.2552,2.2723,2.2757,2.2962,2.3727,2.3531,2.3505,2.4458,2.3785,2.3703,2.564,2.8404,3.0387,3.0603,3.0617,3.0889,3.1536,3.1351,3.1401,3.1968,3.1404,3.0968,3.0875,3.0377,3.0011,2.9859,2.9485,2.9363,2.9626,2.8736,2.874,2.9766,2.8756,2.8874,3.0099,3.0946,3.143,3.1614,3.2078,3.2187,3.2017,3.2197,3.2164,3.2062,3.2751,3.3544,3.427,3.427,3.4706,3.5383,3.5492,3.552,3.552,3.5577,3.56,3.5577,3.5543,3.552,3.552,3.552,3.552,3.552,3.552,3.5587,3.5773,3.6367,3.6157,3.6081,3.7178,3.7036,3.6831,3.7486,3.7478,3.7603,3.8494,3.8441,3.7989,3.7235,3.7102,3.6605,3.5114,3.4899,3.4899,3.4899,3.4423,3.3866,3.3277,3.2722,3.1641,2.9766,2.9472,2.8873,2.766,2.7499,2.7437,2.7437,2.7361,2.7295,2.7295,2.7258,2.7196,2.7107,2.7029,2.6951,2.6846,2.6806,2.6806,2.3095,2.2906,2.2685,2.2685,2.2579,2.2672,2.3355,2.3508,2.3745,2.4545,2.5212,2.5468,2.4887,2.595,2.6788,2.6409,2.8987,3.1109,3.1292,0.0,3.1567,3.2244,3.1243,3.0725,3.1397,3.0848,3.0437,3.0437,3.0406,3.0099,2.9469,2.9417,2.9125,2.8517,2.8433,2.8418,2.8526,2.8418,2.9048,3.0386,3.0744,3.1274,3.1898,3.2354,3.2155,3.1501,3.2126,3.2027,3.1561,3.2725,3.37,3.4484,3.4484,3.494,3.5577,3.5577,3.56,3.56,3.56,3.56,3.56,3.56,3.56,3.56,3.56,3.56,3.56,3.56,3.6124,3.6804,3.7289,3.7367,3.7534,3.8313,3.7953,3.7601,3.8355,3.797,3.7853,3.9161,3.8852,3.8101,3.726,3.7102,3.6605,3.5114,3.4899,3.4899,3.4899,3.4423,3.3866,3.3277,3.2722,3.1641,2.9766,2.9026,2.8353,2.7645,2.76,2.76,2.76,2.7575,2.7575,2.7575,2.7437,2.7376,2.7376,2.7133,2.7003,2.6977,2.6873,2.6806,2.3242,2.301,2.2699,2.2699,2.2659,2.2825,2.3563,2.3718,2.3958,2.4763,2.5111,2.5048,2.4258,2.5272,2.6311,2.6555,2.8614,3.0351,3.083,3.0834,3.0874,3.1136,3.0709,3.0494,3.0766,3.0156,2.9602,2.9196,2.8781,2.8242,2.7565,2.7534,2.7411,2.7149,2.7149,2.7349,2.7765,2.778,2.8394,2.9609,3.0012,3.035,3.0609,3.1385,3.1549,3.1297,3.1541,3.1508,3.1297,3.178,3.2418,3.3224,3.4134,3.4962,3.56,3.56,3.56,3.56,3.56,3.56,3.56,3.56,3.56,3.56,3.56,3.56,3.56,3.56,3.5802,3.6185,3.674,3.6966,3.7333,3.8371,3.8161,3.8057,3.9177,3.9185,3.9126,3.9551,3.9408,3.8762,3.7326,3.7178,3.6688,3.5138,3.4899,3.4899,3.4899,3.4423,3.4009,3.379,3.2562,3.1182,2.9735,2.8981,2.8308,2.7645,2.76,2.76,2.76,2.76,2.76,2.76,2.7549,2.7488,2.7401,2.7299,2.7196,2.7119,2.6989,2.6925,2.3375,2.3061,2.2699,2.2699,2.2888,2.3319,2.4301,2.4353,2.4543,2.5816,2.6029,2.5774,2.4977,2.5664,2.6506,2.7036,2.8537,2.9816,3.0282,3.0217,3.0233,3.0449,2.9884,2.9525,2.974,2.8956,2.8273,2.7796,2.7319,2.6765,2.6087,2.6257,2.6287,2.6057,2.6272,2.6611,2.7057,2.7072,2.7581,2.8567,2.9185,2.967,3.0054,3.0838,3.119,3.119,3.119,3.119,3.119,3.119,3.1765,3.2784,3.3998,3.4962,3.56,3.56,3.56,3.56,3.56,3.56,3.56,3.56,3.56,3.56,3.56,3.56,3.56,3.56,3.5769,3.6022,3.6177,3.6517,3.707,3.8143,3.8301,3.8507,3.9421,3.9809,3.991,3.9781,3.9755,3.9209,3.7528,3.7286,3.6836,3.5257,3.5018,3.5018,3.497,3.4643,3.4325,3.4126,3.2473,3.0987,2.9944,2.9072,2.8308,2.7645,2.76,2.76,2.76,2.76,2.76,2.76,2.76,2.7549,2.7463,2.7427,2.735,2.7258,2.7119,2.7055,2.3414,2.3061,2.2699,2.2699,2.325,2.4198,2.5749,2.554,2.5643,2.7902,2.8368,2.8144,2.742,2.7679,2.7984,2.8001,2.9023,2.9784,2.9768,2.967,2.9828,3.0494,2.8684,2.7642,2.8319,2.718,2.6402,2.6402,2.6334,2.6004,2.5327,2.598,2.6041,2.5312,2.5995,2.6349,2.6296,2.6364,2.6741,2.7404,2.8355,2.9394,3.0518,3.0995,3.119,3.119,3.119,3.119,3.119,3.119,3.207,3.3474,3.4201,3.4945,3.56,3.56,3.56,3.56,3.56,3.56,3.56,3.56,3.56,3.56,3.56,3.56,3.56,3.56,3.618,3.6609,3.5825,3.6197,3.6981,3.7719,3.8447,3.8971,3.8988,3.9571,4.0045,3.991,3.9884,3.9387,3.7802,3.7526,3.7006,3.5525,3.5291,3.5245,3.5128,3.5088,3.4835,3.4176,3.2499,3.1131,3.0449,2.9319,2.8323,2.766,2.76,2.76,2.76,2.76,2.76,2.76,2.76,2.76,2.76,2.7463,2.7401,2.7401,2.7258,2.713,2.3533,2.3218,2.2944,2.2751,2.325,2.4198,2.5749,2.554,2.535,2.654,2.6368,2.6188,2.6771,2.7153,2.7446,2.768,2.8532,2.9006,2.8537,2.8342,2.8163,2.7891,2.7309,2.6946,2.7064,2.6708,2.6253,2.5672,2.5604,2.5296,2.462,2.481,2.4825,2.461,2.481,2.5149,2.5588,2.5604,2.6293,2.7609,2.7888,2.8728,3.0032,3.0838,3.119,3.119,3.119,3.119,3.119,3.119,3.207,3.3423,3.3643,3.4484,3.56,3.56,3.56,3.56,3.56,3.56,3.56,3.56,3.56,3.56,3.56,3.56,3.56,3.56,3.5769,3.591,3.565,3.5769,3.6146,3.6924,3.7303,3.7584,3.8108,3.8396,3.8668,3.9068,3.9202,3.9067,3.8405,3.791,3.7287,3.6219,3.5633,3.5291,3.5245,3.5245,3.4859,3.386,3.3165,3.2221,3.0788,3.0208,2.9669,2.9052,2.8547,2.8094,2.7615,2.76,2.76,2.76,2.76,2.76,2.76,2.7549,2.7524,2.7524,2.7412,2.7325,2.3416,2.317,2.3014,2.3114,2.3743,2.4637,2.5833,2.6471,2.6747,2.6609,2.6454,2.665,2.7639,2.7442,2.7394,2.8183,2.8356,2.8243,2.7846,2.7658,2.7434,2.7019,2.6594,2.6265,2.6184,2.592,2.5536,2.5028,2.4981,2.4791,2.4317,2.4302,2.4302,2.4302,2.4302,2.4481,2.4896,2.5113,2.5811,2.6988,2.7391,2.815,2.9221,2.9967,3.048,3.0784,3.1072,3.119,3.119,3.119,3.1901,3.2949,3.2949,3.3715,3.4808,3.4808,3.4989,3.5243,3.5243,3.5407,3.56,3.56,3.5644,3.5667,3.5667,3.5711,3.5756,3.5756,3.5756,3.5756,3.5689,3.5667,3.5785,3.6237,3.6575,3.6931,3.7364,3.7702,3.8017,3.8359,3.8516,3.8516,3.8345,3.7771,3.7179,3.6636,3.5893,3.5377,3.5377,3.5314,3.4954,3.4061,3.3434,3.2461,3.0922,3.0258,2.9609,2.8937,2.8505,2.8085,2.7615,2.76,2.76,2.76,2.76,2.76,2.76,2.76,2.76,2.76,2.7539,2.7437,2.3242,2.3003,2.3003,2.3653,2.451,2.5351,2.5897,2.7713,2.892,2.7575,2.7937,2.8678,2.9299,2.8193,2.7642,2.9012,2.8269,2.7522,2.7563,2.7421,2.7302,2.7222,2.6293,2.5633,2.5628,2.4999,2.4584,2.4518,2.4518,2.4462,2.4323,2.4323,2.4323,2.4323,2.4323,2.4323,2.4317,2.4835,2.537,2.5876,2.6838,2.7609,2.8196,2.8742,2.9416,3.0142,3.0821,3.1142,3.1247,3.121,3.1653,3.2313,3.2313,3.2849,3.3611,3.3611,3.4032,3.4627,3.4695,3.5089,3.556,3.5611,3.5762,3.5919,3.5919,3.6007,3.61,3.61,3.6048,3.5975,3.5861,3.5817,3.5773,3.5667,3.6186,3.6694,3.6694,3.7212,3.7719,3.7787,3.7804,3.7821,3.7889,3.728,3.6778,3.6711,3.6021,3.5514,3.5514,3.536,3.5041,3.4521,3.3354,3.2142,3.0951,2.9817,2.8849,2.8042,2.7936,2.7856,2.7715,2.763,2.76,2.76,2.76,2.76,2.76,2.76,2.76,2.76,2.76,2.7524,2.3657,2.3394,2.332,2.3885,2.5049,2.5936,2.5493,2.668,2.7758,2.7384,2.8351,2.9144,2.8713,2.7857,2.7391,2.7963,2.7375,2.6925,2.7235,2.6984,2.6561,2.5979,2.5449,2.5102,2.5001,2.484,2.4706,2.4605,2.4569,2.4584,2.4549,2.4528,2.4528,2.4528,2.4528,2.4523,2.4457,2.4934,2.5368,2.5743,2.6334,2.6858,2.7335,2.8469,2.9436,3.0187,3.0357,3.0785,3.144,3.1312,3.1774,3.2531,3.2531,3.2994,3.368,3.368,3.3782,3.4021,3.4635,3.4942,3.5143,3.5722,3.6319,3.6836,3.6836,3.6836,3.6864,3.6864,3.6437,3.5997,3.5954,3.5883,3.5817,3.5888,3.5892,3.5853,3.5853,3.5971,3.6299,3.6907,3.7049,3.7212,3.7804,3.728,3.6592,3.596,3.5695,3.5594,3.5594,3.5195,3.469,3.4177,3.3409,3.2421,3.1228,3.0765,3.0255,2.9561,2.9031,2.8677,2.8548,2.7935,2.76,2.76,2.76,2.76,2.76,2.76,2.76,2.76,2.76,2.7575,2.3613,2.3429,2.3478,2.4007,2.4965,2.5657,2.5264,2.6331,2.7272,2.6814,2.7351,2.7764,2.7368,2.6809,2.657,2.713,2.69,2.6664,2.6682,2.6482,2.6223,2.583,2.5323,2.5045,2.513,2.5005,2.4842,2.4706,2.4706,2.4666,2.4609,2.4775,2.4895,2.4895,2.4895,2.4875,2.4851,2.5346,2.5647,2.5758,2.6419,2.6825,2.7042,2.8083,2.8984,2.9735,3.0127,3.0761,3.1498,3.1406,3.1664,3.2061,3.2061,3.2339,3.2686,3.2686,3.2926,3.3391,3.4144,3.4637,3.5023,3.5758,3.6532,3.7192,3.7192,3.7254,3.7298,3.7298,3.6749,3.6148,3.6084,3.6036,3.5993,3.5997,3.5844,3.5706,3.5706,3.5706,3.5785,3.6169,3.6231,3.6468,3.7229,3.7066,3.6541,3.5718,3.56,3.56,3.56,3.5115,3.4601,3.4061,3.3173,3.2118,3.0902,3.0459,2.9907,2.9185,2.8819,2.8571,2.842,2.7946,2.7675,2.76,2.76,2.76,2.76,2.76,2.76,2.76,2.76,2.76,2.354,2.3518,2.3673,2.3936,2.4535,2.5025,2.4969,2.5929,2.6645,2.5895,2.6159,2.6456,2.6318,2.5866,2.5811,2.6656,2.664,2.6455,2.6316,2.6245,2.621,2.621,2.561,2.5285,2.5484,2.525,2.5025,2.4842,2.4842,2.4806,2.4755,2.5075,2.5272,2.5349,2.5349,2.5349,2.5329,2.5852,2.605,2.5924,2.6741,2.7104,2.7074,2.7673,2.8357,2.9092,2.9895,3.0664,3.1367,3.1468,3.1536,3.1555,3.1555,3.1595,3.1635,3.1635,3.2065,3.2737,3.3456,3.4103,3.4689,3.5583,3.6453,3.717,3.7428,3.7597,3.7702,3.7702,3.7133,3.6452,3.6264,3.6208,3.6165,3.6062,3.5971,3.5861,3.5839,3.5839,3.5817,3.5689,3.5667,3.587,3.6514,3.6632,3.6389,3.5684,3.56,3.56,3.56,3.4945,3.4324,3.3866,3.2654,3.143,3.033,2.971,2.907,2.8281,2.8235,2.8162,2.8029,2.7915,2.7815,2.7675,2.7625,2.76,2.76,2.76,2.76,2.76,2.76,2.76,2.4001,2.4209,2.4254,2.3437,2.3831,2.4423,2.441,2.4519,2.4592,2.4398,2.6353,2.7902,2.7247,2.6289,2.594,2.7049,2.6393,2.6076,2.7002,2.6842,2.6624,2.6624,2.6228,2.5835,2.5521,2.5465,2.5307,2.5005,2.4966,2.5088,2.537,2.5427,2.5615,2.5962,2.598,2.5961,2.5888,2.6367,2.6539,2.6403,2.6989,2.7266,2.7267,2.7353,2.7786,2.8459,2.9214,3.0021,3.085,3.1359,3.1653,3.1763,3.1763,3.1763,3.1764,3.1764,3.1833,3.204,3.2781,3.3089,3.3399,3.4846,3.5832,3.6676,3.802,3.8439,3.8439,3.8439,3.7927,3.718,3.6452,3.6233,3.6208,3.6255,3.6191,3.6101,3.6014,3.5975,3.5975,3.5954,3.5954,3.5944,3.5931,3.5926,3.5869,3.5639,3.56,3.56,3.56,3.4223,3.321,3.3137,3.1653,3.0351,2.9612,2.9433,2.911,2.8418,2.8372,2.8323,2.8186,2.8162,2.8088,2.7955,2.7715,2.76,2.76,2.76,2.76,2.76,2.76,2.76,2.4009,2.3952,2.3833,2.3251,2.3383,2.3616,2.3591,2.3889,2.406,2.3537,2.4795,2.5853,2.5419,2.5642,2.6042,2.6559,2.6602,2.6645,2.6923,2.6808,2.6624,2.6385,2.5827,2.5569,2.5821,2.5457,2.5319,2.5596,2.5629,2.5668,2.5835,2.605,2.6245,2.6436,2.6436,2.6419,2.6384,2.6607,2.6775,2.6957,2.7185,2.7299,2.7299,2.7299,2.7679,2.837,2.8698,2.93,3.0075,3.0798,3.1126,3.1214,3.1627,3.18,3.18,3.18,3.18,3.1903,3.2645,3.2904,3.3093,3.4214,3.5352,3.6422,3.7111,3.7905,3.8594,3.8594,3.8375,3.8025,3.768,3.7262,3.6948,3.6973,3.6607,3.6233,3.6174,3.6127,3.6101,3.6019,3.5997,3.5975,3.591,3.5927,3.5888,3.5844,3.5756,3.547,3.4785,3.3705,3.2749,3.2071,3.0695,2.971,2.9417,2.9073,2.8719,2.8427,2.8411,2.8372,2.8323,2.8235,2.8162,2.8113,2.7865,2.77,2.77,2.765,2.76,2.76,2.76,2.7809,2.3989,2.3764,2.3587,2.3283,2.3199,2.3216,2.3315,2.3627,2.3789,2.3323,2.3711,2.4058,2.3919,2.4824,2.5653,2.5843,2.6362,2.6664,2.6345,2.628,2.6182,2.5866,2.533,2.518,2.5612,2.5162,2.5029,2.5474,2.5689,2.5857,2.5945,2.6421,2.6758,2.6842,2.6858,2.6858,2.6858,2.6858,2.699,2.7299,2.7299,2.7299,2.7299,2.7299,2.7592,2.8127,2.8316,2.8713,2.9299,3.0282,3.0714,3.0765,3.1507,3.18,3.18,3.18,3.18,3.1869,3.2421,3.2628,3.2748,3.3542,3.4542,3.5542,3.6128,3.7249,3.8353,3.8565,3.8715,3.8784,3.8427,3.7909,3.7461,3.7254,3.6732,3.6301,3.6301,3.6255,3.6208,3.6105,3.6084,3.6084,3.6041,3.6041,3.6041,3.5997,3.5652,3.5065,3.418,3.3039,3.1999,3.1101,2.9884,2.9166,2.9166,2.8704,2.8411,2.8411,2.8411,2.8411,2.8411,2.8299,2.8235,2.8235,2.8014,2.7865,2.779,2.77,2.7625,2.76,2.7779,2.8113,2.4154,2.4087,2.3961,2.3576,2.3481,2.3619,2.4126,2.3664,2.334,2.4007,2.4174,2.4169,2.4102,2.4145,2.4423,2.5136,2.5278,2.5267,2.5213,2.5181,2.5152,2.5065,2.5016,2.488,2.4513,2.4448,2.429,2.3951,2.4645,2.5196,2.5511,2.6269,2.6875,2.725,2.7283,2.7283,2.7283,2.7283,2.7283,2.7299,2.7299,2.7299,2.7299,2.7299,2.7316,2.7385,2.8092,2.842,2.8575,3.0075,3.0714,3.0765,3.1507,3.18,3.18,3.18,3.18,3.18,3.1834,3.1852,3.1972,3.2714,3.3007,3.349,3.5645,3.6887,3.7702,3.841,3.9094,3.9319,3.7927,3.753,3.7323,3.6542,3.6335,3.6301,3.6301,3.6301,3.6301,3.628,3.628,3.6259,3.6187,3.6204,3.6144,3.6019,3.5018,3.4275,3.4203,3.2056,3.0496,3.0441,2.924,2.8458,2.8458,2.8427,2.8411,2.8411,2.8411,2.8411,2.8411,2.8387,2.8387,2.8387,2.8235,2.8063,2.779,2.779,2.7715,2.7615,2.8248,2.8562,2.4164,2.4107,2.402,2.3764,2.3598,2.3552,2.3744,2.3435,2.3165,2.3433,2.349,2.3478,2.3452,2.4195,2.4889,2.5153,2.5188,2.5188,2.5177,2.516,2.5074,2.4793,2.448,2.4333,2.4452,2.4183,2.4174,2.4532,2.5295,2.575,2.5875,2.666,2.7153,2.7299,2.7299,2.7299,2.7299,2.7299,2.7299,2.7299,2.7299,2.7299,2.7299,2.7299,2.7299,2.7299,2.7575,2.7678,2.7799,2.9317,2.992,3.011,3.1834,3.2507,3.2507,3.2507,3.2507,3.2438,3.1955,3.18,3.1834,3.211,3.2507,3.3059,3.3869,3.5335,3.668,3.6473,3.7646,3.875,3.7771,3.7512,3.7305,3.649,3.6301,3.6301,3.6301,3.6697,3.6904,3.6404,3.6301,3.6301,3.6276,3.588,3.5549,3.549,3.4402,3.3275,3.2491,3.1222,3.0101,2.932,2.8752,2.8411,2.8411,2.8411,2.8411,2.8411,2.8411,2.8411,2.8411,2.8411,2.8411,2.8411,2.8348,2.8201,2.793,2.784,2.7941,2.8233,2.8487,2.8812,2.4275,2.4238,2.4192,2.3979,2.3816,2.3675,2.3524,2.3359,2.3199,2.3132,2.3107,2.3107,2.3107,2.3859,2.4505,2.4505,2.4505,2.4491,2.4464,2.4464,2.4351,2.4061,2.3743,2.3667,2.3941,2.366,2.3688,2.4223,2.516,0.0,2.5715,2.673,2.7299,2.7299,2.7299,2.7299,2.7299,2.7299,2.7299,2.7299,2.7299,2.7299,2.7299,2.7299,2.7299,2.7299,2.7313,2.733,2.7385,2.8627,2.9299,2.9747,3.1509,3.253,3.2998,3.2998,3.3135,3.3237,3.2494,3.2216,3.2127,3.1869,3.2127,3.2576,3.2817,3.4145,3.5508,3.5266,3.6515,3.778,3.7297,3.6968,3.6709,3.645,3.6322,3.6301,3.6301,3.6715,3.6939,3.6404,3.6094,3.5921,3.5921,3.5318,3.4818,3.4818,3.3583,3.2364,3.1565,3.0755,2.9856,2.8826,2.875,2.8715,2.8484,2.8436,2.8411,2.8411,2.8411,2.8411,2.8411,2.8411,2.8411,2.8411,2.8411,2.8275,2.8079,2.7965,2.8067,2.834,2.8353,2.8439,0.0,0.0,0.0,2.4257,2.4154,2.4001,2.3621,2.3524,2.3447,2.3163,2.3102,2.3102,2.3107,2.3107,2.3107,2.3107,2.3107,2.3082,2.302,2.299,2.2982,2.2902,2.2889,2.2889,2.2889,2.2842,2.2803,2.2838,2.4185,2.5005,2.5023,2.6471,2.7299,2.7299,2.7299,2.7299,2.7299,2.7299,2.7299,2.7299,2.7299,2.7299,2.7297,2.7297,2.7297,2.7315,2.736,2.7378,2.7366,2.8108,2.89,2.9762,3.0526,3.1793,3.3169,3.3221,3.3635,3.406,3.3351,3.2998,3.2748,3.2043,3.1818,3.1956,3.2645,3.344,3.4217,3.4907,3.5745,3.6433,3.6451,3.5965,3.5656,3.6329,3.6419,3.6339,3.6322,3.6322,3.6301,3.6301,3.5697,3.5197,3.5232,3.4614,3.4113,3.4113,3.2655,3.1568,3.1568,3.0624,2.9705,2.9014,2.9347,2.9341,2.869,2.8499,2.8427,2.8411,2.8411,2.8411,2.8411,2.8411,2.8411,2.8411,2.8411,2.8348,2.821,2.821,2.8063,2.7811,2.7841,2.747,2.4497,0.0,0.0,0.0,0.0,0.0,2.4097,2.3931,2.3706,2.3432,2.3393,2.3324,2.3139,2.3107,2.3107,2.3107,2.3107,2.3077,2.3065,2.3082,2.307,2.3057,2.3008,2.2982,2.2982,2.2919,2.3107,0.0,2.458,2.5317,2.5851,2.6793,2.7299,2.7299,2.7299,2.7299,2.7299,2.7299,2.7299,2.7299,2.7299,2.733,2.7378,2.7378,2.7407,2.7452,2.745,2.745,2.7504,2.8235,2.8685,2.9099,3.1011,3.2002,3.2543,3.3656,3.3829,3.3461,3.3236,3.2801,3.2279,3.2089,3.2018,3.2053,3.2262,3.2851,3.3389,3.306,3.3928,3.5111,3.5633,3.6452,3.7064,3.6713,3.7023,3.7228,3.6707,3.6602,3.6523,3.6343,3.5697,3.537,3.5904,3.4938,3.4113,3.4113,3.2232,3.08,3.08,2.9884,2.9328,2.9658,2.9717,2.9626,2.9357,2.9292,2.9018,2.8442,2.8411,2.8411,2.8411,2.8411,2.8411,2.8411,2.8411,2.8372,2.8348,2.8235,2.8092,2.7856,2.7343,2.7233,2.4495,2.4512,2.4555,2.4623,0.0,0.0,2.4238,2.4069,2.3862,0.0,2.3491,2.3452,2.3301,2.3265,2.3253,2.3193,2.3193,2.3168,2.3119,2.3107,2.3107,2.3107,2.307,2.3045,2.3045,2.3274,2.3632,2.4112,2.5063,2.5959,2.6705,2.7145,2.7376,2.7329,2.7346,2.733,2.7299,2.7299,2.7297,2.7346,2.7346,2.7376,2.7436,2.7436,2.7467,2.7496,2.7526,2.7542,2.7576,2.8026,2.8409,2.883,3.0191,3.1132,3.19,3.3454,3.3906,3.3799,3.4131,3.392,3.3483,3.317,3.2839,3.2561,3.2561,3.2856,3.3098,3.2664,3.3485,3.4549,3.5042,3.5791,3.6399,3.631,3.6324,3.6269,3.5832,3.5745,3.5879,3.6381,3.5817,3.5434,3.5866,3.4634,3.3593,3.3593,3.1823,3.0497,3.0497,2.9875,2.9478,2.9619,2.9791,2.9741,2.9347,2.9235,2.8983,2.8523,2.842,2.8411,2.8411,2.8411,2.8411,2.8411,2.8411,2.8411,2.8411,2.8323,2.7906,2.719,2.6961,2.6608,2.4512,2.4564,2.4623,2.4682,2.4666,0.0,2.4238,2.4126,2.3991,0.0,2.3582,2.3589,2.3555,2.3544,2.351,2.3389,2.3342,2.3301,2.3114,2.3107,2.3107,2.3107,2.3107,2.3107,2.3107,2.3683,2.4147,2.4318,2.5705,2.6829,2.7461,2.7496,2.7465,2.7407,2.7407,2.7376,2.7313,2.7313,2.7345,2.7407,2.7407,2.7454,2.7511,2.7511,2.7511,2.7526,2.7587,2.7617,2.7632,2.7672,2.8092,2.8679,2.8767,2.9795,3.137,3.2739,3.3721,3.4488,3.5222,3.5392,3.5192,3.4617,3.3938,3.3363,3.3363,3.3293,3.3223,3.3136,3.3733,3.4419,3.4546,3.4615,3.4802,3.5449,3.5058,3.453,3.4459,3.4424,3.4826,3.622,3.5893,3.5414,3.5414,3.4086,3.2988,3.2863,3.1496,3.0477,3.0435,3.0203,2.9848,2.9272,2.9698,2.976,2.9093,2.8872,2.8698,2.8612,2.8493,2.8411,2.8411,2.8411,2.8411,2.8411,2.8411,2.8411,2.8411,2.825,2.7545,2.6334,2.6524,2.5752,2.4623,2.4666,2.4682,2.4703,2.4684,0.0,2.4594,2.4578,2.4485,0.0,2.4146,2.408,2.3862,2.3821,2.3811,2.379,2.3692,2.3502,2.3151,2.3107,2.3107,2.3107,2.3107,2.3107,2.3107,2.3217,2.3831,2.5059,2.653,2.74,2.7511,2.7496,2.7496,2.7465,2.7465,2.7465,2.745,2.745,2.7465,2.7465,2.7465,2.7511,2.7587,2.7587,2.76,2.7657,2.7672,2.7672,2.7672,2.7701,2.7789,2.7985,2.8634,2.9827,3.123,3.1545,3.2511,3.3722,3.3879,3.3896,3.3966,3.4474,3.4546,3.4404,3.4404,3.3966,3.3317,3.2722,3.3108,3.3704,3.3722,3.4633,3.544,3.5003,3.5229,3.5368,3.4772,3.4632,3.472,3.5035,3.5262,3.5414,3.5414,3.4552,3.3547,3.2559,3.1331,3.0356,2.9989,2.956,2.9501,2.9927,3.0101,3.0061,2.9799,2.9735,2.9404,2.8643,2.8589,2.8517,2.8396,2.8411,2.8411,2.8411,2.8411,2.8411,2.8411,2.7382,2.6927,2.7052,2.5522,2.4874,2.4666,2.4698,2.4703,2.47,0.0,0.0,0.0,2.4594,2.4545,2.4338,2.4302,2.4266,2.4117,2.4107,2.4069,2.4002,2.3881,2.3742,2.3529,2.3383,2.3301,2.3301,2.3241,2.3205,2.3205,2.3508,2.4348,2.5879,2.6678,2.7245,2.7582,2.76,2.7585,2.7557,2.7557,2.7542,2.7496,2.7496,2.7511,2.7557,2.7557,2.7569,2.7659,2.7659,2.7674,2.7701,2.7701,2.7701,2.7701,2.7701,2.7701,2.7736,2.814,2.8772,2.9597,3.0756,3.1703,3.2511,3.3687,3.4091,3.4232,3.5004,3.5004,3.4758,3.5144,3.4723,3.4021,3.3652,3.3529,3.3512,3.3512,3.4073,3.4564,3.4178,3.4371,3.4441,3.3705,3.3846,3.4109,3.4109,3.4574,3.4925,3.4903,3.4125,3.3216,3.2422,3.1269,3.033,2.9859,2.9403,2.924,2.9611,2.9659,2.9635,2.9564,2.9478,2.9265,2.8787,2.8668,2.8565,2.8493,2.8436,2.8411,2.8411,2.8411,2.8411,2.8411,2.7174,2.6692,2.6875,2.5494,2.4823,0.0,0.0,0.0,0.0,0.0,2.4676,0.0,0.0,0.0,2.4401,2.4375,2.4375,2.4375,0.0,0.0,2.4035,0.0,0.0,0.0,2.3705,0.0,2.3555,2.3418,2.3336,2.3336,2.3947,2.4844,2.6068,2.6423,2.6862,2.7455,2.7613,2.7672,2.7615,2.7615,2.7585,2.7539,2.7539,2.7572,2.7615,2.7615,2.7644,2.7701,2.7701,2.7701,2.7701,2.7701,2.7701,2.7701,2.7701,2.7701,2.7701,2.7701,2.7877,2.8351,2.993,3.0896,3.1668,3.3406,3.4144,3.4424,3.5459,3.5495,3.5214,3.5671,3.539,3.4846,3.4547,3.4003,3.3459,3.3336,3.3283,3.3283,3.3283,3.3283,3.3125,3.2529,3.2862,3.3301,3.3301,3.3703,3.4101,3.42,3.3507,3.2717,3.207,3.1128,3.0309,2.9744,2.9335,2.9098,2.9098,2.9098,2.9098,2.9098,2.899,2.8943,2.8904,2.8748,2.8645,2.8597,2.8468,2.8411,2.8411,2.8411,2.8411,2.8411,2.7378,2.6745,2.6522,2.5687,2.4936,0.0,0.0,0.0,0.0,2.47,0.0,0.0,0.0,2.4676,2.466,0.0,2.466,2.466,0.0,0.0,0.0,0.0,0.0,2.3479,2.3841,2.4077,2.3721,2.356,2.3482,2.3482,2.4069,2.4489,2.4567,2.5823,2.6634,2.6736,2.735,2.7701,2.7686,2.7686,2.7686,2.7672,2.7672,2.7686,2.7686,2.7686,2.7701,2.7701,2.7701,2.7701,2.7701,2.7701,2.7701,2.7701,2.7701,2.7701,2.7701,2.7701,2.8579,2.9702,2.8526,2.986,3.2195,3.1739,3.2055,3.3003,3.5108,3.6233,3.6621,3.5985,3.574,3.539,3.4003,3.3582,3.3354,3.2687,3.2511,3.2529,3.2529,3.2529,3.2511,3.2423,3.2476,3.2511,3.2511,3.2494,3.2686,3.3385,3.3272,3.2565,3.1005,3.063,3.0182,2.9289,2.9121,2.9098,2.9098,2.9098,2.9098,2.9098,2.9075,2.9029,2.8904,2.8897,2.8779,2.8597,2.8468,2.8411,2.8411,2.8411,2.8411,2.8411,2.773,2.7159,2.6666,2.5439,2.475,0.0,0.0,0.0,0.0,0.0,0.0,2.47,0.0,2.47,0.0,0.0,0.0,0.0,0.0,0.0,0.0,2.4361,0.0,0.0,0.0,2.4238,0.0,0.0,0.0,2.3517,2.3744,2.4064,2.4383,2.5416,2.619,2.6578,2.7297,2.7701,2.7701,2.7701,2.7701,2.7701,2.7701,2.7701,2.7701,2.7701,2.7701,2.7701,2.7701,2.7701,2.7701,2.7701,2.7701,2.7701,2.7701,2.7701,2.7701,2.7701,2.8105,2.8684,2.8473,2.979,3.1581,3.0826,3.1949,3.395,3.5336,3.6338,3.6937,3.6584,3.618,3.5564,3.4495,3.4214,3.3933,3.2704,3.2704,3.2915,3.2493,3.2406,3.2406,3.2406,3.2406,3.2406,3.2406,3.2354,3.2406,3.2757,3.2649,3.2183,3.1218,3.0788,3.0314,2.9645,2.9296,2.9098,2.9098,2.9098,2.9098,2.9098,2.9098,2.9075,2.9013,2.8943,2.8803,2.8597,2.8565,2.8468,2.8411,2.8411,2.8411,2.8411,2.7795,2.7221,2.6678,2.5701,2.5076,2.5694,0.0,0.0,0.0,0.0,0.0,0.0,0.0,0.0,0.0,0.0,0.0,0.0,0.0,2.4632,2.4407,0.0,2.4511,0.0,2.4389,0.0,0.0,0.0,0.0,0.0,2.3627,2.3788,2.4189,2.5078,2.58,2.6244,2.7174,2.7701,2.7701,2.7701,2.7701,2.7701,2.7701,2.7701,2.7701,2.7701,2.7701,2.7701,2.7701,2.7824,2.8017,2.8017,2.8017,2.8017,2.8017,2.7894,2.7701,2.7701,2.7701,2.7771,2.8351,2.9562,3.0791,3.0036,3.1651,3.4179,3.4934,3.5846,3.6707,3.6937,3.6584,3.5969,3.5214,3.5004,3.4653,3.3108,3.3108,3.3301,3.2581,3.2406,3.2406,3.2406,3.2406,3.2406,3.2406,3.2406,3.2406,3.2406,3.2249,3.1966,3.1528,3.103,3.0506,2.9967,2.9506,2.9167,2.9098,2.9098,2.9098,2.9098,2.9098,2.9098,2.9098,2.8967,2.8826,2.866,2.8636,2.8541,2.8411,2.8411,2.8411,2.8411,2.7959,2.7388,2.6678,2.6,2.537,0.0,0.0,0.0,2.6161,0.0,0.0,0.0,0.0,2.47,0.0,0.0,0.0,0.0,2.47,2.4445,2.3663,2.42,0.0,0.0,0.0,0.0,0.0,0.0,0.0,0.0,2.3959,2.3792,0.0,2.4816,2.5553,2.5437,2.6876,2.7701,2.7701,2.7701,2.7701,2.7701,2.7701,2.7701,2.7701,2.7701,2.7701,2.7701,2.7701,2.8122,2.886,2.886,2.886,2.886,2.886,2.8403,2.7701,2.7701,2.7701,2.7701,2.7719,2.8754,3.0036,2.9228,3.0492,3.2599,3.3336,3.46,3.5968,3.6761,3.6989,3.6796,3.5985,3.5757,3.5406,3.388,3.3494,3.3318,3.2581,3.2406,3.2406,3.2406,3.2406,3.2406,3.2406,3.2406,3.2406,3.2406,3.2284,3.2055,3.1657,3.1259,3.0727,2.9989,2.9661,2.9396,2.9121,2.9098,2.9098,2.9098,2.9098,2.9098,2.9098,2.8967,2.8865,2.8794,2.866,2.8541,2.8411,2.8411,2.8411,2.8411,2.8372,2.781,2.6678,2.6136,2.5508,0.0,0.0,2.7796,2.6998,0.0,0.0,0.0,0.0,0.0,0.0,0.0,0.0,0.0,2.47,2.4613,2.4332,2.452,2.4595,0.0,2.4576,0.0,0.0,0.0,0.0,0.0,0.0,0.0,0.0,2.4578,2.5203,2.5517,2.6527,2.7296,2.7683,2.7701,2.7701,2.7701,2.7701,2.7701,2.7701,2.7701,2.7701,2.7719,2.8245,2.8649,2.893,2.9457,2.9702,2.9702,2.9702,2.9228,2.8491,2.8491,2.8157,2.7754,2.8298,2.9474,3.1001,3.2283,3.2581,3.2616,3.3881,3.4986,3.5845,3.6127,3.6566,3.6726,3.5443,3.5425,3.5318,3.3301,3.3143,3.3301,3.2581,3.2406,3.2406,3.2406,3.2406,3.2406,3.2406,3.2406,3.2406,3.2406,3.2354,3.2301,3.2144,3.1507,3.0985,3.073,3.0102,2.9611,2.938,2.9357,2.9305,2.9137,2.9098,2.9098,2.9098,2.9052,2.8982,2.8865,2.8311,2.8179,2.8525,2.8013,2.7965,2.8411,2.8411,2.781,2.6704,2.6508,2.5878,2.8387,2.8481,0.0,2.7834,2.7628,0.0,2.6612,0.0,2.6885,0.0,0.0,0.0,0.0,2.5094,2.4801,2.5102,2.4895,2.47,0.0,2.4768,0.0,0.0,0.0,2.4545,0.0,0.0,2.4153,2.3917,2.4494,2.5111,2.5625,2.6393,2.7102,2.7803,2.773,2.7701,2.7701,2.7701,2.7701,2.7701,2.7701,2.7701,2.7719,2.8526,2.907,2.9369,3.0159,3.0492,3.0492,3.0492,3.0036,2.9334,2.9334,2.9018,2.8579,2.8807,2.9878,3.1526,3.3723,3.3565,3.2634,3.3952,3.4655,3.5092,3.5617,3.5987,3.6041,3.5302,3.5249,3.5004,3.3248,3.3143,3.3319,3.2581,3.2406,3.2406,3.2406,3.2406,3.2406,3.2406,3.2406,3.2406,3.2406,3.2406,3.2406,3.2406,3.182,3.1317,3.1123,3.0502,2.9968,2.9633,2.9538,2.938,2.9121,2.9098,2.9098,2.9098,2.9098,2.8919,2.8575,2.7998,2.7976,2.8558,2.7805,2.7857,2.8765,2.8519,2.781,2.6704,2.6704,2.6081]}]]